GFSSE_250_spd_000.txt.gz
Wind_Speed
40 38 36 36 35 32 32 35 35 34 32 32 34 36 38 38 40 40 43 45 48 47 47 49 51 53 54 55 58 59 60 59 61 63 65 65 67 65 66 67 65 64 62
44 41 41 39 38 34 34 35 36 37 36 35 37 38 41 43 45 48 49 49 50 51 52 54 55 55 54 56 59 60 62 66 65 66 67 66 65 66 65 62 57 54 50
50 45 42 41 38 36 37 36 39 38 35 38 41 42 44 46 46 49 52 53 57 57 58 59 59 61 60 60 61 65 67 66 66 66 65 65 65 62 56 53 47 43 44
52 50 45 46 45 42 44 42 37 34 40 42 43 45 48 51 53 54 56 59 60 61 62 62 65 64 67 68 64 62 65 65 64 65 64 64 59 52 51 49 47 43 42
53 51 47 50 46 44 43 42 39 42 45 45 48 49 47 47 50 53 54 57 60 60 63 64 65 65 65 65 64 62 63 62 61 65 64 61 53 49 51 49 46 47 46
54 54 51 53 51 44 41 46 49 49 46 47 46 45 47 49 53 56 59 58 59 59 64 67 67 69 67 63 64 63 61 60 60 63 62 57 50 51 51 48 50 51 50
59 54 55 54 51 49 48 49 49 47 46 46 47 51 51 54 58 62 62 63 64 65 69 68 65 63 64 62 60 57 58 58 60 62 60 54 50 49 52 52 50 52 49
62 59 58 55 56 55 53 52 48 45 48 50 52 53 55 62 66 67 68 69 68 68 67 67 65 60 57 55 54 55 55 58 59 60 56 52 52 51 52 53 52 55 48
63 60 58 59 58 56 56 49 47 48 52 53 55 57 61 63 64 66 69 67 67 67 65 61 56 52 50 51 52 53 55 56 57 54 53 51 51 54 54 52 54 58 56
65 67 62 59 57 59 50 47 49 53 55 58 61 63 64 63 65 66 66 69 64 62 59 56 49 47 48 50 51 52 54 55 54 53 52 52 54 55 53 53 54 61 62
65 60 52 48 61 52 54 53 54 59 61 65 69 68 66 66 67 67 68 67 62 58 54 47 44 46 49 49 52 53 52 52 52 52 53 55 55 57 57 55 58 64 61
68 64 65 60 54 53 55 58 60 63 66 69 71 70 68 72 69 70 67 63 57 54 46 43 45 47 50 51 52 52 52 50 52 53 55 57 55 56 60 52 57 60 62
68 69 65 62 67 64 62 64 65 68 68 70 74 73 73 71 69 66 63 59 53 48 43 44 47 48 48 48 49 50 51 51 52 54 58 60 59 58 60 60 61 65 66
70 70 67 66 67 68 67 67 70 68 69 71 71 70 68 66 65 63 60 54 47 44 43 46 48 48 47 47 47 49 50 51 52 54 57 61 62 61 61 61 62 66 69
73 70 68 67 67 67 65 65 66 67 66 67 65 66 64 63 62 58 55 45 42 43 44 48 48 46 45 46 44 47 50 51 52 55 58 62 66 68 68 67 64 67 72
70 69 70 65 66 68 67 67 70 69 66 66 64 66 62 58 56 54 47 42 43 43 44 44 43 42 43 43 44 45 49 50 52 57 59 63 66 71 72 74 72 73 75
72 68 68 66 70 70 67 70 71 69 67 66 65 61 54 54 55 49 44 42 44 41 43 42 42 41 41 43 44 46 46 47 52 53 59 63 66 71 75 75 79 81 82
72 70 70 68 71 72 74 72 70 68 65 62 52 52 54 52 49 43 44 43 43 42 42 42 42 40 41 43 44 46 46 47 49 52 55 58 64 70 77 82 83 85 88
68 71 70 69 72 72 69 67 65 57 54 49 49 51 49 44 44 42 45 44 45 45 45 44 44 44 46 47 48 48 48 49 51 53 56 57 61 63 68 74 79 83 84
49 58 63 68 70 66 64 62 58 49 45 46 46 44 38 41 43 43 44 43 46 49 49 49 49 48 50 52 54 55 55 55 56 57 59 61 63 65 69 72 76 79 82
43 45 47 51 52 50 53 52 45 39 42 43 45 40 39 42 41 42 44 46 48 48 49 50 51 51 51 53 56 58 60 60 63 64 66 68 69 72 74 76 79 82 85
43 42 44 45 44 44 44 39 37 39 40 44 41 40 41 39 38 39 42 45 44 45 46 47 50 51 52 53 56 60 63 65 65 66 70 73 74 78 82 85 88 90 93
41 39 40 40 40 37 35 35 36 39 41 37 36 36 36 37 35 37 40 41 43 44 46 48 51 55 57 56 57 59 62 66 68 74 76 78 79 83 86 90 93 96 99
40 38 38 37 33 32 34 33 36 38 37 37 37 38 40 38 40 42 44 45 46 48 50 52 55 58 62 64 65 65 66 66 67 67 78 84 86 88 91 94 97 102 105
41 39 37 34 33 29 29 31 34 36 38 40 40 40 43 43 44 46 47 48 51 53 56 59 61 63 66 69 69 72 74 75 74 71 70 79 86 89 92 96 101 103 105
41 39 38 38 33 33 34 35 36 40 41 42 42 44 44 44 46 50 51 54 56 59 63 67 69 71 74 74 75 75 77 80 83 83 81 80 82 87 94 99 101 104 105

GFSSE_250_spd_003.txt.gz
Wind_Speed
43 44 42 43 35 36 35 35 35 36 36 35 35 36 37 35 37 38 40 42 45 48 50 52 53 54 57 59 59 58 57 57 58 61 63 63 62 64 67 67 67 68 68
50 49 48 47 41 38 39 38 36 37 40 40 39 41 41 40 41 42 44 45 47 50 53 55 58 61 62 62 63 65 64 63 62 62 64 67 67 70 68 67 67 68 68
53 52 51 49 44 40 42 42 39 41 42 43 42 31 35 39 42 44 46 46 48 50 54 57 58 62 64 65 66 67 65 67 70 70 69 67 67 67 68 68 67 68 68
56 55 54 51 47 45 43 44 45 45 44 46 41 37 44 45 47 49 47 49 50 50 52 56 59 60 63 63 66 67 67 68 69 67 69 67 67 68 67 66 67 66 62
58 58 56 52 50 47 44 46 51 46 43 40 39 46 48 48 47 46 50 52 53 56 59 62 63 65 65 67 68 69 69 68 70 69 67 69 68 67 66 64 64 61 53
60 60 58 55 53 51 48 48 52 50 47 46 47 50 47 47 46 49 54 56 62 63 66 67 69 69 72 72 70 70 69 69 65 66 65 65 64 63 64 62 59 53 51
67 63 61 58 55 53 52 52 54 55 53 50 50 52 47 47 52 52 55 59 63 65 66 69 67 67 68 68 67 67 64 63 63 62 62 60 61 60 63 60 54 50 51
72 68 65 62 59 60 56 55 55 54 59 55 50 47 47 51 53 55 59 64 68 67 70 65 66 69 68 66 64 60 57 55 54 55 56 58 59 59 59 56 53 53 53
69 72 70 66 64 62 61 59 58 60 60 59 49 46 49 54 58 63 66 69 71 68 70 71 70 69 66 62 59 55 52 51 52 52 54 56 58 59 59 55 53 56 56
67 66 72 71 69 67 64 61 59 61 58 55 50 54 55 59 65 68 71 74 77 74 71 73 70 65 59 58 52 50 46 47 49 51 55 56 57 56 55 55 54 55 55
77 72 66 64 71 67 62 56 60 45 53 58 55 57 59 63 68 71 75 76 76 74 71 72 68 62 57 51 48 47 49 50 52 53 54 55 56 54 54 55 56 56 56
77 75 73 67 65 67 68 64 62 62 62 54 60 62 62 68 71 71 71 71 69 68 72 71 63 55 51 47 47 49 50 52 52 52 52 53 53 53 53 56 59 60 58
78 74 73 74 69 65 64 64 64 64 64 66 67 69 69 70 68 70 71 69 68 72 72 64 53 48 46 46 48 50 49 49 49 50 50 51 52 52 54 56 61 63 64
81 75 75 73 72 69 67 68 70 66 64 65 69 70 68 68 72 71 70 70 71 72 61 56 46 43 46 47 46 44 43 45 46 48 48 50 52 54 55 57 63 68 70
79 76 76 74 73 71 69 69 69 68 67 67 69 67 69 69 74 72 69 70 68 63 55 45 42 43 44 46 43 43 43 44 45 46 47 48 51 54 57 59 61 67 71
72 76 76 74 74 72 70 70 69 68 69 68 68 69 69 70 75 71 67 64 64 58 48 43 41 40 43 43 43 43 44 45 46 47 48 48 49 52 54 59 64 66 70
66 70 73 72 72 72 70 69 69 68 69 70 71 71 72 72 67 63 63 62 57 47 42 43 45 46 48 48 48 45 46 48 49 50 51 52 53 53 54 57 60 65 70
58 62 69 72 70 66 64 64 68 65 66 67 68 70 70 68 68 58 59 53 46 42 42 44 46 47 50 54 54 54 55 55 57 57 57 57 57 58 59 61 61 62 65
56 57 56 61 68 71 70 68 69 69 67 68 70 67 67 61 56 55 51 43 42 43 43 45 46 48 50 52 53 54 55 57 58 59 60 62 63 65 66 66 67 68 70
54 56 57 60 58 57 66 71 70 68 69 70 68 59 55 54 51 50 44 43 45 44 44 45 45 47 49 51 53 54 55 57 59 61 62 64 66 68 71 72 74 75 77
54 53 52 54 52 53 56 57 56 56 57 54 51 51 49 47 47 46 44 42 39 39 41 42 43 44 47 50 53 55 56 59 62 64 67 69 70 72 75 76 78 80 83
53 52 51 50 49 43 42 44 45 47 48 48 47 46 45 45 43 40 40 39 41 43 44 46 48 48 50 52 54 57 61 62 64 67 71 74 75 77 79 80 83 85 87
54 52 50 49 46 41 40 41 43 44 44 43 43 41 42 41 41 42 44 45 46 47 48 51 53 54 55 55 58 61 65 70 72 78 79 81 81 82 84 86 88 90 92
53 51 51 48 43 39 38 39 39 40 38 38 37 37 39 40 41 44 46 47 50 51 52 55 58 61 63 65 68 69 72 73 74 76 84 87 86 86 89 92 94 97 99
53 50 50 45 41 38 38 38 36 37 35 34 36 38 40 42 44 46 49 51 52 53 55 57 61 65 69 72 74 77 81 83 83 83 80 84 88 89 90 92 94 98 101
54 51 49 44 40 40 39 37 38 37 37 38 39 41 41 44 46 49 53 55 56 57 60 64 67 71 75 79 81 85 88 91 95 95 91 88 84 83 89 93 97 101 106

GFSSE_250_spd_006.txt.gz
Wind_Speed
50 49 47 43 35 33 35 35 31 32 34 35 35 32 33 35 36 38 38 38 39 41 42 44 47 49 51 54 56 58 59 62 65 64 65 66 66 65 66 63 63 64 65
54 53 50 47 46 45 44 45 40 36 37 39 39 38 37 37 38 34 37 40 41 43 44 46 48 49 53 53 53 56 60 63 62 63 65 66 67 66 70 70 71 70 70
58 56 53 51 50 50 49 49 45 41 39 42 44 42 38 42 39 36 38 42 44 46 48 50 50 51 57 60 62 62 63 64 67 66 66 65 67 66 68 69 68 69 68
60 60 57 53 52 52 51 51 48 44 44 43 45 45 38 39 41 41 45 47 48 46 49 52 52 56 59 63 66 70 69 69 67 69 71 67 66 68 70 68 71 68 68
64 62 61 58 56 54 53 51 50 48 46 45 47 49 41 44 45 48 50 50 48 49 51 51 54 59 64 64 72 67 67 66 67 66 66 67 68 67 66 65 67 66 66
67 66 64 63 60 58 56 55 53 51 49 46 49 50 49 51 51 52 51 52 49 51 53 52 60 64 65 71 74 70 69 70 69 65 65 62 61 61 63 63 63 63 61
72 69 67 64 61 61 60 58 56 54 52 50 51 53 52 55 54 53 49 49 52 54 56 63 68 71 75 76 73 70 72 70 62 59 59 57 54 54 54 55 59 60 60
74 73 71 68 66 65 63 62 60 57 56 55 53 54 53 58 59 57 48 50 55 58 64 69 73 76 76 72 69 73 71 63 58 56 53 50 50 49 51 52 53 55 57
76 74 73 70 70 69 68 66 65 62 60 61 60 60 60 62 60 56 51 53 57 60 66 71 75 73 68 67 72 74 63 58 53 49 46 45 46 47 49 50 53 56 57
73 74 75 74 72 73 72 72 70 68 64 65 64 64 65 57 54 52 55 55 60 64 68 70 72 69 67 71 73 66 56 50 47 44 44 47 48 49 50 51 54 54 55
79 75 75 75 73 71 69 70 71 72 71 64 64 55 52 55 58 57 57 62 68 72 71 72 71 68 68 70 67 55 49 44 44 46 48 47 47 48 48 49 50 52 53
80 80 79 78 74 75 71 67 65 62 63 68 69 67 63 66 67 63 65 69 71 72 73 70 73 72 69 66 58 46 45 44 45 44 43 42 44 45 46 46 48 49 51
72 77 79 77 76 73 74 76 75 72 66 62 63 65 65 65 65 68 67 70 70 71 72 72 73 69 66 58 46 45 42 44 44 45 43 43 42 43 44 45 46 47 50
76 73 75 76 77 76 75 74 74 72 70 68 66 65 67 68 68 67 70 69 71 71 72 69 68 66 61 48 44 39 39 41 41 42 43 44 46 46 45 45 46 47 49
76 77 75 74 73 74 75 76 74 72 71 70 69 70 70 71 69 71 70 71 72 71 67 72 66 63 48 42 41 43 43 45 46 46 46 45 45 46 48 51 51 51 50
69 72 72 71 73 74 74 74 75 73 70 70 70 69 70 69 69 69 69 67 69 66 66 64 62 49 41 39 40 43 45 47 48 49 50 51 53 55 56 56 57 57 57
67 62 65 69 67 68 73 74 71 71 70 69 69 70 69 67 64 65 68 67 67 63 61 58 52 43 42 42 43 45 47 48 49 50 52 53 53 54 56 58 59 60 62
68 65 62 62 64 66 68 68 70 69 66 64 63 64 65 61 65 69 69 69 65 58 55 55 46 45 43 43 44 44 45 46 46 48 51 52 55 56 58 60 61 62 64
69 65 62 61 59 59 59 59 60 65 65 63 63 62 63 66 69 71 68 65 57 54 50 48 46 43 41 43 44 45 47 48 50 52 54 55 57 59 61 63 66 68 70
73 68 63 62 62 60 57 53 52 54 58 64 68 69 70 69 70 68 58 54 51 51 44 43 41 40 44 46 48 47 50 53 53 55 58 61 62 65 68 70 71 73 76
75 70 64 61 61 56 52 52 53 56 59 59 59 62 63 65 59 57 53 50 49 45 42 42 42 44 47 49 51 51 53 56 60 64 67 70 71 74 78 80 82 84 85
72 70 66 63 60 53 50 48 47 47 49 51 52 52 52 52 51 51 50 47 44 41 43 45 46 49 51 53 55 57 59 61 63 67 72 76 78 82 85 88 90 91 93
70 70 68 64 61 51 49 47 45 46 48 46 45 48 48 47 47 47 44 41 41 43 44 48 49 52 53 55 57 57 60 64 69 79 84 86 86 90 95 98 99 100 100
71 68 67 64 60 53 49 46 45 47 47 45 45 44 44 42 41 41 40 41 43 46 49 52 53 56 58 61 63 65 67 69 72 76 88 96 99 103 106 109 105 102 98
67 69 65 63 61 54 50 48 45 45 45 44 43 42 40 40 41 41 41 44 47 50 53 55 58 61 63 66 69 72 75 77 81 80 82 92 101 107 109 102 96 94 95
64 65 66 65 62 55 50 47 45 44 44 42 41 40 40 42 43 43 45 47 51 54 58 60 63 67 69 72 75 77 81 85 92 94 94 97 99 104 99 97 98 99 99

GFSSE_250_spd_009.txt.gz
Wind_Speed
49 47 47 47 46 42 40 34 34 33 33 29 31 32 32 31 31 33 34 35 37 38 41 42 42 43 42 44 46 48 50 52 53 57 61 63 62 63 65 63 62 62 62
55 52 50 50 50 49 46 42 40 41 43 43 37 37 36 36 36 35 37 38 35 38 39 41 43 45 47 48 50 51 53 57 58 60 66 61 61 62 62 64 64 65 64
58 59 54 53 53 54 51 49 48 47 48 46 43 39 39 39 40 42 37 36 38 42 43 45 48 51 50 52 53 55 57 57 62 67 67 63 63 63 64 64 63 66 65
63 61 61 57 56 56 56 53 52 52 50 49 46 43 44 42 41 45 41 39 43 45 49 50 49 51 50 53 55 58 62 66 70 72 67 66 66 66 65 63 63 63 66
67 65 63 61 60 59 59 58 56 54 54 52 49 46 46 45 45 47 46 46 48 50 53 51 50 50 52 57 60 62 67 72 71 64 66 67 70 66 61 59 60 61 62
71 68 67 65 64 63 61 60 59 58 56 54 52 49 48 45 47 48 50 47 52 54 57 52 51 52 55 56 61 64 68 68 68 64 68 68 64 58 54 55 54 53 54
73 73 72 70 67 66 64 63 61 61 60 58 58 55 52 50 48 50 53 51 54 56 57 55 49 55 55 59 66 66 66 68 64 67 68 64 57 53 50 46 47 47 48
75 75 77 74 71 69 68 66 65 64 63 63 61 60 56 54 53 53 54 56 58 60 61 58 53 53 59 67 71 69 66 71 68 67 62 53 49 44 43 40 41 43 43
80 71 65 79 74 74 72 70 68 66 65 66 64 64 62 58 57 57 58 61 58 54 47 53 55 59 65 69 68 70 69 70 68 63 50 44 42 40 42 43 44 44 45
78 78 75 66 67 80 74 73 72 70 70 69 69 67 66 66 63 63 60 54 51 54 54 61 65 66 68 70 70 66 65 68 64 55 45 43 42 43 43 40 41 42 43
75 79 80 76 75 65 70 75 73 72 71 71 72 71 69 71 68 67 65 62 61 62 65 66 65 67 69 71 70 69 69 65 57 48 44 42 41 40 42 41 41 40 41
70 75 82 81 81 77 74 68 69 70 68 68 67 67 69 67 62 60 61 65 66 66 64 66 67 71 69 68 66 66 66 64 50 42 39 38 38 38 40 41 41 41 40
66 71 71 75 79 79 78 76 73 70 69 71 70 69 66 63 63 64 62 61 62 64 65 67 69 69 64 67 65 63 64 57 44 39 39 38 37 37 38 38 38 39 39
66 67 70 73 76 78 76 78 79 78 76 77 74 72 71 70 69 67 67 67 68 67 67 68 67 66 65 67 64 61 62 47 43 41 40 40 39 39 40 41 42 43 45
70 66 65 68 73 70 68 72 75 78 79 77 75 74 72 70 67 67 67 68 68 69 69 68 65 66 66 65 60 59 51 41 39 38 40 40 41 41 41 42 44 44 46
73 70 65 64 65 69 70 72 71 72 72 73 74 73 73 71 71 68 67 68 70 69 67 67 66 67 69 60 57 52 44 41 40 40 40 41 41 42 43 44 45 47 48
76 73 69 64 64 62 63 67 70 71 73 75 76 75 70 66 63 65 65 66 67 65 64 64 66 67 65 58 54 49 43 42 40 42 42 43 44 45 46 47 48 49 51
77 76 71 67 64 63 63 61 60 62 66 69 71 71 72 68 68 64 63 62 62 62 64 67 67 64 58 55 51 46 41 40 42 46 46 46 48 49 51 52 54 56 59
74 75 72 69 67 64 63 60 56 53 55 59 60 61 66 65 65 62 64 61 62 64 68 67 66 59 55 53 48 44 44 44 48 49 50 51 52 54 56 57 60 63 66
73 74 71 70 69 67 64 60 58 54 54 53 53 52 50 53 57 60 64 66 67 69 67 64 58 54 51 47 46 46 47 48 53 55 56 57 57 59 61 62 65 69 72
69 72 70 70 68 67 66 61 55 51 53 52 51 53 52 53 54 56 58 59 62 60 58 56 52 51 49 47 49 48 51 53 57 59 60 62 64 67 69 72 75 78 82
68 68 69 69 68 67 65 62 58 52 52 49 48 47 46 47 51 54 55 55 54 53 54 52 50 48 47 48 51 53 56 56 60 64 67 69 71 75 78 80 84 87 90
68 68 67 67 68 66 61 58 60 57 53 49 47 46 46 48 49 50 50 50 50 52 50 49 48 47 49 52 55 57 59 63 65 71 74 75 78 83 85 87 91 94 97
69 68 66 63 65 64 62 58 62 58 54 49 46 47 47 48 50 49 47 50 49 48 48 47 47 49 53 55 59 61 65 67 69 71 80 85 87 90 94 97 100 104 108
66 67 66 62 62 62 67 63 62 59 54 50 48 47 48 47 47 46 46 47 47 48 47 49 50 53 55 60 63 68 71 73 74 74 77 86 90 95 99 103 107 112 115
60 62 64 63 60 63 64 66 63 59 53 49 49 48 47 47 46 45 46 46 48 50 51 53 55 57 60 65 68 73 76 79 82 82 82 84 88 94 103 108 115 119 122

GFSSE_250_spd_012.txt.gz
Wind_Speed
46 44 43 41 41 42 43 43 37 36 36 35 35 34 31 29 31 30 31 32 30 32 34 37 36 36 37 40 42 45 47 46 50 52 52 54 57 61 65 67 62 58 60
53 50 49 48 46 45 47 46 46 45 43 40 40 39 39 38 39 38 36 37 36 38 36 37 37 39 42 44 48 49 47 50 53 54 58 61 65 69 66 60 61 61 62
57 57 55 54 53 51 49 50 50 52 48 46 46 46 45 45 44 41 39 39 39 41 39 39 40 43 45 48 48 50 52 54 57 57 60 64 67 65 61 61 64 64 64
63 63 61 58 58 57 55 54 53 54 54 49 49 50 51 49 46 43 42 44 43 45 44 45 45 47 48 52 52 52 57 57 57 58 67 70 64 62 63 67 68 63 60
66 67 67 65 63 61 60 59 58 57 57 56 52 53 52 53 51 47 44 44 46 47 50 48 50 50 53 54 56 57 57 52 58 63 66 67 69 67 70 70 65 60 54
70 70 71 70 68 66 65 63 63 61 61 60 58 56 55 53 52 51 49 47 47 48 49 53 54 53 55 56 59 54 51 57 62 66 69 71 67 69 70 66 55 52 47
75 75 73 73 72 72 70 68 67 66 65 64 62 60 57 56 56 55 54 54 53 53 53 55 55 57 61 56 47 51 60 62 65 69 69 68 69 66 65 55 46 43 40
79 78 76 78 75 75 75 72 71 69 68 66 64 64 61 59 59 59 59 58 58 58 58 59 58 59 54 49 52 59 63 66 69 71 70 67 68 63 56 46 42 40 41
78 81 80 81 79 78 76 77 77 74 71 70 68 66 65 64 64 64 64 63 62 62 62 64 59 57 55 60 61 62 65 67 69 67 63 65 62 60 48 44 44 44 45
75 77 81 81 82 82 82 73 64 79 76 73 70 69 69 67 66 65 64 67 66 66 68 68 66 68 64 66 68 64 66 67 64 64 64 66 63 56 42 40 39 40 40
68 68 71 75 82 82 84 81 71 63 80 75 75 73 72 70 69 69 70 68 67 67 67 64 61 64 63 61 61 64 67 65 63 68 65 63 58 46 39 38 35 33 33
68 65 64 67 73 77 82 83 82 69 61 64 69 78 76 72 71 71 65 63 64 66 65 62 62 64 62 66 67 69 67 64 64 67 63 62 53 44 44 42 38 36 34
70 67 65 63 66 71 74 79 83 82 77 72 69 67 65 65 66 65 65 64 65 66 67 69 67 66 66 67 69 67 66 64 63 63 59 54 47 46 46 43 42 39 39
71 71 68 64 62 62 65 71 76 83 81 81 79 76 73 70 69 69 71 73 73 71 70 68 66 65 66 67 67 68 65 64 64 60 56 53 47 43 40 40 39 38 37
72 72 71 67 64 61 62 64 70 76 83 84 83 81 80 80 81 79 78 76 76 75 73 70 70 69 66 67 68 67 64 64 63 57 53 49 45 40 38 38 39 39 40
68 71 72 70 67 64 62 63 63 69 74 75 80 81 79 79 79 78 77 75 73 73 73 71 71 69 66 64 64 64 66 66 61 55 52 47 43 39 41 42 41 42 42
62 65 69 72 70 69 65 63 63 63 65 70 70 68 70 71 71 72 72 73 71 71 71 72 69 67 64 62 63 64 68 67 60 54 50 44 44 44 45 46 47 48 49
59 63 64 69 71 70 68 67 65 62 60 61 64 66 64 67 68 70 70 68 69 70 71 70 68 66 63 63 66 66 67 63 58 53 48 48 48 49 50 53 53 54 55
60 61 61 65 68 69 70 69 66 65 61 59 57 56 53 51 54 54 54 56 58 61 63 64 65 66 66 67 66 66 61 58 55 50 51 52 52 53 55 58 59 59 60
61 62 63 62 64 66 68 69 66 65 61 60 57 56 55 52 49 51 52 52 52 53 58 61 64 65 66 65 64 61 58 56 53 52 54 55 55 58 59 60 63 66 68
58 62 64 61 62 61 66 67 67 63 60 60 60 58 54 52 51 50 50 52 53 54 57 59 61 61 61 61 59 58 56 54 53 55 56 60 61 62 64 66 68 70 72
60 61 62 62 59 60 61 64 64 60 58 59 60 60 55 52 50 49 52 52 50 51 53 55 55 57 58 59 59 56 55 54 55 58 61 63 66 68 70 72 74 75 77
58 61 61 62 60 58 60 59 63 63 61 62 60 58 58 55 52 52 53 52 52 53 52 54 55 58 58 58 57 56 55 55 58 62 65 68 69 73 76 78 80 82 84
58 60 60 60 62 61 59 60 60 65 64 63 61 59 58 56 55 54 53 53 53 53 54 55 56 56 54 54 55 56 56 59 62 66 72 74 77 80 83 84 87 90 92
57 59 58 56 59 63 62 60 56 61 65 64 61 60 59 58 57 57 56 55 54 53 52 54 52 52 52 53 56 58 61 64 66 69 74 81 82 86 89 93 98 101 102
56 57 58 56 56 61 67 64 59 61 63 64 63 61 60 59 58 58 56 57 56 53 53 52 52 55 57 58 60 63 66 69 72 73 76 81 84 92 95 100 103 107 109

GFSSE_250_spd_015.txt.gz
Wind_Speed
44 42 43 42 41 39 38 39 41 38 37 38 38 38 36 34 34 34 32 31 32 33 33 33 34 35 36 37 36 38 42 41 44 46 46 50 54 56 57 59 64 64 61
50 48 47 48 48 47 44 43 42 43 44 43 40 41 40 41 40 39 39 38 40 40 39 39 38 39 37 38 41 42 44 45 47 49 52 56 58 58 59 62 64 68 67
53 53 53 52 54 52 51 49 48 46 46 47 47 48 46 46 48 45 46 47 45 44 44 42 41 44 44 42 44 47 48 49 50 52 55 56 54 55 61 64 68 68 65
59 58 58 57 58 58 56 55 54 54 52 52 51 52 52 50 49 50 50 50 49 48 47 45 45 46 48 47 47 51 53 54 56 58 57 50 56 60 65 70 70 69 72
64 63 61 62 62 63 63 62 60 59 58 56 56 56 57 56 52 52 53 52 50 50 48 46 47 47 49 50 52 53 55 56 59 61 48 57 61 64 69 70 68 65 65
68 69 68 67 66 65 66 66 65 66 63 61 61 61 59 60 58 56 55 54 53 52 51 52 51 51 53 54 56 58 56 61 59 48 54 59 63 67 64 65 65 64 63
70 71 72 71 70 70 71 70 70 69 69 67 64 64 64 63 63 61 60 58 57 57 56 57 58 56 56 58 59 60 60 56 55 58 61 66 66 65 63 65 65 65 60
75 75 76 74 74 73 75 75 74 73 73 72 70 68 68 68 67 65 64 63 62 61 61 59 61 62 62 63 63 63 64 61 63 66 65 64 63 66 65 64 65 67 56
78 80 79 79 78 77 78 78 78 77 77 78 75 73 72 71 69 68 67 66 66 65 66 66 66 63 66 65 66 64 60 63 64 61 59 66 67 66 64 64 66 63 48
80 81 82 80 80 80 81 80 82 79 79 80 77 72 74 77 74 70 70 70 69 69 69 69 68 70 68 65 67 65 63 61 60 62 66 69 68 64 65 63 61 56 43
79 79 80 79 80 80 82 83 84 84 85 84 83 76 73 69 79 78 75 74 74 73 72 71 71 70 66 67 66 64 64 66 65 66 66 68 65 65 62 60 57 48 45
75 75 75 73 74 74 74 76 80 84 87 83 87 82 76 69 67 69 80 81 76 73 75 70 69 65 63 64 64 66 67 65 64 63 64 66 65 62 60 57 53 47 47
68 69 70 70 70 70 68 68 70 72 76 83 85 84 87 83 70 67 69 69 70 73 69 68 67 64 69 71 72 71 68 67 65 66 67 64 61 61 58 56 50 46 46
65 67 68 67 68 67 67 67 66 67 69 71 75 79 82 83 85 75 71 67 65 66 67 67 69 72 76 77 75 74 74 71 68 66 66 62 61 59 58 56 50 47 45
67 66 67 67 68 68 69 69 67 66 66 67 68 72 76 79 82 87 84 82 80 80 81 82 82 81 82 82 79 73 72 73 68 68 63 62 62 62 61 54 50 47 43
65 66 66 67 67 67 68 70 70 68 66 64 64 66 68 71 74 81 87 85 84 85 83 80 80 78 74 75 76 75 73 70 67 65 63 64 66 64 61 53 50 47 46
62 65 65 66 67 66 66 67 69 68 67 65 64 64 64 64 68 73 75 75 78 79 81 78 76 76 74 73 72 70 69 67 64 64 67 68 66 64 56 52 52 51 50
63 63 64 64 64 64 65 66 66 67 67 67 67 65 62 60 61 64 66 69 74 74 74 72 74 73 70 68 69 70 67 64 64 66 67 64 66 61 55 53 54 54 54
61 63 64 64 64 63 63 62 63 63 65 66 68 67 65 62 60 60 60 58 57 56 55 56 55 55 56 59 62 62 62 63 64 66 65 63 61 56 56 56 57 57 58
56 59 62 64 64 63 62 59 60 60 64 67 69 68 68 65 64 61 58 56 56 56 55 54 55 56 57 60 59 59 60 61 63 63 62 60 57 57 57 59 61 61 62
55 56 57 61 64 61 59 61 58 58 60 62 65 68 70 68 67 63 59 58 56 55 56 55 53 54 54 54 54 55 56 58 60 59 58 57 58 58 60 63 63 65 67
62 57 56 57 61 61 58 57 58 57 59 59 63 66 70 69 66 64 63 60 58 57 55 54 54 54 54 54 54 55 57 59 59 58 57 56 59 62 63 65 67 69 71
64 60 55 56 57 60 60 56 56 58 58 58 61 65 67 67 67 66 64 60 60 59 57 56 55 55 56 56 57 57 57 56 54 54 55 57 60 64 66 68 71 74 75
67 66 62 57 57 57 56 57 57 57 57 59 60 65 66 66 66 66 65 63 61 61 59 59 57 56 57 57 59 58 56 54 53 56 58 61 64 67 68 72 76 79 81
69 68 67 61 58 58 56 54 55 56 57 60 61 63 66 68 67 67 66 65 63 62 62 61 60 60 59 59 59 60 60 58 58 59 62 66 67 71 74 77 82 87 91
73 69 70 68 64 61 57 53 53 55 55 59 63 65 65 67 68 69 67 66 64 64 64 62 60 60 61 62 62 63 62 62 63 64 66 70 72 77 79 83 88 91 96

GFSSE_250_spd_018.txt.gz
Wind_Speed
41 40 39 40 38 37 34 36 38 38 38 38 36 35 35 36 37 38 36 35 35 35 36 34 35 35 36 38 39 40 39 38 40 42 43 46 47 48 49 53 52 51 52
46 45 45 43 43 43 43 40 38 42 40 41 45 41 42 41 42 40 42 43 44 44 42 40 41 42 42 43 43 43 43 44 46 47 48 50 49 51 54 55 54 54 59
51 49 50 49 47 47 47 46 46 46 46 45 45 44 46 46 45 46 46 46 47 47 48 49 50 48 47 46 45 46 46 47 47 47 51 53 54 54 57 54 52 57 63
52 51 51 53 51 50 51 51 50 51 52 52 51 50 50 49 49 50 52 51 49 50 50 50 51 52 52 50 48 48 48 49 49 52 53 53 55 58 51 52 58 63 64
55 55 54 56 56 56 57 57 57 57 57 58 57 56 55 54 54 53 54 56 57 53 54 54 52 52 51 49 50 50 51 52 53 56 56 55 56 53 52 62 64 63 64
59 59 60 60 61 62 63 62 63 63 62 62 62 62 60 59 58 60 58 58 60 60 58 58 57 55 54 54 55 55 54 55 56 58 61 60 60 58 60 62 63 60 68
65 65 62 63 64 65 67 67 67 68 68 68 66 67 66 65 64 63 63 62 63 63 63 62 61 60 59 59 59 59 59 59 60 61 62 62 58 58 60 56 61 67 66
70 70 68 67 69 69 70 71 72 71 72 72 72 72 71 70 70 69 69 66 66 67 66 66 66 65 64 63 64 64 62 62 65 62 60 61 60 60 61 64 64 62 62
70 72 71 71 73 74 75 76 77 76 76 76 75 75 76 75 74 74 74 72 70 71 71 71 71 70 69 68 68 68 66 67 65 63 67 64 63 62 64 62 62 60 61
76 75 77 77 77 78 79 81 81 82 82 80 78 77 79 79 77 77 78 77 74 74 74 74 74 74 73 72 70 72 70 69 65 67 58 58 62 61 60 60 61 63 59
80 80 84 83 83 81 81 83 84 84 86 85 84 82 81 81 82 81 76 75 73 74 76 78 77 77 77 77 76 75 71 67 64 62 63 65 64 63 64 64 63 61 58
81 81 81 82 81 81 82 80 84 85 85 85 87 86 86 85 84 86 85 83 76 70 66 63 68 75 78 83 75 77 69 64 62 68 70 71 73 70 65 66 65 61 56
77 77 79 77 76 76 74 75 74 75 77 80 82 83 84 84 86 86 88 86 85 86 80 74 73 68 74 74 69 67 66 63 66 75 77 76 75 72 66 66 65 58 56
75 74 72 68 64 63 60 64 64 68 69 72 74 74 76 76 75 78 78 82 86 85 85 84 81 70 70 67 68 69 76 77 75 79 81 77 73 69 69 65 62 60 59
68 70 67 63 62 60 59 62 63 66 67 66 69 70 70 70 69 70 70 71 73 77 80 82 81 87 86 84 80 80 81 81 82 80 76 73 73 69 64 63 62 62 64
63 65 63 62 60 59 62 63 63 63 64 66 69 68 70 70 70 68 67 65 66 69 71 75 77 80 84 84 85 88 88 84 81 76 74 70 67 67 66 64 63 64 61
62 60 61 62 63 62 60 61 62 62 62 66 68 70 71 73 73 70 65 65 65 65 66 68 70 70 71 72 73 75 75 76 75 73 69 67 64 63 62 63 64 62 58
57 58 57 58 61 63 62 60 60 60 59 62 64 66 70 73 75 73 68 65 65 64 63 62 62 62 62 63 65 67 67 61 58 56 56 60 60 60 61 61 61 59 56
52 52 52 54 56 57 61 60 60 59 59 61 61 64 68 70 74 73 71 68 67 65 62 61 60 59 58 56 56 55 55 56 57 59 59 57 58 57 59 59 60 58 56
54 52 52 51 52 52 55 55 58 59 57 59 57 61 64 67 69 72 72 71 70 68 66 63 61 59 57 57 57 57 55 55 56 56 57 57 57 55 56 57 57 57 57
59 59 56 54 53 50 50 54 55 56 58 57 58 60 62 66 69 69 71 71 70 70 69 65 64 63 59 57 55 56 56 56 57 56 56 56 56 57 55 57 56 56 57
66 64 61 59 54 58 50 50 53 53 55 59 60 59 61 63 66 68 69 69 71 71 70 68 66 64 63 60 58 55 54 58 57 57 57 57 55 56 56 55 55 56 59
70 70 67 64 61 59 56 50 49 52 55 58 60 60 59 60 64 67 67 67 68 68 69 68 66 67 66 63 62 60 58 57 59 62 60 58 57 58 57 57 60 62 63
73 73 71 67 65 62 58 55 57 50 52 55 58 59 59 60 61 65 67 65 66 68 69 69 68 68 68 66 65 62 62 62 62 65 63 62 61 62 61 63 66 68 69
77 76 75 71 70 67 62 59 60 56 55 54 57 55 55 59 60 63 65 66 66 67 69 70 70 69 69 67 66 65 66 65 65 64 66 66 66 67 68 70 72 75 77
85 80 77 74 76 73 69 63 61 61 56 58 57 51 53 58 59 60 63 64 66 67 70 71 72 73 72 71 70 68 68 68 68 67 67 69 69 74 73 74 76 78 79

GFSSE_250_spd_021.txt.gz
Wind_Speed
38 35 34 34 33 32 34 34 34 34 37 37 36 36 35 36 36 36 37 36 37 38 39 38 38 38 40 41 40 41 41 43 43 45 44 44 47 47 48 48 46 48 50
42 40 40 39 38 36 35 38 39 38 37 36 37 36 38 38 36 39 41 41 43 44 45 45 46 47 48 46 46 46 48 49 47 49 48 48 49 49 50 50 50 50 51
47 46 44 44 45 45 42 42 43 43 42 41 40 41 42 42 44 43 43 42 44 47 48 50 50 51 51 50 51 52 51 50 51 49 49 48 50 49 51 52 53 54 55
50 51 51 50 50 50 48 45 46 46 47 46 47 47 47 48 47 47 48 49 50 50 52 52 54 53 53 52 53 52 52 51 50 50 51 50 52 53 55 55 54 55 57
54 53 54 54 52 48 50 49 49 50 51 52 53 54 53 53 53 54 54 53 55 54 54 55 56 58 56 55 56 56 55 53 52 53 55 57 56 55 57 60 59 57 56
55 54 53 54 54 54 53 53 54 55 55 57 59 60 58 58 59 59 58 59 59 59 58 59 59 60 61 59 59 59 58 57 57 57 57 58 60 58 61 59 54 59 58
59 58 57 58 58 57 57 58 58 59 60 61 61 63 64 66 65 65 66 65 63 65 63 63 62 63 64 64 65 65 63 63 61 62 61 62 61 63 64 59 62 58 58
62 61 63 62 61 63 65 65 65 65 65 66 66 68 69 69 71 71 70 70 70 69 68 68 68 67 67 68 69 69 69 69 67 68 66 63 66 68 64 64 59 56 59
66 65 64 66 68 67 67 67 69 69 70 70 71 73 74 75 75 75 75 75 75 74 73 74 74 73 72 71 72 73 73 74 74 73 71 70 71 68 66 63 57 59 63
69 67 68 68 68 67 68 69 71 74 75 74 75 76 78 79 81 81 80 79 79 78 78 77 76 75 76 75 75 74 74 76 79 76 75 76 74 70 66 64 66 67 69
72 72 70 70 70 72 73 73 74 77 80 81 80 81 83 84 84 84 84 83 83 82 82 82 81 81 79 76 76 73 76 75 78 78 77 80 72 69 66 65 68 71 75
74 74 74 75 77 78 78 78 79 80 80 80 82 83 82 84 85 87 89 88 87 86 86 87 85 85 85 81 73 68 64 63 69 74 70 73 71 66 68 70 74 76 71
74 75 77 79 80 80 81 79 78 82 80 82 82 81 83 82 82 83 82 83 84 87 89 90 89 88 89 86 85 86 87 82 80 75 69 63 65 69 76 80 81 81 74
76 76 75 77 81 84 86 84 80 78 78 78 72 73 72 73 74 76 79 78 77 76 76 78 78 80 83 83 86 88 87 84 84 81 78 82 79 85 86 84 83 80 72
76 77 79 76 75 75 77 76 75 72 69 65 64 65 64 65 67 70 70 72 71 69 70 70 71 70 72 72 75 77 80 78 80 82 84 86 85 81 81 79 76 71 69
70 70 73 73 73 71 71 70 68 66 64 63 63 63 62 64 66 68 70 71 68 68 68 68 69 67 67 65 65 66 67 68 71 72 72 72 74 74 76 76 70 70 63
68 63 63 65 64 63 64 64 62 59 62 64 63 63 63 65 66 65 69 71 70 70 72 72 71 68 66 65 63 62 61 61 61 63 65 66 65 63 59 56 58 57 58
64 61 57 58 61 58 59 59 58 57 58 60 61 63 64 64 64 63 66 68 69 69 73 74 74 71 70 67 63 62 62 60 59 58 58 58 56 58 58 60 61 59 57
62 58 53 52 53 52 51 52 54 53 54 57 59 61 64 66 64 63 63 65 65 67 70 75 75 74 74 70 67 63 62 60 59 59 60 60 58 57 58 59 58 58 57
64 61 56 52 52 53 49 47 44 45 47 48 54 56 61 63 64 65 64 63 61 64 68 69 73 76 76 74 71 69 66 64 61 61 59 59 58 60 60 60 59 58 59
68 68 63 59 55 55 55 52 48 47 48 49 51 52 54 55 60 62 64 65 63 63 64 68 70 73 74 75 75 73 71 68 66 65 62 60 59 60 59 60 61 59 58
70 70 68 66 64 62 61 60 54 52 50 49 49 45 47 50 55 60 64 65 65 64 63 64 67 71 72 73 74 74 73 71 68 69 68 65 63 63 63 63 62 62 60
77 78 78 74 70 67 67 63 59 57 56 55 53 53 50 51 52 56 60 63 64 63 64 64 65 66 69 71 73 74 74 72 71 71 71 69 68 67 68 68 66 65 65
81 84 84 82 74 70 68 69 65 64 61 59 58 55 55 52 50 53 57 60 64 64 62 62 64 66 67 69 71 72 72 72 72 71 73 73 72 71 70 71 69 69 68
87 86 88 87 82 75 69 67 69 67 62 61 60 56 58 57 54 54 57 58 60 62 61 61 63 65 67 68 70 71 74 75 75 74 76 75 75 75 75 75 74 74 72
91 89 88 89 86 80 76 72 70 73 68 64 64 62 63 63 60 58 56 57 58 58 58 60 62 65 66 68 70 72 75 76 76 77 78 79 78 81 81 79 79 79 78

GFSSE_250_spd_024.txt.gz
Wind_Speed
37 38 39 37 35 34 30 30 34 35 38 38 38 37 36 36 33 34 36 36 36 37 38 37 38 39 40 41 42 43 43 45 46 46 47 48 49 47 48 50 50 50 51
42 40 40 39 38 38 36 36 34 36 38 38 37 36 37 38 39 37 35 37 38 39 41 43 43 45 45 47 48 48 49 51 51 51 53 53 52 53 52 51 51 50 52
48 46 46 46 43 41 41 40 40 40 40 41 42 42 41 40 41 41 42 43 43 42 43 44 45 47 48 50 50 51 51 52 53 53 53 52 51 51 51 51 52 52 54
52 52 49 48 47 46 45 45 46 47 45 44 45 46 45 44 45 46 47 48 49 49 50 51 51 51 51 52 53 55 54 56 56 55 55 56 55 54 54 54 54 56 56
51 54 53 52 52 51 51 51 52 51 48 48 47 46 48 50 50 51 52 53 54 55 55 55 56 57 56 57 58 57 58 60 61 59 57 56 56 56 57 57 57 55 56
55 55 55 55 56 55 54 53 52 52 52 52 50 52 51 52 53 54 56 57 59 61 61 62 62 61 62 62 62 61 61 59 64 61 62 62 62 61 60 60 60 58 62
58 59 59 59 59 58 56 55 57 57 55 55 56 57 58 59 59 60 62 63 64 64 66 67 68 67 67 67 67 66 65 66 66 65 66 67 68 69 67 68 66 69 68
62 62 62 63 62 61 60 59 60 60 59 59 61 63 62 63 63 64 65 68 70 71 73 73 72 73 74 73 72 71 72 72 71 71 70 71 72 72 73 73 72 74 73
62 63 62 62 62 61 61 61 63 63 62 65 65 64 64 66 68 70 71 72 73 75 76 77 79 79 78 76 75 74 75 76 75 73 73 72 74 75 74 75 74 75 76
62 60 61 62 64 65 66 66 67 67 68 69 67 67 68 69 71 73 76 78 79 79 81 81 82 82 82 81 81 78 78 78 79 80 79 75 76 77 74 73 68 70 73
65 62 59 63 65 68 68 69 70 70 70 71 71 71 72 74 76 77 78 80 81 83 83 85 86 86 85 85 82 84 85 86 85 85 83 78 72 70 67 67 71 73 73
68 65 64 70 71 72 73 73 73 74 73 75 76 78 79 80 79 79 81 82 84 85 84 84 84 85 86 86 88 88 85 87 85 85 85 84 80 79 84 85 85 78 76
69 70 70 70 72 73 74 75 74 75 76 79 82 82 84 81 81 87 86 83 84 85 83 81 82 81 82 81 80 81 82 84 84 84 85 84 87 88 88 89 84 83 82
71 72 73 74 76 77 76 78 78 79 80 82 82 84 85 84 85 85 84 80 79 77 76 75 75 75 76 77 76 76 75 75 73 73 74 75 75 77 80 80 82 81 78
72 73 73 74 76 76 78 81 82 83 84 84 83 83 82 81 82 81 79 74 73 71 70 70 71 72 72 72 71 70 70 69 68 67 66 65 65 66 67 69 70 69 70
71 70 70 71 73 74 77 79 80 81 79 79 80 79 77 75 75 71 70 70 70 69 67 68 69 70 71 71 72 70 71 70 69 68 65 63 61 61 62 63 64 64 63
73 71 67 67 68 69 70 73 73 74 71 73 72 71 69 68 69 67 67 68 68 67 67 68 68 69 70 71 73 73 73 73 72 71 68 65 63 62 62 62 60 59 57
71 69 65 62 61 62 63 63 65 64 64 64 64 64 65 64 64 66 67 67 66 67 68 68 68 67 69 71 71 72 72 75 75 74 71 68 66 64 63 63 62 62 60
69 67 65 62 62 65 63 61 59 57 56 54 55 57 59 59 59 62 64 65 66 66 67 68 69 69 67 68 70 72 71 73 75 75 74 72 71 69 67 66 64 62 61
72 72 67 61 64 65 63 61 59 56 54 52 52 51 55 53 53 54 57 59 62 63 65 65 67 69 68 68 68 69 71 71 72 74 76 75 74 73 72 70 68 66 63
75 73 70 64 62 65 63 63 61 60 58 57 55 53 54 55 54 56 57 54 55 57 59 64 66 67 68 70 69 68 70 71 72 73 75 74 74 75 75 74 73 71 69
79 80 78 73 66 63 66 65 64 59 60 63 64 64 59 55 53 55 52 54 55 54 57 60 63 66 67 66 68 70 70 69 71 73 74 75 75 76 77 78 77 75 74
81 80 82 81 75 67 66 69 67 64 63 63 64 66 63 60 58 62 59 55 56 57 60 61 61 61 61 64 66 68 69 70 71 71 72 73 75 76 78 79 79 77 76
86 88 87 88 82 75 72 70 74 73 72 73 72 72 65 65 62 60 62 58 58 60 60 62 62 61 59 59 62 65 67 68 69 71 72 74 75 76 78 79 80 81 81
94 92 91 91 90 86 80 77 77 79 78 77 72 70 68 67 66 68 68 64 64 65 64 65 61 60 58 55 58 63 66 68 70 70 72 74 77 78 79 82 82 84 85
100 100 98 96 95 94 89 84 80 78 78 80 77 72 69 65 66 67 68 69 67 66 64 64 62 60 57 57 56 58 61 66 69 71 73 75 78 81 83 84 85 85 87

GFSSE_250_spd_027.txt.gz
Wind_Speed
34 34 34 34 35 32 29 31 32 32 33 36 38 36 35 37 38 36 35 34 34 35 35 35 36 37 39 40 41 42 43 45 45 46 47 49 51 52 53 54 55 54 54
42 41 38 38 37 37 38 37 37 35 34 34 37 38 39 40 40 39 39 39 36 34 36 38 39 40 42 44 43 44 46 48 49 50 52 53 54 54 55 55 53 53 53
45 46 45 44 42 42 41 41 40 42 41 40 39 38 40 43 45 43 42 41 42 43 44 43 44 45 46 47 49 50 50 51 53 53 54 54 55 55 56 56 55 55 54
48 49 48 47 47 46 46 46 46 46 45 44 44 46 45 45 45 46 46 45 45 47 48 50 51 51 52 52 53 54 55 56 57 56 58 58 58 60 60 57 57 55 55
51 51 52 51 50 50 51 50 50 50 49 49 51 52 50 48 48 47 47 50 50 51 52 54 54 56 57 59 59 60 61 61 61 61 61 62 62 60 61 60 60 59 60
53 55 55 54 53 53 53 54 55 55 54 55 54 54 53 52 52 51 51 52 54 55 56 57 59 61 61 63 64 66 67 67 67 67 67 67 66 63 64 64 67 68 68
58 58 57 56 55 54 55 55 55 56 56 56 56 55 56 56 56 55 56 58 58 59 60 61 62 64 65 67 68 70 71 73 72 71 71 72 72 70 68 67 67 68 70
61 58 58 59 58 56 56 59 60 61 60 59 59 57 57 59 61 60 62 63 61 62 63 65 67 69 70 72 74 75 76 76 75 75 75 76 74 74 73 74 71 73 73
64 63 62 60 59 59 59 61 63 63 61 61 59 59 60 62 63 65 66 66 66 66 67 68 70 73 75 76 77 79 79 80 80 79 79 79 79 79 78 77 78 78 77
67 67 64 61 61 61 61 62 62 61 61 62 63 64 65 65 65 67 67 68 69 71 72 74 77 77 76 78 80 81 83 82 81 83 83 84 84 82 81 82 80 80 78
62 62 62 61 62 62 62 61 61 61 62 63 65 67 68 69 70 71 72 73 74 76 77 79 81 80 83 83 83 85 85 85 83 82 83 81 84 84 83 82 82 82 79
65 63 63 63 65 65 64 64 63 63 65 67 69 70 71 72 73 74 76 78 80 81 80 83 85 84 87 86 86 86 88 85 83 81 79 78 77 77 77 78 78 78 79
68 67 65 64 66 67 66 66 67 69 70 71 71 72 74 75 76 78 78 78 79 80 84 85 86 86 86 85 84 83 82 79 78 76 74 73 72 70 70 69 68 69 70
70 70 70 70 69 70 70 71 71 72 72 73 75 76 76 78 79 81 83 85 85 84 83 86 85 84 82 79 78 77 75 73 71 70 69 69 68 68 66 64 63 63 62
73 72 73 72 74 75 74 74 74 73 73 73 75 79 80 79 80 81 84 84 85 86 86 84 84 79 77 74 74 74 73 73 71 70 68 67 68 68 67 65 64 63 60
71 71 71 74 72 71 72 72 72 72 73 75 78 80 82 82 82 84 85 82 83 83 83 81 78 75 72 72 73 74 73 73 72 71 69 69 69 69 69 68 66 65 63
74 76 74 71 69 71 70 70 71 70 69 71 73 76 78 79 81 78 80 79 78 74 75 74 71 72 72 70 70 72 73 73 73 72 72 71 70 69 69 69 69 68 66
75 74 76 76 73 72 71 70 70 68 69 66 68 67 67 69 69 71 69 70 68 69 69 69 68 68 70 69 70 71 71 72 73 74 72 71 71 70 69 69 70 70 68
76 74 73 73 71 72 71 69 69 67 62 62 61 62 61 60 60 62 61 60 61 63 63 62 63 65 67 67 68 70 71 72 73 73 73 72 72 71 70 70 69 69 70
77 77 74 72 72 73 73 71 67 68 67 62 60 62 63 61 61 60 58 57 57 58 58 59 60 59 59 61 63 66 67 70 72 72 72 73 72 71 71 71 70 69 69
78 75 74 73 74 74 73 73 70 72 70 69 65 65 67 68 67 66 65 62 61 58 55 55 56 59 59 58 58 61 62 64 66 70 71 71 71 72 72 71 70 71 71
80 80 79 77 75 75 77 76 74 73 68 67 68 69 69 65 66 62 63 63 63 59 59 59 64 61 59 60 62 61 62 62 63 66 69 71 70 70 71 71 71 72 73
81 83 84 84 82 81 82 81 77 75 72 67 66 70 70 72 72 70 70 71 70 70 69 66 64 64 62 63 67 68 63 62 61 62 64 66 68 70 72 73 73 73 75
85 85 85 86 87 86 85 83 83 82 79 78 78 75 74 73 73 74 73 71 70 70 67 68 70 70 73 74 74 72 66 63 58 58 61 62 63 65 68 71 73 75 76
89 91 92 94 93 94 91 89 88 85 85 85 84 80 71 72 70 72 72 75 75 75 73 71 73 74 72 73 76 72 69 64 61 59 60 61 63 64 63 64 68 73 78
99 100 100 100 100 100 100 99 98 97 94 92 89 88 82 77 77 76 76 76 76 77 76 75 74 73 71 73 73 71 70 67 65 63 63 62 63 65 65 66 67 69 72

GFSSE_250_spd_030.txt.gz
Wind_Speed
34 33 34 34 34 32 32 33 33 34 33 33 34 35 35 36 36 35 36 38 39 40 40 38 38 37 36 37 38 39 40 41 42 44 45 46 48 49 51 53 54 54 54
39 38 37 37 37 35 36 36 34 32 33 35 36 33 32 33 35 37 39 41 39 40 38 39 41 40 41 41 40 43 45 47 46 47 48 49 52 53 54 54 53 55 55
41 42 41 41 40 37 38 38 38 39 39 38 39 39 39 39 38 38 40 42 43 44 44 45 43 45 45 48 48 48 49 49 51 53 53 54 54 55 55 57 57 58 58
45 44 43 45 46 46 44 44 44 45 45 43 43 43 44 43 43 45 46 46 46 45 44 44 46 49 49 50 50 52 52 52 55 56 58 59 60 60 61 61 61 61 61
49 47 46 46 47 47 47 48 49 49 49 48 47 48 49 49 49 51 51 50 48 48 49 50 49 51 51 55 55 55 55 57 58 59 61 62 63 63 63 65 65 65 66
52 51 51 50 50 51 51 50 50 51 50 51 52 53 54 54 55 55 56 54 53 54 54 55 55 56 57 57 58 58 60 60 61 65 66 66 68 67 69 69 69 68 68
56 55 55 54 52 53 53 53 53 52 52 52 53 52 54 55 56 56 56 57 58 57 58 59 59 61 60 61 61 62 63 64 68 70 70 70 72 71 72 73 73 73 73
61 60 58 58 58 57 56 56 56 57 57 56 55 56 58 58 59 58 58 57 57 57 59 61 62 63 62 64 65 67 69 71 73 72 72 75 75 76 77 77 77 77 76
66 64 64 62 62 62 60 58 58 59 58 58 58 58 60 61 60 60 59 59 61 62 62 63 64 65 67 68 70 72 73 73 74 75 77 78 78 79 80 80 78 78 77
64 64 65 66 65 64 63 63 64 62 61 60 61 62 62 62 61 61 61 63 63 63 65 65 67 68 71 73 74 74 74 75 76 76 79 78 80 81 81 79 77 77 76
61 62 63 64 67 67 68 67 63 62 62 61 62 64 62 62 63 62 63 64 65 66 68 68 69 72 73 74 75 75 77 77 80 79 81 82 81 80 79 73 72 72 70
64 62 63 63 63 64 63 61 61 61 62 63 63 64 64 64 65 67 68 69 69 70 71 71 74 75 76 77 78 79 80 81 80 82 83 81 79 76 72 70 66 66 65
63 64 65 65 66 66 65 65 63 62 64 64 65 65 67 69 71 71 72 72 74 74 75 76 76 77 79 81 82 82 85 85 83 81 81 77 75 72 69 66 66 65 63
68 67 67 67 66 67 67 66 65 66 67 68 69 71 71 73 74 74 74 77 78 78 77 79 82 80 83 83 83 81 84 81 79 77 75 72 71 70 67 66 66 65 65
74 73 72 69 69 68 67 67 67 68 69 69 72 72 73 73 74 75 76 76 76 76 79 81 82 83 81 82 83 82 77 76 76 73 72 71 70 70 69 69 68 67 67
73 73 73 74 73 71 69 67 66 67 67 69 70 70 71 73 72 74 76 76 78 79 79 78 81 80 77 76 71 72 72 71 71 72 71 70 69 70 68 67 67 68 67
77 76 75 72 66 66 67 67 67 69 69 69 71 72 72 74 75 74 73 74 74 75 75 72 71 68 65 63 64 65 65 66 66 66 67 67 67 69 69 68 67 67 66
77 77 77 73 70 70 69 70 71 68 70 72 72 73 74 75 75 71 69 67 66 65 66 63 62 62 63 60 59 60 60 61 61 61 61 63 64 66 67 67 67 67 65
78 78 77 77 77 77 76 76 74 71 68 68 70 72 73 70 68 65 65 64 63 63 64 63 60 60 63 63 61 59 56 55 56 57 58 58 60 61 62 62 65 66 66
81 80 80 81 81 80 79 77 75 72 69 70 67 66 64 66 65 69 70 70 65 65 67 67 63 59 58 58 55 57 59 60 58 58 59 61 63 64 63 62 63 64 66
81 82 82 82 82 80 79 78 76 74 74 72 71 68 68 70 72 72 72 72 70 63 63 67 66 63 63 65 64 65 64 61 63 65 68 69 66 63 62 61 61 62 63
78 80 81 81 80 79 78 79 78 76 74 75 75 74 75 72 71 71 68 67 64 65 69 68 69 72 70 67 65 64 65 66 66 67 68 67 66 63 61 60 60 61 62
76 78 78 79 80 80 81 82 82 82 82 81 80 81 80 77 68 70 70 70 69 70 72 72 73 73 70 68 70 68 70 70 71 70 69 70 66 65 64 62 61 61 62
78 80 81 83 85 86 86 86 85 86 87 88 90 90 86 83 80 72 73 74 76 74 73 73 75 76 73 73 74 74 72 73 73 71 70 68 67 68 67 65 64 62 60
83 86 88 88 89 92 92 91 91 91 91 90 90 90 89 84 84 81 77 71 73 75 78 75 75 76 77 77 76 76 74 73 71 71 69 68 69 69 70 69 67 65 63
85 87 88 90 92 94 95 96 96 96 95 94 95 95 95 93 86 83 82 83 82 82 79 78 82 80 80 80 79 76 75 73 73 71 69 68 69 69 69 73 72 68 66

GFSSE_250_spd_033.txt.gz
Wind_Speed
29 28 29 29 30 31 31 32 30 30 29 29 30 31 32 32 34 34 36 37 37 37 38 39 38 37 37 37 38 37 38 38 40 42 43 45 45 45 47 48 50 51 53
33 32 33 33 33 34 35 34 34 33 34 34 33 31 32 35 34 33 33 33 35 35 37 37 38 40 41 41 41 41 42 43 43 44 43 45 47 48 49 52 53 53 53
36 37 38 38 36 37 37 37 37 36 36 37 36 34 35 36 38 40 41 40 40 41 42 44 44 43 43 43 43 46 47 47 48 48 50 50 50 52 52 53 56 56 58
42 42 41 41 41 41 42 41 39 38 39 39 40 42 42 42 43 44 45 45 45 46 48 49 48 47 46 48 49 49 50 51 53 53 53 53 55 55 56 58 60 61 61
45 44 44 43 43 43 44 45 46 46 46 45 46 47 48 48 48 48 48 49 50 52 53 54 52 52 52 52 52 53 53 54 55 55 55 57 58 59 61 64 63 63 64
46 45 46 47 46 46 47 46 46 47 47 49 49 50 52 52 51 52 53 54 53 54 56 55 56 56 56 55 55 56 57 56 56 56 57 60 61 63 66 65 66 67 68
51 50 50 50 50 51 51 51 51 50 50 51 52 53 53 53 53 53 53 53 55 56 58 58 58 58 56 56 57 58 59 58 59 61 63 64 65 66 66 68 69 71 72
57 56 56 55 55 54 55 55 56 56 56 56 55 56 56 57 57 57 58 59 58 59 59 61 61 59 60 61 60 61 61 62 63 66 66 67 67 66 67 69 70 71 72
62 62 61 61 60 60 60 60 60 60 61 59 59 58 58 58 58 59 59 60 61 61 62 61 60 62 62 63 63 63 64 64 66 66 68 69 70 70 70 72 73 75 75
66 64 64 64 65 66 66 65 65 66 67 65 63 62 63 64 63 61 61 61 62 62 62 62 60 61 62 62 63 64 66 69 68 70 70 70 71 72 76 76 75 75 73
71 68 68 68 67 67 65 65 63 63 63 64 65 67 67 65 64 63 62 61 61 61 62 63 65 67 67 67 68 69 69 71 74 74 75 77 74 75 76 77 75 73 71
65 65 66 65 63 61 61 62 63 64 64 64 63 63 64 62 62 63 62 62 62 63 65 67 69 70 69 71 71 72 72 74 76 77 78 78 79 77 78 74 73 71 67
64 64 64 64 64 64 64 64 65 65 64 66 66 66 67 65 64 65 65 66 66 68 70 71 69 71 73 72 72 74 74 77 77 78 79 77 76 74 73 70 68 66 64
66 66 65 64 64 64 65 66 66 65 65 64 64 66 67 67 66 67 68 68 67 68 68 69 70 72 74 74 75 76 76 77 74 74 72 70 68 66 66 66 65 67 64
72 70 69 67 66 66 66 67 68 69 68 67 69 69 68 67 65 65 67 67 66 67 70 71 72 73 74 76 76 74 74 72 67 63 62 59 60 60 62 61 60 61 61
73 73 72 70 70 69 70 71 71 73 72 72 72 72 69 67 66 68 68 68 68 69 72 71 73 74 75 73 71 70 70 64 60 57 54 55 55 55 55 54 54 56 56
74 72 73 72 71 72 74 75 76 75 73 72 71 68 67 68 68 69 70 70 70 71 72 72 71 70 70 69 66 65 65 64 64 58 56 53 50 50 48 48 50 51 50
76 76 75 74 72 73 74 75 75 73 72 71 70 69 71 71 71 70 70 68 70 71 72 71 66 66 69 66 65 62 60 61 59 55 54 53 56 54 52 54 56 58 57
74 73 73 73 73 72 73 74 74 72 71 69 71 73 73 71 70 68 67 67 68 69 66 65 67 67 67 64 59 60 63 61 62 63 59 59 57 56 57 58 58 58 55
73 73 73 74 75 76 76 75 77 77 76 76 77 77 77 76 71 70 70 70 69 71 68 68 68 68 65 65 62 63 63 63 65 66 64 62 61 61 62 62 62 60 55
74 75 78 78 80 79 78 78 80 81 81 79 81 80 78 70 71 70 70 70 71 70 69 69 69 70 65 63 64 64 68 68 69 67 65 66 67 67 64 63 61 61 58
79 78 80 80 82 80 79 79 79 81 80 81 79 77 77 77 77 75 73 72 72 74 76 73 72 71 70 70 70 71 70 72 70 71 69 70 71 69 65 61 62 61 59
80 79 80 81 81 80 79 79 78 78 78 80 81 81 81 81 82 82 79 78 76 77 76 75 74 74 74 74 72 73 73 76 71 72 75 74 73 69 64 62 62 61 61
78 79 80 81 81 82 82 81 82 81 80 81 83 86 86 85 87 81 74 75 77 78 78 77 74 76 77 77 76 74 76 75 75 75 75 76 74 70 68 64 63 61 61
78 79 81 83 83 85 85 86 87 87 87 89 91 92 93 92 91 85 83 81 81 75 75 74 74 76 79 79 81 80 77 77 78 78 78 78 75 73 69 67 66 65 63
80 81 82 84 86 87 87 88 89 90 91 92 94 95 97 97 94 93 90 86 85 83 79 81 82 80 80 78 78 80 80 78 77 77 78 78 77 75 69 69 69 67 66

GFSSE_250_spd_036.txt.gz
Wind_Speed
31 28 28 28 29 29 28 28 27 27 27 28 28 27 28 28 29 31 30 30 31 31 32 32 32 31 32 34 37 39 40 41 41 41 42 43 44 46 45 46 48 47 49
32 31 31 31 31 32 33 33 32 33 33 33 32 31 32 33 33 31 32 34 36 36 36 37 37 39 40 42 42 42 41 41 42 44 46 47 48 50 51 51 49 51 52
35 34 34 34 33 33 33 33 34 35 36 36 36 36 36 36 35 36 36 37 38 40 41 42 42 44 46 47 48 48 48 48 49 51 52 52 52 54 52 52 52 54 55
38 39 38 38 37 36 37 37 37 38 38 38 38 38 37 38 40 43 44 44 44 45 46 46 46 48 49 51 51 50 51 52 53 54 54 55 55 55 55 55 56 58 59
42 42 42 41 40 41 41 42 42 43 43 43 42 42 44 44 45 47 49 50 50 50 50 51 51 52 52 53 54 55 56 57 54 55 55 56 56 57 58 59 60 61 63
47 45 46 45 45 45 46 45 44 44 44 45 47 49 48 48 49 49 51 53 53 53 53 53 54 54 55 57 59 59 59 59 57 58 59 59 59 60 62 63 64 63 65
50 49 49 47 46 46 47 47 48 48 47 47 47 50 51 52 52 54 54 55 56 55 56 57 58 60 60 59 60 59 59 59 61 62 61 62 62 62 63 64 66 65 66
53 52 50 49 49 49 49 49 50 51 52 53 53 54 54 55 57 56 57 58 58 58 59 59 60 60 60 61 61 60 59 60 60 60 61 61 63 66 66 68 68 69 70
57 56 56 54 54 54 55 55 56 56 58 57 59 59 59 58 59 59 62 61 60 62 63 64 63 63 62 61 60 61 61 63 63 67 67 67 66 68 70 72 73 74 76
62 62 62 63 62 60 60 63 63 62 63 64 63 65 66 67 65 63 63 62 64 65 63 62 63 64 63 62 61 62 65 68 69 70 70 69 68 69 71 73 75 76 76
66 65 66 67 68 67 65 66 66 66 66 67 67 68 67 67 68 68 67 67 66 65 65 64 63 62 62 64 65 67 67 68 69 69 69 69 71 73 74 76 76 75 76
71 69 70 70 70 71 71 71 69 67 66 67 65 65 63 64 65 65 65 66 67 67 69 70 69 68 67 68 69 67 65 65 67 69 71 72 71 72 75 75 71 67 68
75 75 75 74 73 71 69 66 63 61 61 62 63 62 64 66 66 66 66 67 68 69 69 70 71 69 66 66 65 67 68 69 71 71 70 70 70 70 66 62 58 58 54
74 72 71 71 70 67 64 64 64 63 66 65 64 65 66 65 65 66 66 68 69 69 69 68 68 68 67 67 67 70 71 71 69 69 70 69 66 63 61 59 56 55 53
70 69 68 67 66 66 66 68 68 69 68 67 66 67 69 69 70 70 72 72 70 69 68 67 67 67 67 69 70 70 70 70 70 69 67 64 61 56 54 54 53 49 48
69 70 70 70 69 68 70 71 71 71 71 71 72 72 73 74 74 73 72 70 69 66 67 68 67 68 67 68 70 70 69 67 68 64 62 59 57 55 54 56 55 56 54
70 69 69 69 69 69 69 69 70 70 71 72 73 73 73 75 73 71 69 68 66 67 70 68 68 67 67 68 69 67 65 68 65 64 59 58 51 53 58 57 59 54 54
70 69 69 68 68 70 71 73 74 74 73 74 74 73 71 72 71 69 69 70 71 70 71 71 69 68 69 68 66 68 68 68 64 63 61 61 56 59 59 61 59 57 59
71 71 71 71 70 71 72 74 73 73 73 75 75 75 75 76 75 75 73 75 75 75 76 75 72 68 67 66 69 70 67 67 65 65 63 61 63 62 64 62 64 63 64
77 78 77 78 76 76 76 75 74 75 75 75 77 77 77 78 78 77 78 78 78 78 76 71 67 66 67 68 70 69 70 70 70 68 67 67 68 67 68 68 66 65 65
78 74 75 80 82 82 79 79 78 77 78 78 80 81 81 81 81 81 81 80 78 74 70 69 70 69 70 71 73 74 72 71 71 72 72 70 70 71 71 71 70 69 65
77 78 77 80 83 84 82 81 81 81 79 80 81 83 83 83 82 82 81 81 80 78 77 78 77 76 77 76 76 76 72 74 74 73 74 74 73 75 74 69 73 71 69
79 81 84 84 82 82 84 85 84 83 82 81 82 84 87 85 84 83 82 81 82 82 80 80 80 79 78 77 77 77 76 75 76 77 76 75 77 76 76 74 73 73 73
80 82 85 83 83 84 85 84 85 87 87 88 89 90 90 90 89 88 88 86 85 83 83 84 83 83 80 79 79 76 75 75 75 76 76 76 78 77 73 73 73 73 76
81 80 79 80 81 82 82 87 87 86 88 90 90 91 91 92 91 91 91 90 88 89 88 86 84 83 83 81 80 79 78 79 78 77 78 77 76 76 74 74 79 79 76
81 79 79 80 83 86 86 86 86 86 88 90 92 94 95 96 97 97 95 96 94 93 94 95 93 93 90 81 83 82 80 80 81 83 84 82 79 76 78 82 83 82 78

GFSSE_250_spd_039.txt.gz
Wind_Speed
32 31 30 30 30 28 28 26 26 25 24 24 23 23 24 25 27 27 28 29 31 29 30 31 32 34 35 36 37 39 41 43 43 43 43 43 44 46 49 50 50 51 51
34 33 32 31 31 29 29 28 27 27 27 28 29 31 31 31 31 32 33 34 35 33 33 34 36 38 41 42 42 44 46 48 49 48 49 50 51 53 54 55 55 55 54
35 34 33 32 31 30 30 29 30 30 31 32 33 34 35 35 35 36 36 36 36 39 42 42 42 44 45 46 47 49 50 51 52 53 54 56 57 57 56 58 57 57 57
37 35 33 32 32 33 32 32 32 32 33 34 35 35 36 38 39 37 37 39 41 43 46 47 48 49 50 51 51 51 52 52 54 57 59 60 59 58 57 58 59 60 60
39 39 37 37 37 37 37 37 37 37 37 38 39 40 40 41 42 42 44 46 47 49 50 52 52 53 54 52 53 55 56 57 58 58 59 59 59 58 60 62 62 63 63
44 43 42 40 40 40 41 40 40 41 42 42 43 44 43 43 44 46 47 49 49 50 51 53 55 56 57 57 58 59 59 59 59 60 60 60 59 61 61 62 62 63 64
49 48 46 44 44 43 45 45 45 45 45 45 46 46 46 46 47 48 50 52 54 55 55 57 56 57 58 58 59 60 62 61 61 62 62 61 61 61 62 66 69 70 69
51 52 51 49 48 47 47 46 46 46 46 46 46 48 49 52 53 54 55 57 58 58 59 61 62 60 60 62 63 62 61 62 63 62 62 62 64 67 68 69 69 69 69
55 54 54 53 52 51 50 50 50 50 50 51 52 54 56 58 58 60 61 61 64 65 64 64 65 65 66 66 65 63 63 64 63 63 64 65 68 69 69 70 69 69 70
57 55 55 56 56 55 54 54 54 55 56 58 57 59 61 63 64 65 65 66 66 65 64 64 64 65 65 64 65 64 66 67 65 65 68 70 68 67 68 69 70 68 70
62 61 60 60 59 60 60 59 60 61 63 64 68 68 69 68 68 66 66 65 62 62 64 66 67 67 66 65 66 66 68 68 67 65 65 65 66 66 66 65 66 67 68
68 67 66 65 65 65 64 65 66 65 68 69 72 72 71 69 67 62 60 62 64 66 68 67 66 65 65 65 67 68 68 66 65 64 64 66 65 64 65 64 64 63 59
73 71 70 69 69 68 69 71 72 73 74 75 72 70 68 64 64 65 67 67 66 65 66 67 67 68 70 70 67 68 66 65 65 65 65 65 65 63 63 63 60 54 52
75 74 74 73 74 74 74 74 77 75 72 71 70 65 65 66 69 69 69 68 68 68 69 71 71 70 70 70 67 65 66 67 66 66 65 66 64 64 63 61 56 51 50
77 76 76 76 76 75 74 73 71 67 66 64 65 66 69 70 71 72 72 72 72 73 71 71 69 68 67 65 66 67 67 68 67 66 66 66 64 64 63 61 55 52 55
73 74 73 73 73 73 71 69 68 68 69 70 71 72 72 71 71 71 72 71 71 71 70 69 69 68 68 66 68 69 70 70 69 67 68 65 65 63 63 61 57 54 54
73 71 71 71 72 70 68 69 68 69 70 71 71 72 73 74 75 76 77 76 73 73 73 73 72 72 73 71 71 72 72 71 70 68 66 65 66 66 64 62 60 57 57
76 76 74 71 68 69 70 71 72 73 73 73 73 73 75 75 75 76 76 76 76 76 75 75 74 74 76 75 74 74 73 69 66 65 66 68 67 70 67 67 64 61 60
82 80 76 72 72 72 73 73 72 72 73 75 75 76 77 76 78 78 77 77 79 78 77 79 78 77 76 76 74 72 70 67 67 67 68 70 71 71 69 70 69 67 65
82 80 78 76 74 76 78 78 78 78 79 81 79 81 83 80 82 84 83 83 81 81 81 82 79 77 77 77 74 69 68 67 70 72 71 73 74 71 74 73 73 71 69
78 79 79 80 80 79 78 80 79 80 81 79 83 83 83 84 83 86 87 87 84 82 81 81 83 80 79 78 78 77 77 78 77 74 74 73 75 74 74 75 74 72 72
82 81 79 78 81 81 83 82 80 82 84 87 87 90 89 89 87 85 84 86 87 88 85 86 86 82 82 81 81 80 79 77 78 77 74 73 73 74 75 73 73 72 69
80 81 80 80 81 85 85 85 86 87 89 91 92 91 89 88 88 88 88 90 90 89 89 89 87 87 87 86 86 84 82 80 81 78 76 74 75 74 75 75 73 73 73
82 82 83 85 86 87 88 89 90 90 89 90 91 91 89 89 88 89 91 89 89 90 90 92 91 90 89 88 88 85 83 81 79 76 76 76 76 76 76 76 76 77 79
86 87 87 87 88 90 93 95 94 92 91 90 90 90 89 91 94 92 91 90 89 92 93 94 93 91 90 88 88 87 85 84 81 80 81 77 77 79 80 78 80 77 78
89 89 89 91 94 97 97 97 95 91 91 89 89 91 95 95 95 97 97 97 97 96 98 100 100 100 100 101 100 100 100 97 95 93 86 85 84 82 79 79 80 83 80

GFSSE_250_spd_042.txt.gz
Wind_Speed
30 29 28 27 27 25 24 24 23 21 20 20 19 20 19 20 21 23 25 27 28 31 33 34 33 32 34 36 37 39 41 42 44 46 47 49 49 49 50 53 54 54 55
31 30 29 27 26 25 25 24 23 22 22 23 23 23 24 25 27 29 29 30 32 34 35 34 35 40 43 44 45 46 47 48 49 50 51 51 53 54 55 55 56 56 56
32 31 30 29 28 27 26 25 25 25 25 26 26 27 28 29 30 31 32 34 35 35 36 38 41 44 47 48 50 51 51 52 51 52 53 55 54 55 56 58 58 59 58
33 31 30 29 29 29 28 28 27 27 27 27 28 29 31 32 33 33 34 35 37 39 41 43 46 47 48 51 51 52 53 53 54 54 55 55 57 58 58 60 60 59 59
35 34 33 31 30 30 29 29 30 30 31 32 32 33 35 36 37 39 40 41 42 44 47 47 48 51 52 53 54 55 55 56 55 56 59 60 60 60 61 62 60 60 61
36 35 33 32 32 32 33 33 34 34 34 35 36 37 38 40 42 42 42 43 45 46 49 51 53 54 56 56 58 59 58 58 59 61 62 59 59 61 63 62 63 63 65
40 37 37 36 36 36 37 37 37 37 39 40 40 41 42 42 43 45 46 47 49 51 54 55 57 57 58 60 60 59 60 60 61 63 61 61 61 63 63 63 64 66 69
45 41 41 41 41 41 41 41 41 41 42 43 43 43 42 43 45 47 49 52 55 57 60 61 62 63 64 64 61 61 61 64 65 63 62 63 63 64 64 66 66 63 65
49 48 46 46 45 45 46 46 47 47 46 46 46 46 47 50 51 55 55 57 60 63 65 65 65 64 63 60 62 65 66 64 63 63 63 63 64 65 62 60 61 62 62
52 52 50 50 50 49 49 50 51 50 49 50 51 51 53 56 59 61 63 66 68 67 64 64 60 59 61 64 67 69 66 64 64 63 64 64 65 63 62 60 59 59 59
56 56 54 53 53 53 52 52 53 54 55 55 57 58 60 60 62 65 67 70 67 66 64 61 63 66 67 67 68 66 67 67 68 67 67 65 63 62 62 61 60 58 57
60 60 59 57 55 56 56 56 56 58 60 61 63 63 66 69 71 73 72 69 68 66 66 67 69 69 68 69 69 69 70 69 64 64 63 62 63 64 64 63 60 56 57
65 64 63 61 61 61 62 62 63 64 65 68 68 68 70 72 76 76 73 69 67 65 67 70 71 70 70 70 68 67 65 65 62 64 64 64 64 65 64 64 61 58 56
70 69 68 66 66 68 67 68 68 69 70 70 72 75 76 77 74 71 69 67 68 71 72 71 69 68 69 70 68 68 69 67 67 66 66 67 67 67 66 65 62 56 57
75 74 73 72 71 71 72 71 72 72 74 74 75 77 79 74 70 69 69 72 72 71 71 72 72 73 73 73 73 73 71 70 68 70 69 69 69 69 66 65 59 58 58
79 78 76 76 75 75 75 74 75 75 76 76 76 74 71 69 69 70 71 73 72 72 73 74 74 75 74 77 76 72 71 72 69 70 71 71 70 68 63 65 62 60 60
77 78 78 77 75 76 76 75 74 74 73 72 69 68 68 69 71 71 72 74 74 74 75 77 78 79 77 78 78 78 74 72 70 70 73 72 69 67 63 63 63 65 64
69 68 66 65 68 70 70 70 71 72 72 68 69 70 73 72 73 73 74 76 80 81 82 82 83 81 80 79 77 78 75 73 73 72 71 71 69 65 62 64 68 67 67
73 71 71 71 72 73 73 74 76 77 74 73 73 75 76 78 80 80 82 83 85 86 86 85 85 84 81 77 75 78 77 75 76 74 71 71 72 69 69 69 68 69 69
77 75 74 75 75 76 77 79 81 80 76 75 77 80 81 82 83 84 84 85 86 88 92 91 89 85 81 79 79 79 81 78 77 74 73 72 72 72 73 70 70 70 70
77 78 79 79 80 80 80 80 79 81 81 82 83 84 85 82 84 87 90 92 93 91 91 92 89 83 84 82 84 81 79 79 77 78 78 77 76 74 73 73 69 71 70
79 79 80 80 83 83 83 82 79 81 84 85 85 88 89 87 88 90 93 96 95 96 90 88 86 85 83 88 83 81 79 80 82 80 80 79 78 77 74 74 71 71 69
83 82 81 81 80 79 79 81 82 79 79 85 87 89 92 94 93 94 96 96 97 95 94 87 87 92 89 86 85 85 84 85 84 84 82 81 78 76 74 72 74 73 73
85 82 81 81 81 83 83 84 84 84 86 87 92 95 98 100 103 103 101 95 91 91 91 91 92 91 90 90 90 89 90 87 87 85 86 85 84 82 81 80 80 78 75
87 86 86 86 86 87 88 90 90 91 93 96 95 97 101 105 106 108 107 97 91 90 89 94 95 93 94 95 97 97 97 96 97 98 97 96 94 93 89 83 79 77 75
89 88 87 88 90 89 92 92 93 95 97 98 101 101 104 104 104 100 102 100 98 97 96 97 98 98 99 102 104 108 111 110 105 102 99 94 91 86 83 82 78 78 78

GFSSE_250_spd_045.txt.gz
Wind_Speed
29 29 29 28 27 26 26 24 21 21 19 18 18 17 17 17 17 19 20 23 25 27 28 30 32 32 32 33 36 41 44 46 47 46 47 47 48 48 49 49 50 52 54
29 29 27 25 25 25 24 22 21 20 19 18 19 19 19 20 22 24 25 27 29 30 32 34 35 35 37 41 43 45 46 48 48 49 50 50 52 52 53 55 56 56 55
29 29 28 27 25 24 24 23 21 20 21 21 21 22 22 24 26 26 27 28 30 32 33 35 37 40 43 45 45 48 49 51 52 53 55 53 52 54 56 57 58 57 55
29 29 29 29 28 26 24 23 22 22 22 22 23 23 24 26 27 28 30 32 34 36 37 39 40 43 45 48 50 51 52 53 56 58 58 58 57 57 61 61 59 57 58
34 32 31 29 27 25 25 25 24 24 24 24 26 27 28 29 30 31 33 35 37 39 40 42 44 46 50 53 54 56 58 59 60 61 58 57 61 63 63 61 59 59 60
33 32 31 31 29 28 27 26 27 27 28 28 29 30 31 32 34 35 38 38 38 40 41 44 47 51 55 58 60 61 61 61 62 57 59 65 66 65 63 62 60 59 59
36 33 32 31 30 30 29 29 29 30 31 31 32 33 34 36 39 39 39 39 41 44 47 50 52 55 59 64 63 62 62 60 57 60 65 67 65 63 61 61 62 62 61
40 38 36 34 32 32 32 32 33 34 35 36 36 37 39 41 41 42 43 45 47 49 53 57 59 63 65 62 60 59 59 59 64 65 66 66 64 63 65 64 62 61 60
43 41 41 39 38 37 36 37 37 38 39 40 41 42 43 44 45 46 48 50 54 56 58 61 65 65 63 62 61 61 64 66 68 66 67 66 67 63 60 57 59 56 57
47 45 44 43 42 41 40 40 40 42 43 44 46 47 48 50 51 52 54 56 58 62 64 67 68 68 66 65 62 63 66 69 68 66 65 62 61 60 60 60 58 59 58
51 49 48 47 46 45 45 44 44 46 48 49 49 50 52 53 55 57 60 62 63 65 68 71 71 68 65 63 65 68 70 70 67 66 64 63 64 64 62 62 60 61 61
56 52 52 51 51 50 49 49 49 50 51 52 53 54 57 59 61 63 66 67 68 72 74 74 70 68 66 67 68 70 71 70 71 68 66 68 66 64 64 63 63 62 62
62 57 56 54 53 54 53 54 55 55 56 57 58 59 62 64 66 68 69 71 73 75 74 71 68 67 67 69 72 70 70 71 71 70 69 69 69 67 66 63 63 61 60
64 62 60 59 57 58 58 58 59 59 60 61 63 65 67 69 71 72 74 75 77 74 72 68 69 70 70 71 72 72 73 75 77 77 73 73 71 69 65 63 61 59 61
68 65 64 62 62 62 63 63 63 65 66 67 68 70 71 73 75 77 77 75 74 71 69 69 70 71 72 73 75 76 76 78 80 79 75 69 67 66 67 64 65 61 59
71 69 68 67 66 66 67 68 68 70 71 72 73 73 75 75 76 75 71 71 71 68 72 75 75 76 78 80 78 80 81 81 80 77 72 66 68 69 65 66 63 61 62
75 73 72 71 71 71 71 72 73 74 74 74 75 75 73 71 69 70 70 73 74 78 76 79 81 81 84 84 84 84 85 82 77 73 74 69 71 70 69 67 65 61 61
74 75 75 73 72 73 74 74 76 75 74 72 69 68 68 71 72 75 75 78 78 78 79 80 83 85 86 87 88 87 86 83 77 72 71 72 73 71 67 67 66 66 64
72 72 74 75 74 74 74 71 68 67 67 67 69 72 74 76 76 75 77 78 81 83 85 87 89 89 89 92 93 91 88 81 75 69 71 74 75 70 69 67 67 68 69
73 73 73 74 74 72 70 68 71 69 70 72 73 74 77 81 79 79 80 79 79 83 88 89 91 94 97 98 94 91 82 77 71 73 75 73 71 71 69 70 68 67 68
75 75 73 69 71 72 73 73 71 73 75 75 77 79 78 78 79 78 79 80 82 86 90 94 96 98 100 101 98 89 82 80 77 78 77 72 73 74 75 74 73 73 72
75 74 74 73 73 74 74 74 74 76 78 81 80 80 77 75 77 81 84 88 90 92 96 97 101 103 102 101 96 89 84 82 83 83 82 81 79 78 79 77 79 78 76
79 75 76 76 76 77 78 79 79 79 78 80 81 81 82 82 83 84 89 93 96 97 98 102 104 104 103 99 94 88 88 84 86 89 89 87 86 84 84 85 85 86 84
83 81 81 80 80 81 81 81 80 81 80 80 81 85 88 91 92 95 95 96 99 101 104 104 106 103 97 94 94 97 99 97 93 91 92 94 95 94 95 93 92 90 85
86 84 83 82 82 83 83 83 85 86 85 84 85 86 92 96 99 101 104 105 105 106 109 107 103 94 92 95 98 102 104 108 106 106 110 110 106 100 95 92 89 85 80
90 88 87 87 87 88 89 89 89 87 89 90 93 95 95 98 102 105 109 111 112 112 110 101 97 96 97 100 104 107 111 115 119 119 106 102 99 99 98 94 89 86 82

GFSSE_250_spd_048.txt.gz
Wind_Speed
34 33 35 35 33 32 31 33 28 23 22 22 21 21 21 20 18 17 17 19 20 23 24 26 27 28 30 32 36 38 40 41 44 47 48 49 51 53 55 53 52 54 56
31 33 34 33 31 29 27 26 25 24 24 23 22 20 19 17 18 20 21 22 24 25 26 27 29 31 32 34 38 41 44 47 48 51 53 56 56 59 55 51 56 59 59
34 34 33 30 28 28 27 26 25 26 24 24 21 19 18 19 21 21 22 23 24 27 29 30 31 33 35 38 41 44 48 51 55 58 59 60 61 55 53 57 60 65 64
31 31 30 29 27 26 25 25 26 27 24 21 20 20 21 21 22 23 24 26 28 30 31 33 34 36 38 41 44 48 50 55 59 59 58 56 53 53 60 63 64 63 62
31 30 29 29 28 27 26 26 26 26 24 22 22 23 23 24 25 26 28 30 31 33 33 34 36 39 42 45 50 54 58 60 59 54 55 56 55 61 65 64 64 62 63
33 31 30 29 29 29 29 29 28 27 26 25 25 25 25 27 28 29 31 32 35 35 36 38 40 44 48 52 55 58 60 60 58 57 57 58 59 65 66 65 63 61 59
36 35 34 33 33 32 32 30 28 27 25 26 27 28 29 30 31 33 34 36 38 39 41 43 45 50 53 55 59 62 63 61 61 60 60 61 65 66 64 61 61 59 58
38 36 35 35 34 34 33 31 29 28 27 27 29 31 33 34 35 36 39 40 41 43 45 47 50 54 57 59 64 65 65 63 63 61 62 65 65 64 65 64 60 63 62
41 39 37 36 35 34 34 32 31 30 31 31 33 35 37 39 40 42 43 44 46 48 50 53 56 59 61 64 69 68 67 65 63 62 65 66 63 64 65 65 66 65 65
46 44 41 39 40 38 37 35 35 35 36 36 36 38 40 42 44 46 46 48 50 52 55 59 62 64 66 70 71 69 67 66 64 65 67 66 68 68 67 69 69 69 65
52 50 48 46 43 42 41 40 40 41 41 40 41 43 45 45 46 48 50 52 54 57 60 63 65 68 71 72 71 68 66 65 68 70 70 71 71 70 70 71 68 64 61
55 54 51 49 47 46 45 44 45 46 46 46 45 46 48 50 51 53 54 57 60 63 64 66 69 71 71 71 70 67 67 71 72 73 74 75 75 75 73 72 66 63 60
60 58 55 53 51 49 48 48 49 49 51 50 50 52 53 54 56 57 60 62 64 67 70 72 71 71 70 69 67 69 73 74 75 76 76 76 77 76 74 72 64 59 60
65 64 60 58 57 54 53 54 54 53 53 53 54 55 57 59 60 63 65 68 69 72 73 71 71 69 66 67 72 74 74 78 77 79 78 78 78 81 78 69 64 61 62
66 64 62 61 60 60 60 58 58 58 58 58 59 59 60 63 65 67 69 71 73 74 72 69 68 68 71 73 75 78 79 80 81 80 82 83 82 79 71 65 61 62 62
71 68 66 65 63 62 61 61 61 62 61 61 62 63 65 68 71 73 73 74 73 70 67 70 72 74 74 77 78 81 83 81 82 81 85 86 84 76 70 63 63 62 63
74 73 71 70 69 68 66 65 65 66 66 66 65 67 70 72 74 74 74 71 69 70 72 72 74 76 80 80 82 83 82 83 84 89 89 88 83 74 69 65 62 66 66
73 73 73 73 73 72 70 69 69 68 69 70 70 73 73 74 74 73 71 70 71 73 76 78 76 78 80 81 85 85 87 88 91 90 92 89 81 74 68 64 68 65 63
75 75 74 74 75 73 73 72 71 71 72 73 74 75 75 75 73 70 72 73 75 76 76 77 79 80 84 87 89 91 93 93 96 95 96 86 79 73 70 68 68 66 65
79 79 78 76 74 73 73 73 73 74 76 74 75 73 71 71 71 73 73 75 77 78 78 79 81 84 88 92 94 97 97 101 102 99 93 82 75 75 78 74 73 74 72
78 79 79 79 77 75 73 73 72 73 73 72 69 70 71 71 74 76 77 79 79 79 80 83 85 89 91 96 99 101 105 106 104 100 86 80 81 81 81 82 81 79 78
82 81 81 81 78 76 73 69 68 67 68 69 69 70 74 75 75 78 79 79 82 83 85 89 92 94 97 103 107 109 108 107 97 90 85 83 85 89 90 91 91 89 87
82 80 80 78 77 75 75 75 74 73 72 73 75 76 76 77 79 79 79 82 86 90 93 94 97 101 105 110 112 114 109 102 93 92 92 94 94 97 99 99 99 98 95
87 84 79 77 77 75 74 73 71 71 73 76 77 78 82 84 87 87 88 89 90 92 95 99 102 107 111 112 115 112 110 100 94 94 97 101 103 106 108 107 103 95 90
92 90 86 83 80 77 76 77 77 77 77 79 80 84 86 90 91 95 95 96 97 97 100 103 108 109 112 112 109 107 96 98 100 103 104 110 114 113 100 95 96 94 93
94 93 91 90 88 86 85 84 83 83 84 86 87 87 89 92 96 97 100 101 103 104 107 109 109 111 114 109 104 96 98 101 104 112 116 111 101 104 101 94 90 86 84

GFSSE_250_spd_051.txt.gz
Wind_Speed
36 36 39 39 40 39 36 33 33 32 31 27 26 24 24 23 22 22 20 18 17 18 20 20 22 24 26 28 29 30 33 37 41 45 49 52 55 52 50 48 48 49 53
35 33 35 37 38 38 35 34 30 30 29 26 25 26 23 23 22 22 20 18 18 18 19 21 24 27 28 29 31 33 37 41 46 48 53 55 53 50 49 51 52 53 60
34 34 36 36 35 35 33 31 29 28 28 27 26 26 25 24 23 20 19 17 17 19 22 24 27 29 30 32 34 38 41 45 48 51 56 54 53 51 52 52 56 60 61
34 37 35 35 35 33 31 30 30 30 29 28 27 26 26 23 21 20 19 19 20 23 24 27 29 31 33 35 38 43 46 49 51 55 58 54 54 54 53 56 61 58 59
34 35 35 34 33 32 31 31 31 30 30 29 28 26 25 23 22 23 22 22 23 25 27 30 33 35 37 39 42 46 49 52 57 60 60 59 56 56 55 60 60 59 60
37 33 32 33 32 31 30 30 30 30 29 29 28 27 27 25 24 24 24 25 26 28 32 33 35 38 40 43 47 51 53 57 61 62 60 58 57 56 59 62 62 64 61
40 35 32 31 31 30 30 31 32 30 29 29 30 29 26 26 27 27 28 29 30 33 37 38 40 42 45 48 51 55 58 61 63 63 62 59 58 61 63 63 66 64 65
42 40 37 35 34 33 33 33 33 32 31 32 29 27 26 27 28 30 31 33 35 38 40 41 43 46 49 53 56 58 61 64 63 64 61 59 63 65 68 68 66 66 67
45 42 39 38 37 36 35 35 34 34 33 33 30 28 29 29 31 32 35 37 39 41 43 45 48 51 54 57 60 63 63 64 64 63 59 66 69 70 71 73 67 70 70
48 46 44 41 39 37 37 36 36 35 34 33 32 33 32 33 34 37 39 40 43 43 46 49 53 56 59 62 65 66 65 65 64 61 66 71 74 75 72 70 71 71 74
52 49 47 45 43 41 39 39 37 37 36 36 36 37 37 37 38 40 42 43 46 47 51 54 57 60 64 67 69 67 69 65 65 67 73 76 76 75 72 73 76 76 77
55 53 51 48 46 44 42 41 41 41 41 40 41 42 42 43 44 45 46 47 50 52 55 58 62 65 68 70 69 69 66 67 69 72 77 76 76 74 76 78 80 78 79
59 57 55 53 51 49 48 46 46 46 45 44 45 46 46 47 48 48 50 53 54 57 59 62 66 69 70 70 66 67 68 72 73 76 77 77 77 76 79 80 80 83 80
62 60 59 57 56 55 53 51 50 50 49 48 48 49 50 50 50 52 54 57 59 61 64 67 69 71 71 68 68 70 72 75 76 77 79 79 79 81 82 84 86 83 77
67 66 62 60 59 58 56 55 55 54 53 54 53 53 55 55 56 57 59 60 62 64 67 70 71 69 69 68 71 73 74 74 76 79 79 82 84 84 86 89 91 84 70
69 69 65 64 64 62 61 60 59 59 59 59 59 58 58 59 60 62 63 65 67 70 71 72 69 69 71 73 74 75 74 77 78 81 84 87 88 91 94 93 83 74 65
71 69 69 69 67 65 66 66 63 62 61 61 60 61 62 63 64 65 67 69 71 72 72 71 69 71 74 76 77 78 79 80 83 86 88 90 94 98 96 90 85 72 64
73 72 70 69 69 70 68 65 65 65 65 65 65 67 67 67 67 69 71 72 72 72 72 69 71 74 77 80 80 81 82 84 87 90 93 97 100 101 100 94 86 71 64
76 75 74 74 75 74 71 70 70 70 70 70 70 70 70 70 72 72 72 72 72 70 70 72 75 77 80 82 83 86 88 90 91 94 99 102 103 104 99 91 79 74 71
78 78 77 77 77 76 74 73 72 72 72 72 72 73 73 73 72 71 73 73 70 70 73 76 78 81 84 86 89 91 92 93 95 99 103 104 105 105 97 84 80 77 78
79 80 80 79 78 77 75 75 74 75 75 74 74 75 75 74 74 75 72 70 69 73 77 80 81 84 87 92 94 95 95 97 101 105 107 108 108 100 85 84 84 86 86
81 81 80 80 80 78 77 76 76 77 76 77 75 75 73 73 72 71 71 71 73 78 80 83 86 88 91 95 97 99 97 100 106 110 111 111 101 96 89 90 93 94 96
84 83 81 81 82 80 77 76 78 77 77 76 74 73 75 73 71 71 73 75 79 81 84 87 92 95 96 98 100 104 103 103 107 110 113 106 99 95 97 100 104 102 100
89 86 84 82 80 80 80 80 79 78 78 77 77 75 75 73 73 74 77 80 82 84 87 92 96 99 101 101 103 107 108 110 112 111 103 97 97 101 105 108 100 92 89
96 93 89 86 83 81 81 79 79 79 79 79 80 80 80 81 83 85 86 86 89 91 94 96 97 98 102 104 106 108 112 115 115 111 95 95 100 106 104 97 97 90 86
101 98 95 92 89 86 84 82 81 79 79 79 80 81 83 85 86 87 90 93 96 97 98 99 99 101 103 105 107 111 115 117 111 101 100 101 102 101 97 91 90 87 84

GFSSE_250_spd_054.txt.gz
Wind_Speed
37 37 38 37 40 38 37 38 36 35 33 29 29 30 28 25 23 23 22 23 21 20 18 15 16 18 20 22 23 25 27 32 37 40 42 44 50 52 49 47 46 47 52
38 37 35 36 38 38 37 37 35 34 32 31 32 28 27 23 23 23 24 23 22 18 15 16 18 20 22 24 26 28 31 35 39 43 45 48 53 52 51 50 50 52 55
37 33 33 34 34 35 35 36 35 34 33 31 30 29 25 25 24 25 23 22 18 17 17 18 20 23 24 26 29 31 34 37 43 45 49 52 53 53 51 51 53 56 59
36 32 33 33 33 33 34 35 35 34 33 31 28 25 26 26 25 25 24 22 19 19 19 21 22 24 27 29 32 34 37 41 46 48 51 54 55 54 54 54 57 60 63
37 34 35 36 36 33 36 35 34 33 31 29 27 26 27 25 27 26 25 24 23 21 22 23 26 28 30 33 36 38 40 44 48 51 54 56 56 56 55 58 63 64 64
39 36 35 34 35 34 37 36 34 32 31 29 28 28 28 28 27 27 27 24 24 24 25 27 30 32 34 35 38 41 45 48 53 57 58 59 58 55 56 63 67 67 64
41 39 36 34 33 34 35 35 33 33 31 29 29 30 30 29 29 29 28 26 26 27 29 31 33 36 37 39 43 45 49 52 56 60 61 60 58 56 60 67 70 68 66
43 42 40 38 34 33 34 35 33 31 30 30 30 31 31 30 30 28 26 27 28 30 33 35 37 41 41 43 47 50 53 57 60 62 63 62 59 62 64 70 73 69 68
45 45 43 42 38 36 37 34 32 30 31 32 32 32 32 30 30 28 29 29 30 33 35 38 40 42 45 47 50 54 58 61 65 65 64 63 64 66 70 72 73 72 70
49 47 45 44 41 39 39 36 34 33 33 33 34 33 33 32 32 32 32 31 33 36 37 40 43 46 49 53 56 59 63 66 66 67 67 67 68 71 72 75 73 74 75
52 50 48 46 43 42 40 39 37 35 35 34 35 35 34 34 34 35 36 37 39 41 43 45 47 50 53 56 60 62 64 67 66 69 68 69 71 72 75 74 74 76 78
54 53 51 48 47 44 42 40 39 38 36 37 37 37 37 37 38 39 40 41 43 45 47 48 49 52 56 59 63 67 68 69 68 69 69 73 72 75 75 74 77 79 82
59 57 55 52 50 48 46 45 43 42 41 40 40 40 40 41 42 43 43 45 46 48 49 51 54 56 59 64 66 68 69 69 70 72 73 73 73 76 77 79 80 81 85
60 59 58 55 53 51 50 48 48 46 45 44 44 45 44 45 45 46 48 49 50 52 54 56 58 60 63 66 67 68 69 68 70 73 74 74 76 80 81 83 85 87 88
65 64 61 59 57 55 54 53 53 52 50 49 49 48 49 49 50 51 53 54 54 56 58 61 62 64 67 69 68 69 68 70 73 76 76 79 82 84 86 85 88 90 91
67 65 63 62 61 60 58 58 58 56 56 54 52 53 53 53 55 57 57 57 58 61 63 65 66 69 69 70 70 69 70 72 75 77 80 84 88 88 88 90 91 93 95
72 68 67 66 64 64 63 62 60 60 59 59 58 57 57 59 60 60 61 62 62 64 67 66 70 70 71 71 70 70 73 76 79 81 84 90 91 91 92 92 95 98 98
75 72 69 68 68 67 67 65 64 63 63 63 61 62 63 62 62 65 67 67 67 68 69 70 71 72 74 71 70 72 77 80 82 84 90 92 93 94 95 97 99 102 102
75 75 72 70 69 67 66 66 67 66 66 66 66 66 64 65 67 69 70 70 69 70 71 72 74 76 72 72 73 78 82 83 84 90 94 95 95 98 98 102 105 106 101
73 69 70 71 71 70 70 70 68 67 66 66 66 68 68 69 70 70 73 72 71 72 74 75 75 74 74 76 78 83 85 86 91 95 98 97 100 101 103 107 110 108 97
76 73 70 72 72 71 72 72 71 71 71 71 72 72 72 72 72 73 73 74 75 74 75 77 75 75 78 80 83 86 88 91 95 98 100 102 102 104 109 112 110 105 97
83 79 74 72 73 74 75 75 75 75 76 76 76 75 74 75 75 75 75 75 75 75 75 75 79 80 81 85 87 88 90 95 97 99 102 103 106 110 112 113 108 101 95
88 86 82 77 74 74 75 76 78 78 78 78 78 78 78 78 77 77 77 78 78 77 76 79 82 83 85 88 91 93 94 94 97 101 103 106 111 114 116 111 103 98 100
95 92 88 84 79 77 76 76 77 77 78 78 78 79 80 79 78 77 77 78 78 79 80 82 82 84 87 90 96 99 100 99 100 101 103 108 114 116 108 102 99 101 103
100 98 95 92 88 84 81 79 78 78 78 79 79 80 80 80 79 80 79 80 81 81 81 83 85 88 93 97 98 100 101 104 106 106 106 113 115 109 103 99 100 102 93
105 103 101 98 95 91 86 84 84 82 81 81 81 81 81 81 81 82 82 83 84 86 87 90 93 95 97 99 99 101 103 107 106 110 114 115 110 102 98 98 101 91 84

GFSSE_250_spd_057.txt.gz
Wind_Speed
36 34 37 37 37 37 37 37 36 37 38 37 34 31 30 29 24 24 23 23 22 22 22 21 19 16 15 17 18 19 22 26 29 32 36 40 42 45 49 50 46 47 50
40 37 37 36 36 37 37 37 37 35 35 35 33 30 27 26 23 25 23 23 24 24 23 20 17 16 17 19 19 22 24 28 31 34 38 42 46 48 51 51 48 49 53
42 38 36 35 34 33 34 34 35 35 33 33 31 29 27 27 27 25 24 25 25 24 21 19 19 18 19 21 23 25 28 30 34 37 41 45 49 51 54 51 51 53 56
43 41 37 35 33 31 32 32 33 34 33 33 31 29 27 27 27 26 26 26 26 24 22 21 21 21 22 24 26 28 30 33 36 40 44 48 52 55 53 54 52 55 58
43 41 38 35 33 32 31 31 30 33 34 33 31 29 29 29 27 27 27 27 27 26 24 24 23 24 26 27 28 30 33 36 40 44 47 52 55 56 56 55 55 58 60
42 42 39 37 35 32 33 34 31 33 35 33 31 30 30 29 28 28 28 28 28 26 25 25 26 28 29 31 32 34 36 40 44 47 52 55 58 59 58 56 59 59 62
41 41 41 40 37 33 33 34 33 34 36 35 33 33 30 29 29 30 30 30 29 27 27 27 28 30 32 33 35 37 40 43 47 51 56 59 61 61 60 59 62 63 67
44 40 40 41 39 34 31 33 32 34 36 35 34 32 30 29 30 32 32 31 30 28 28 29 31 32 34 35 38 40 43 46 52 54 60 62 64 64 63 63 65 66 71
47 43 42 42 41 36 34 33 33 35 36 36 34 31 30 30 31 32 32 32 30 29 30 32 34 35 36 38 41 43 47 51 54 58 63 65 65 66 64 65 67 68 71
49 47 45 44 43 40 37 33 33 34 36 35 33 32 32 33 32 32 33 32 31 32 34 36 37 39 41 43 45 47 51 54 58 62 65 64 65 65 66 67 69 71 74
49 48 48 45 44 44 40 39 36 36 37 34 34 33 33 33 33 34 34 35 35 36 38 40 41 43 45 47 48 50 54 57 61 64 67 68 67 68 68 68 70 74 76
54 50 50 48 47 47 44 42 41 40 39 38 38 36 35 35 34 35 36 37 38 40 42 43 45 47 49 51 53 54 57 61 63 66 67 69 70 70 70 70 73 76 80
58 55 53 52 51 48 48 45 43 42 41 40 40 38 37 37 38 39 39 40 41 43 44 46 47 50 52 55 56 58 61 63 65 67 68 69 70 72 73 74 75 81 83
62 59 56 54 53 52 50 49 47 46 45 43 42 41 41 41 41 41 42 43 45 46 48 50 52 53 55 57 59 62 63 65 69 69 71 71 74 74 74 75 81 85 85
63 64 62 57 54 54 54 54 51 49 48 47 46 46 45 45 45 45 46 47 49 50 52 54 55 57 59 60 63 65 65 68 71 72 71 73 75 76 76 79 86 88 87
63 64 64 63 59 57 57 56 56 53 52 51 51 50 49 49 49 49 50 51 53 55 57 57 59 62 63 65 65 66 69 71 74 74 73 76 77 78 81 85 89 90 90
68 63 67 65 65 61 60 60 58 58 57 56 55 54 54 54 54 55 55 56 56 59 59 61 63 66 66 67 67 70 72 75 76 76 78 79 79 83 85 89 92 92 94
79 78 69 69 69 66 64 62 61 61 61 60 58 58 58 58 59 60 60 59 59 60 62 65 66 67 68 68 71 73 75 75 76 78 80 80 84 86 89 93 93 95 96
82 79 75 74 72 70 66 65 65 66 65 63 63 62 63 63 63 63 63 62 61 64 66 67 69 70 71 72 73 75 76 77 78 79 81 84 87 90 94 95 96 99 100
84 84 83 80 75 74 71 69 68 67 67 66 66 66 67 67 65 65 65 65 65 67 69 71 72 73 75 75 76 78 78 79 80 81 85 88 91 95 95 97 101 103 105
87 84 84 82 80 73 73 74 72 69 67 67 67 66 67 68 66 66 68 70 71 72 71 73 76 77 76 77 76 78 79 80 82 85 87 92 98 99 100 102 104 106 108
92 88 85 84 83 81 75 69 71 71 69 69 69 70 69 68 69 71 73 74 74 74 76 76 76 76 78 79 80 79 80 84 87 88 92 97 98 100 105 106 106 110 110
94 91 88 85 84 83 80 72 67 68 70 71 72 72 71 72 74 75 76 77 78 77 78 79 80 80 80 80 83 85 85 84 87 92 97 100 101 105 107 107 111 112 110
99 95 91 88 87 86 84 82 74 70 69 70 71 73 74 75 75 76 77 77 79 79 80 80 81 81 81 82 86 88 89 90 92 92 96 100 104 108 108 110 111 110 104
103 99 95 91 89 87 86 83 79 77 75 74 74 75 76 77 78 78 78 78 79 80 81 82 83 84 85 86 88 91 94 95 98 99 99 102 106 104 108 110 108 104 101
107 105 100 97 93 91 89 88 86 83 83 81 79 78 78 78 78 79 80 82 83 84 85 86 87 88 90 92 94 95 97 99 99 102 104 107 105 106 107 103 100 99 99

GFSSE_250_spd_060.txt.gz
Wind_Speed
39 36 37 35 35 36 38 38 37 36 36 36 35 35 35 32 29 26 24 23 25 23 25 24 25 25 23 20 20 20 20 22 24 26 29 32 35 39 43 47 48 49 49
39 39 37 37 33 35 36 38 37 35 35 34 34 35 34 32 29 26 26 24 27 24 26 25 26 25 21 21 21 21 23 25 26 28 31 34 38 43 46 49 51 52 52
41 39 38 37 35 35 36 37 38 36 35 34 34 32 31 30 27 27 27 26 28 26 27 26 27 23 23 23 23 24 26 27 28 31 34 38 41 46 49 54 54 55 53
44 43 41 38 38 37 36 36 36 35 34 33 32 31 30 29 27 29 30 29 29 28 29 28 27 25 25 25 25 27 29 29 31 33 36 39 43 48 53 57 57 58 57
47 45 43 40 40 39 37 36 35 32 29 30 31 32 32 31 29 30 30 31 30 30 30 30 28 27 28 27 29 31 32 33 34 36 39 42 47 50 55 58 60 60 60
48 46 43 41 40 40 39 37 35 31 27 27 31 33 33 32 31 32 31 32 30 31 31 32 30 28 29 30 32 33 35 35 36 39 43 47 50 53 57 60 62 63 64
47 45 41 41 40 40 40 37 34 32 32 29 30 33 34 32 32 32 32 32 31 32 33 32 32 30 30 32 34 35 37 38 39 43 46 50 54 56 60 62 64 66 66
49 46 44 42 41 41 41 39 35 33 33 34 32 35 35 34 33 32 32 32 33 34 34 33 34 32 32 34 36 37 40 42 43 46 50 53 56 59 62 64 64 67 65
48 46 45 45 41 40 40 39 36 32 32 34 33 35 36 36 35 34 32 33 34 36 35 35 35 34 35 38 39 41 42 45 46 49 53 56 58 62 64 65 66 67 66
50 47 45 46 43 42 40 39 38 32 33 34 33 35 36 36 35 34 34 34 36 36 35 37 38 38 39 41 43 44 46 47 48 52 55 59 61 63 66 67 67 66 68
54 50 48 47 46 45 42 40 40 36 33 35 35 36 36 37 36 36 36 37 37 37 38 40 41 41 42 44 46 47 49 50 52 56 59 61 63 66 68 69 69 69 71
56 54 51 49 47 47 45 43 42 41 38 35 35 37 37 37 37 38 38 38 39 39 40 41 43 45 46 47 49 50 52 53 56 58 60 63 66 69 70 70 70 71 72
56 54 52 50 48 48 48 45 45 44 42 40 39 40 40 39 41 41 40 39 39 40 42 43 45 46 48 49 52 53 54 56 58 61 62 65 69 72 73 72 72 73 74
64 60 56 54 53 50 49 48 47 47 46 45 43 43 43 42 42 43 42 41 42 44 45 46 48 49 51 53 55 56 58 60 61 62 64 68 71 74 74 73 73 74 76
66 63 61 57 56 53 52 52 49 50 50 50 47 46 45 45 44 44 44 44 45 47 48 49 50 53 54 56 57 59 62 63 64 66 68 71 73 74 73 75 75 77 79
67 64 62 61 59 59 57 56 54 52 52 52 52 51 49 49 48 48 48 48 49 50 52 53 55 58 58 58 60 63 65 66 68 69 73 74 75 76 75 75 76 80 82
71 64 66 62 59 60 62 60 60 57 55 55 55 55 54 52 52 52 52 52 53 55 56 57 59 62 61 61 63 66 68 69 70 74 76 77 78 77 76 78 80 82 86
76 72 68 70 68 64 63 64 65 63 60 58 56 56 57 56 56 56 56 57 58 58 60 61 63 63 62 65 67 69 70 73 74 76 78 79 78 77 77 81 82 86 92
80 77 76 74 69 70 69 68 67 67 66 62 60 59 59 60 61 61 61 61 61 62 63 65 65 64 66 69 71 72 74 75 75 77 78 79 78 79 81 84 88 93 97
87 81 79 77 76 77 75 75 72 70 70 67 64 63 63 64 64 64 64 63 64 67 66 66 66 68 71 73 73 76 77 78 80 79 77 78 81 84 86 90 94 98 100
91 86 84 79 81 82 82 81 79 76 74 73 69 66 67 67 67 67 68 67 67 67 68 68 69 72 76 77 78 79 80 81 81 79 79 82 86 90 94 97 99 101 104
93 90 89 85 81 81 82 84 82 79 76 72 72 73 72 71 70 69 69 70 69 70 71 72 74 77 80 79 79 79 79 80 81 84 85 89 93 95 98 102 103 105 107
97 95 94 92 87 81 80 81 83 82 78 77 73 69 73 74 74 73 72 72 71 72 75 78 77 76 77 79 81 81 81 81 83 87 92 95 98 100 101 103 106 109 111
101 99 97 95 95 94 90 87 86 82 80 81 77 73 70 68 68 70 72 72 72 73 75 77 78 78 79 80 81 83 83 85 86 88 94 99 101 103 106 108 110 112 111
103 102 100 100 100 97 93 89 88 87 86 84 84 82 79 75 71 71 71 72 73 75 77 78 79 79 80 82 84 85 88 91 92 94 95 99 102 106 110 111 113 113 112
105 105 105 103 102 100 99 97 93 90 89 88 88 88 87 84 83 81 79 78 78 79 80 81 83 85 86 87 89 93 95 96 98 100 102 104 107 107 109 111 111 111 107

GFSSE_250_spd_063.txt.gz
Wind_Speed
41 43 43 42 40 39 40 41 41 40 38 38 37 36 35 34 34 33 31 29 28 27 25 26 26 26 27 27 27 24 23 25 26 26 27 28 30 33 38 40 45 50 52
42 43 44 42 42 39 38 38 39 39 39 37 34 32 34 33 34 33 32 29 29 28 26 27 28 27 28 28 27 24 25 27 29 29 30 31 33 35 38 42 47 51 54
42 41 42 40 39 37 38 38 38 38 38 38 35 32 33 32 32 32 29 29 28 28 27 29 29 29 29 28 26 26 28 30 31 32 33 34 36 38 41 46 49 52 56
44 41 41 38 39 38 38 38 38 38 38 37 36 35 33 32 31 29 30 30 30 30 31 32 31 30 30 30 29 29 30 33 34 35 35 36 39 42 44 48 51 54 57
47 43 42 40 40 41 40 39 39 38 37 36 35 35 33 30 30 29 31 31 31 32 32 33 33 32 32 32 32 33 33 34 35 36 37 39 42 45 48 51 54 56 59
48 46 44 43 42 42 42 42 40 39 38 37 35 31 29 30 31 32 32 32 33 33 34 34 33 33 34 34 34 35 35 36 37 37 39 42 45 48 50 52 56 57 61
46 48 46 44 43 43 42 41 41 41 40 37 35 30 27 28 31 32 33 33 35 35 35 35 34 35 36 35 37 37 37 38 38 40 42 45 47 50 52 55 58 59 61
50 47 47 45 45 45 44 42 42 41 40 37 35 32 31 30 31 33 34 34 36 36 37 35 36 37 38 38 39 39 39 40 41 42 44 47 49 52 54 56 58 61 64
53 49 47 45 46 45 43 42 41 40 39 37 35 35 33 33 34 35 36 37 37 37 37 36 38 38 39 39 41 41 42 43 45 46 48 49 51 54 56 58 60 62 66
54 50 48 46 47 46 45 44 42 39 38 38 36 35 33 34 34 36 38 38 37 38 37 38 39 39 40 41 42 44 45 47 48 49 50 52 53 56 58 59 62 65 68
56 54 52 48 47 46 44 42 43 39 39 39 38 35 34 34 36 37 38 38 39 39 39 39 39 41 42 43 44 46 48 49 51 52 54 54 55 57 59 61 64 66 70
62 58 54 51 50 48 46 43 43 42 41 39 39 36 35 37 38 38 39 39 40 41 41 42 41 43 44 44 46 48 51 52 54 56 57 58 59 61 61 64 67 70 72
65 60 59 55 53 52 49 46 46 45 44 42 41 40 37 35 37 38 39 41 42 43 43 43 43 44 45 47 48 51 52 55 57 58 60 61 62 64 66 67 70 73 72
72 70 64 60 57 55 54 52 49 47 44 44 42 43 42 39 39 41 42 42 43 43 43 43 45 46 48 50 52 54 56 59 60 61 62 64 65 67 70 71 73 73 74
75 72 69 65 60 56 55 54 51 49 46 45 45 44 46 45 44 44 45 46 46 45 45 46 48 50 51 53 55 57 59 61 61 62 65 67 68 69 71 74 75 74 75
77 74 71 67 65 60 57 55 52 52 51 50 48 48 47 50 49 49 48 48 48 48 50 51 53 54 56 57 58 60 63 64 63 66 68 70 71 72 74 74 74 75 75
81 78 75 72 67 65 61 59 57 56 56 54 54 52 51 49 52 53 52 53 54 53 54 55 56 57 58 61 62 62 66 64 66 69 72 74 75 75 75 75 75 75 79
82 81 77 74 70 67 64 62 60 58 59 58 57 57 56 54 53 54 56 57 57 58 58 59 59 61 62 63 65 66 67 67 70 73 76 78 78 77 77 78 77 80 83
86 85 82 79 76 71 68 67 65 62 62 62 61 59 60 61 60 59 58 59 60 61 62 63 63 65 66 67 68 68 69 71 74 78 79 78 80 80 80 79 82 82 86
93 89 86 83 80 75 72 73 71 72 69 65 64 63 63 64 67 66 64 63 64 65 65 66 67 68 70 70 69 72 72 74 78 80 79 79 80 81 82 83 82 87 91
98 95 91 88 84 80 74 75 75 76 76 75 75 72 69 69 70 71 69 68 69 69 70 70 70 72 71 72 72 73 75 79 80 80 81 80 81 82 84 86 90 93 97
101 97 94 90 85 81 79 73 70 74 79 80 79 78 76 75 72 72 73 72 70 72 73 73 73 74 74 74 74 76 75 78 80 78 83 83 84 87 89 91 96 99 103
106 103 98 93 90 86 82 79 75 71 74 76 78 77 78 77 77 75 73 71 72 73 74 73 71 70 72 74 75 77 76 78 80 82 85 92 93 95 97 100 102 105 108
105 104 103 100 96 92 88 86 86 82 75 73 75 77 79 80 81 80 79 76 74 73 71 71 71 71 72 73 77 80 81 82 85 87 92 95 97 100 102 105 107 111 113
103 103 103 103 103 101 98 93 91 89 90 85 78 74 75 81 82 82 81 78 76 73 74 77 77 77 79 82 82 85 87 89 93 95 95 96 100 104 108 110 115 116 118
102 102 103 103 104 104 103 100 98 97 94 90 84 80 77 77 80 83 84 84 83 84 86 86 87 88 88 87 87 90 92 94 97 98 101 103 104 107 111 114 116 118 119

GFSSE_250_spd_066.txt.gz
Wind_Speed
43 39 39 40 40 39 37 36 38 37 37 37 37 36 36 36 35 34 32 32 32 32 30 28 28 27 27 27 28 28 28 29 28 28 29 30 31 33 35 37 39 42 46
43 40 38 39 40 39 39 38 37 37 38 38 37 37 34 33 31 31 31 31 31 32 29 29 29 28 28 28 29 29 29 30 30 31 32 33 34 35 37 40 42 45 47
45 43 42 39 40 40 40 40 38 37 37 37 36 36 34 34 32 32 31 29 30 29 28 29 28 29 30 30 31 31 31 32 33 34 34 35 36 37 40 42 44 47 49
45 45 44 42 40 39 40 37 38 39 37 36 35 36 34 32 32 33 31 29 28 30 30 31 31 32 33 33 33 33 33 35 36 37 37 37 37 39 42 45 47 49 51
48 46 47 44 41 38 38 37 36 37 37 36 36 35 33 33 32 34 31 29 29 31 31 31 32 34 35 34 35 35 35 37 37 38 38 38 39 41 44 47 50 51 53
52 49 48 46 43 38 38 37 38 37 37 38 37 36 34 32 34 32 31 30 31 31 32 33 35 35 36 37 36 35 37 38 38 39 40 40 41 44 46 49 51 52 54
54 50 47 46 44 40 39 39 39 39 39 39 39 38 36 33 31 29 29 30 31 32 33 34 36 36 38 39 37 37 39 40 41 41 43 44 45 47 48 52 53 54 56
52 49 47 45 43 43 42 41 41 40 38 38 39 37 36 34 32 30 30 29 32 34 34 36 37 38 39 40 39 39 41 42 43 44 45 47 49 50 51 53 54 56 58
53 51 50 47 43 44 44 44 43 41 39 38 37 36 34 34 34 33 32 31 33 35 36 38 39 39 40 40 40 41 42 43 44 46 48 50 52 52 53 56 56 58 60
58 55 53 50 46 43 43 44 42 41 40 37 36 36 35 35 35 34 33 33 34 36 39 39 40 40 41 41 41 41 44 45 47 48 49 51 53 55 57 58 59 61 62
62 58 54 49 46 47 45 45 43 41 41 39 37 36 34 37 36 35 34 33 35 37 39 39 40 40 42 42 43 43 45 46 48 50 52 53 55 57 56 60 62 62 63
65 62 58 52 49 49 46 45 43 43 41 38 37 37 37 37 38 37 37 36 37 38 39 40 41 42 43 44 44 46 46 48 50 53 54 57 59 58 60 61 62 64 65
68 67 61 58 51 49 50 49 46 45 44 41 39 39 39 38 39 40 39 37 37 39 40 41 43 45 45 46 46 47 48 49 52 55 57 59 60 60 63 64 66 67 69
70 68 67 63 59 56 55 53 51 49 48 46 43 42 41 40 39 41 42 41 39 39 41 43 44 46 46 47 48 49 51 53 56 59 61 62 63 63 65 66 67 70 71
74 73 70 69 64 60 59 55 53 52 52 51 49 46 45 42 41 40 43 45 45 44 44 45 47 48 49 50 52 54 55 57 60 62 64 65 64 65 67 69 72 73 72
80 79 75 71 69 64 65 63 61 58 56 54 52 50 48 45 44 44 44 45 48 50 51 52 53 54 54 56 56 58 60 61 63 65 65 65 66 67 69 71 74 75 75
84 82 79 76 73 71 69 69 65 63 60 56 53 52 51 49 49 50 48 48 49 50 53 56 57 58 59 60 61 62 64 65 67 67 67 67 69 71 72 74 75 76 76
85 81 80 78 76 74 71 71 68 66 63 61 59 56 53 52 54 53 52 52 54 55 55 56 58 60 61 62 63 64 66 68 69 69 69 71 72 74 76 76 77 76 77
88 86 82 80 79 79 73 72 70 69 66 65 62 57 56 57 58 57 57 56 57 60 61 61 62 64 65 65 66 68 69 70 71 72 73 73 74 74 77 78 78 80 81
93 93 88 84 82 79 78 76 76 73 70 67 64 61 62 61 61 62 64 63 64 65 65 67 67 68 69 70 71 71 71 72 74 74 74 76 74 75 77 79 82 84 88
96 93 92 89 86 84 80 80 77 76 73 70 70 71 73 74 74 72 72 69 65 66 68 70 71 71 72 73 72 72 71 69 71 71 75 76 77 79 83 84 85 89 92
101 99 93 93 92 88 84 83 83 78 76 76 74 73 75 73 73 71 70 71 73 73 70 71 72 73 73 72 71 72 74 74 73 71 76 82 84 85 87 91 91 94 96
104 102 98 99 93 92 92 90 85 83 82 80 76 73 72 73 74 74 75 73 74 75 75 76 78 78 74 75 76 76 75 74 76 79 82 87 90 91 93 95 99 100 102
107 106 104 102 102 98 93 91 91 92 88 85 81 78 74 75 75 72 73 74 75 75 77 79 79 79 77 78 77 80 81 80 81 83 88 90 92 96 98 102 104 105 107
109 109 108 107 106 103 97 84 90 91 90 89 89 87 86 80 79 76 73 72 75 76 78 82 84 83 84 84 85 85 86 86 89 90 91 94 96 98 101 102 110 110 111
105 106 108 107 108 107 105 105 103 101 97 96 94 92 90 89 85 81 78 78 78 79 78 80 80 82 84 85 86 88 92 94 95 97 95 97 99 100 104 107 112 115 115

GFSSE_250_spd_069.txt.gz
Wind_Speed
43 41 38 35 36 38 36 37 36 34 34 33 33 33 33 34 34 33 32 33 32 31 31 30 30 30 28 29 30 29 30 30 31 32 32 33 35 37 38 37 38 39 43
46 44 42 37 36 35 36 37 37 35 34 32 32 34 34 34 35 35 34 31 30 31 30 30 30 29 29 30 30 31 32 32 32 34 34 35 37 39 40 40 40 42 44
45 45 44 40 37 34 34 36 37 37 34 33 33 33 33 32 33 33 33 33 31 30 30 30 28 29 30 31 32 33 34 35 34 35 36 38 40 39 40 42 42 45 47
49 47 45 42 39 37 34 35 37 38 36 35 34 33 32 32 33 31 30 30 31 31 31 30 29 31 31 33 34 36 36 36 37 36 37 38 40 41 42 43 46 48 50
52 50 47 44 41 39 38 36 36 37 38 36 34 32 32 32 32 31 29 31 30 31 30 30 30 31 32 34 35 37 38 38 39 37 38 40 42 43 44 46 48 50 52
53 49 49 46 43 42 40 38 36 36 37 37 34 33 32 33 34 34 32 31 31 30 30 31 31 32 32 35 36 38 39 39 39 39 41 41 44 45 47 49 51 52 53
56 54 51 48 45 42 42 40 37 35 37 36 34 34 34 33 34 33 32 32 30 30 30 31 32 33 34 36 37 39 40 41 40 42 43 43 45 47 49 51 52 53 54
60 56 57 54 49 45 42 42 39 37 36 36 35 35 34 33 33 33 32 32 33 32 31 31 33 34 35 37 39 40 41 42 42 43 43 45 47 49 51 53 53 56 57
57 59 58 56 53 47 44 43 42 39 39 38 36 37 36 32 32 32 32 33 34 34 33 32 32 35 37 39 40 41 42 43 43 44 45 47 49 50 52 54 56 58 58
57 58 56 57 54 48 45 43 42 41 40 40 38 38 36 34 32 31 32 34 35 35 34 33 33 35 38 39 40 42 42 44 45 47 47 48 49 52 55 57 58 59 61
63 60 59 56 54 49 47 45 43 41 41 40 39 38 36 36 34 33 31 34 35 35 34 33 35 37 38 39 40 42 44 46 47 48 48 50 51 54 57 60 61 63 65
65 66 62 59 56 52 50 48 46 44 43 41 40 39 37 37 35 33 33 32 36 37 38 38 37 38 39 40 42 44 47 48 49 49 51 53 54 58 61 62 64 65 66
64 67 65 62 58 54 51 49 46 46 44 43 41 39 39 39 37 35 36 35 34 36 39 39 39 38 40 42 44 47 49 51 52 52 54 56 58 61 63 64 65 65 66
74 69 66 61 59 59 57 52 50 49 46 45 44 44 43 42 42 41 40 39 38 36 37 39 40 41 43 45 48 50 51 52 54 57 59 61 64 65 67 65 65 67 69
65 65 73 68 69 66 62 58 57 53 48 48 47 48 47 45 47 47 45 45 43 40 39 40 42 43 46 49 51 53 55 57 59 61 63 65 66 66 66 68 68 70 71
72 70 61 72 72 69 67 64 61 59 57 55 52 50 48 49 51 52 51 50 47 45 44 44 44 44 46 49 52 54 55 58 60 62 63 66 68 67 68 69 70 73 75
76 69 69 71 68 70 69 67 65 64 63 61 58 55 56 56 55 56 56 54 52 50 49 48 48 47 49 51 54 56 58 62 63 64 66 69 69 69 70 71 72 73 72
78 83 78 74 74 74 71 67 69 67 65 65 62 61 60 60 59 58 57 56 56 55 53 52 53 54 55 56 57 59 64 64 66 67 69 72 70 70 74 73 71 72 76
80 85 84 82 81 81 78 76 75 74 72 68 68 67 65 64 62 60 60 61 61 60 59 57 58 59 62 62 63 65 67 68 69 68 69 69 71 72 74 75 75 81 81
87 82 87 87 84 84 83 82 80 78 74 72 69 68 69 66 65 66 65 60 61 63 64 62 63 68 68 67 65 67 68 67 66 72 75 75 75 73 74 75 80 82 86
93 87 79 78 82 86 84 85 82 79 77 75 72 71 71 70 68 70 71 70 69 69 67 68 69 67 69 69 71 68 69 73 76 75 76 78 78 75 78 80 80 85 89
101 95 87 86 80 80 79 76 76 78 80 79 77 74 72 73 72 72 71 69 70 71 72 72 70 73 71 72 70 72 72 76 77 78 77 79 80 81 82 84 87 91 94
105 102 99 95 90 84 82 78 79 80 80 80 74 75 76 76 74 75 76 76 75 73 72 73 74 75 76 75 72 73 72 74 77 79 79 82 83 86 87 88 92 96 97
107 106 104 103 98 93 89 79 74 78 86 86 83 80 83 82 78 79 79 81 82 80 79 79 79 80 77 75 75 76 78 77 79 79 79 83 85 86 89 90 95 98 99
109 109 109 107 103 101 98 93 80 75 79 76 78 80 85 88 88 89 89 89 87 87 86 85 81 81 80 78 77 79 80 81 81 82 81 85 87 89 90 94 98 99 101
106 108 110 110 109 104 94 99 91 97 87 85 83 84 85 88 92 93 93 91 91 87 86 85 85 86 84 83 82 83 82 82 82 82 85 87 91 94 95 99 101 104 107

GFSSE_250_spd_072.txt.gz
Wind_Speed
42 44 41 38 37 35 33 34 33 34 34 33 33 31 31 31 32 33 32 33 33 31 31 30 30 29 29 30 30 30 31 32 33 34 34 33 34 36 37 39 39 40 41
48 46 44 40 38 36 33 33 35 34 33 34 34 34 30 29 30 30 32 32 32 32 32 31 30 29 29 30 30 31 32 33 35 36 36 36 36 37 38 40 41 42 43
48 50 47 43 41 39 37 34 34 35 35 35 34 35 32 31 29 28 29 30 29 29 29 30 31 30 30 30 31 33 33 34 36 37 38 38 37 38 40 42 43 44 46
51 46 45 41 43 42 40 37 34 34 34 34 35 36 34 33 30 28 27 29 28 28 29 30 31 31 31 31 32 33 34 35 37 38 39 39 39 41 41 44 45 46 48
51 49 49 45 43 44 43 40 36 33 32 32 34 37 34 33 30 29 29 29 30 30 30 29 30 31 31 31 31 32 34 36 37 39 40 40 42 42 42 44 46 48 49
53 54 53 49 47 45 44 43 41 36 34 33 33 35 35 32 31 31 31 29 29 29 29 29 30 30 32 32 31 33 35 36 38 38 40 41 43 44 44 46 49 50 51
57 53 52 53 49 49 47 46 44 40 37 36 34 34 34 32 31 31 31 30 29 29 29 31 32 32 31 31 32 33 36 37 39 40 40 42 44 45 47 49 51 52 53
59 59 57 52 50 50 49 48 44 39 38 38 36 34 34 33 31 31 31 29 29 29 30 31 32 34 32 31 33 34 37 39 40 41 43 44 45 47 49 51 52 54 56
57 56 56 55 55 52 50 49 47 44 40 40 39 37 36 34 32 32 31 30 29 29 30 32 33 33 33 32 34 36 38 40 40 41 43 45 47 49 51 53 54 56 59
59 58 57 56 56 56 55 54 52 52 48 43 42 40 38 37 34 34 32 32 30 29 29 32 32 33 34 33 35 37 39 39 42 43 45 48 50 52 54 56 57 60 63
63 60 55 53 57 57 57 56 54 51 48 45 43 42 40 39 36 35 34 34 33 29 28 30 32 35 36 36 36 36 38 39 42 44 47 49 52 53 56 59 61 64 65
64 63 61 60 56 55 55 52 53 53 48 45 44 41 39 40 38 35 35 34 34 31 31 31 33 35 36 37 38 38 39 41 43 46 48 51 53 55 58 60 62 63 64
51 64 70 66 63 60 56 55 53 54 51 47 46 44 42 41 40 36 36 36 36 36 35 35 34 35 36 38 39 40 41 42 44 48 51 53 55 57 59 61 63 65 65
70 57 55 66 66 63 58 56 55 55 54 52 48 44 44 42 40 40 40 41 41 40 41 41 40 39 38 39 40 41 43 45 46 50 51 53 57 61 61 64 66 67 69
76 66 60 61 62 62 65 63 62 59 56 54 51 46 45 46 44 45 45 45 46 45 47 47 46 45 43 41 42 43 44 47 48 51 53 55 59 60 64 66 68 71 70
79 73 72 61 63 61 63 65 62 60 59 58 57 52 50 48 46 47 48 47 48 51 51 51 51 50 49 47 48 49 49 50 53 56 58 60 62 62 66 67 69 72 75
84 79 73 78 69 73 72 72 66 62 62 61 60 57 56 56 54 55 54 54 55 56 56 56 56 54 52 51 52 53 54 55 59 60 64 65 65 67 66 67 75 74 76
89 88 86 82 78 76 73 61 66 68 66 66 66 63 62 61 60 61 60 58 59 59 60 58 56 57 57 57 57 59 58 61 63 65 67 66 67 66 69 76 78 76 76
69 85 90 82 82 77 68 65 59 68 70 70 69 69 67 64 64 64 64 63 65 64 62 61 60 60 61 62 62 65 65 64 63 67 68 68 67 72 76 77 80 80 78
84 81 78 80 78 85 76 77 71 68 71 71 69 69 66 66 68 69 69 69 67 67 67 65 64 64 66 65 64 64 63 66 69 68 70 71 73 75 76 77 79 80 82
83 80 81 70 76 87 83 77 77 76 74 72 73 76 76 75 74 73 71 69 68 67 68 70 69 66 66 67 68 70 73 72 73 73 76 78 78 77 77 80 79 82 84
88 94 86 87 80 77 78 82 82 81 81 81 81 82 82 80 79 78 74 71 72 71 70 72 72 73 69 68 70 72 74 78 79 82 84 79 77 78 76 78 84 85 84
99 95 98 91 91 87 82 82 78 79 75 74 79 77 75 75 73 69 70 76 73 73 75 76 77 78 79 79 77 79 83 85 86 81 79 81 82 80 84 81 84 87 85
108 108 103 103 100 85 80 82 83 78 78 79 78 77 73 76 76 76 80 82 82 84 84 86 85 84 87 87 88 88 83 81 82 79 87 85 84 84 82 85 85 89 87
111 109 105 101 100 99 98 82 84 85 85 85 82 81 83 72 74 76 72 78 83 86 85 86 86 84 85 83 88 90 90 83 83 82 79 84 85 85 85 86 86 89 94
114 114 110 107 101 101 99 86 91 90 90 89 92 90 86 85 84 83 88 90 89 91 89 89 90 90 91 88 88 86 87 88 87 86 85 86 89 90 89 93 97 100 99

GFSSE_250_spd_075.txt.gz
Wind_Speed
43 43 41 40 40 37 35 33 31 30 31 31 30 30 31 31 31 31 30 29 28 28 28 29 30 28 29 29 29 30 30 30 32 33 33 33 34 36 37 36 38 39 40
48 46 45 41 41 39 38 36 34 31 32 33 32 30 31 31 31 29 28 27 27 26 26 26 27 28 29 28 29 30 30 31 33 32 33 34 34 36 37 38 39 39 41
50 47 46 45 42 41 41 38 35 34 33 34 34 32 32 31 31 31 30 29 27 26 25 25 27 27 28 29 30 29 30 30 32 33 33 34 35 37 37 39 40 41 43
52 49 48 47 46 46 42 39 38 37 36 34 34 35 34 33 32 31 31 29 28 28 27 27 27 27 27 29 29 30 30 29 31 32 33 34 35 37 38 40 41 43 45
53 51 48 47 46 44 45 41 41 41 39 35 33 33 33 33 33 32 31 29 28 28 27 27 27 27 27 27 28 30 31 30 31 32 33 35 36 37 40 42 44 46 48
56 52 51 51 50 46 43 40 39 40 40 38 35 34 33 33 32 31 30 29 29 28 29 26 27 27 28 30 29 29 28 29 31 34 35 36 36 37 40 42 44 47 49
56 55 53 53 51 48 47 45 44 43 42 40 38 37 35 34 34 31 30 28 29 28 28 27 27 28 29 29 30 30 28 29 32 34 36 36 37 39 42 44 46 49 49
55 58 57 54 54 51 52 51 49 45 45 44 40 39 37 36 36 32 30 30 29 28 27 27 28 28 29 30 31 32 30 30 32 34 35 36 38 41 44 46 49 50 53
53 56 59 59 56 56 53 50 50 49 47 46 43 38 39 36 37 36 32 31 31 29 30 29 27 27 28 30 30 32 32 32 33 34 35 36 38 42 44 46 48 52 53
53 48 63 67 62 59 59 57 53 49 49 47 44 44 43 43 41 40 37 34 33 31 31 31 28 27 27 29 31 32 34 35 34 34 34 36 39 42 44 47 50 53 55
58 54 47 55 56 59 57 57 56 53 53 51 50 50 47 45 43 42 39 36 35 33 32 30 29 30 29 29 31 33 35 38 39 38 37 37 39 46 49 50 53 54 54
53 52 53 57 57 56 54 55 56 53 54 54 53 51 48 47 43 40 38 36 36 34 33 31 31 31 31 32 33 33 35 36 36 37 39 41 42 45 48 50 55 58 58
49 56 61 61 63 59 54 55 54 55 56 53 52 49 48 47 44 40 40 39 36 35 36 35 35 36 36 37 37 38 38 37 38 40 41 42 45 50 51 54 59 59 63
67 62 52 48 56 60 59 60 60 56 53 52 50 48 48 48 45 44 43 42 39 37 38 39 39 40 42 44 44 43 44 45 43 44 45 47 50 53 55 59 64 64 67
69 74 72 56 53 53 52 54 59 62 57 54 52 50 49 49 49 46 45 45 44 43 42 41 42 43 46 48 50 50 50 50 50 49 50 52 54 56 56 62 66 66 69
85 80 75 68 60 41 47 45 52 59 60 58 56 55 55 53 53 50 49 47 47 47 46 47 48 49 52 52 53 55 53 52 53 55 56 58 59 57 60 62 64 69 73
87 86 81 81 80 74 62 53 54 54 53 56 59 60 55 55 55 55 56 54 52 55 52 53 53 54 54 55 55 56 56 58 59 61 61 61 61 63 63 67 68 72 75
85 87 88 88 83 81 73 72 59 56 54 52 56 57 58 59 58 58 58 59 59 58 60 60 57 56 58 59 59 59 57 59 61 61 60 58 63 65 69 72 73 80 80
88 80 85 87 87 85 88 83 79 67 50 52 58 59 60 63 64 65 67 64 64 64 65 63 61 61 62 62 61 62 63 64 64 65 67 68 70 72 73 79 80 80 83
99 81 81 80 80 76 70 78 79 65 77 73 73 69 61 59 67 65 66 68 68 67 66 66 66 67 64 62 61 65 67 69 68 69 69 70 71 73 80 80 83 84 80
97 80 85 81 81 81 81 70 76 78 71 72 62 64 69 69 67 68 67 70 72 72 74 73 72 72 70 67 65 66 68 70 72 73 75 79 79 80 82 85 86 81 84
88 72 79 86 90 94 77 88 88 86 79 77 72 73 77 70 70 72 76 77 80 79 78 79 77 72 69 71 66 70 76 77 76 78 80 81 83 84 83 81 84 87 83
96 91 76 85 90 90 89 86 94 92 93 83 74 75 80 79 79 76 79 80 77 79 80 74 75 72 70 77 77 75 76 82 84 86 85 85 85 85 84 86 85 86 85
103 99 96 86 83 91 75 74 72 76 79 77 77 70 75 81 80 80 78 79 79 80 81 82 84 84 81 80 83 83 85 84 83 84 85 89 84 87 85 87 84 86 93
99 101 102 96 94 87 88 73 83 73 75 75 76 74 73 80 82 83 81 83 88 87 90 91 91 90 90 86 85 86 81 80 83 82 82 86 85 83 87 89 95 96 98
123 103 90 94 90 87 93 87 87 88 89 89 88 86 85 81 80 77 77 80 80 81 87 90 91 90 85 83 86 88 89 83 88 88 88 89 91 94 92 89 98 100 106

GFSSE_250_spd_078.txt.gz
Wind_Speed
47 44 42 41 38 37 35 34 31 30 29 28 27 28 28 28 28 28 28 28 28 26 26 26 25 24 23 25 26 26 28 28 26 27 27 27 28 28 28 30 31 31 34
50 49 47 44 42 40 37 36 35 32 31 30 30 28 30 30 29 28 28 27 27 27 27 27 28 25 25 25 25 25 27 28 27 26 26 27 27 27 28 30 32 34 35
53 51 49 47 45 43 40 35 36 36 33 32 30 30 31 32 30 28 28 26 26 27 27 29 29 27 26 24 23 23 25 26 26 25 25 25 27 28 28 29 31 34 35
55 53 51 50 48 45 43 40 37 36 35 33 33 33 32 32 31 31 30 29 28 28 28 28 28 28 26 25 23 24 25 25 25 23 24 24 26 28 29 30 32 33 36
57 55 53 51 51 46 43 42 41 40 37 36 36 36 34 31 29 28 28 29 30 29 28 27 27 26 25 25 25 26 26 27 25 23 23 25 26 27 29 30 31 34 35
62 59 56 53 53 49 46 43 42 41 39 36 34 35 34 33 31 29 29 29 29 28 28 27 26 25 25 24 25 26 27 28 26 24 24 25 26 27 29 31 32 32 36
65 62 58 57 54 52 48 46 43 42 40 37 36 36 36 34 34 34 32 31 29 28 28 27 26 26 26 25 24 25 26 27 27 25 25 27 27 28 29 32 35 36 39
68 64 61 58 56 55 50 49 48 45 43 43 41 41 38 36 34 33 33 31 30 30 29 28 26 27 27 26 24 24 26 27 28 28 28 29 29 29 29 32 36 38 41
65 67 64 61 58 58 54 51 51 48 47 48 46 45 43 39 36 34 33 33 35 34 32 30 29 27 27 27 27 25 24 25 28 30 31 32 32 31 33 37 41 38 44
63 64 65 61 59 60 57 55 52 52 51 47 46 46 46 42 39 39 38 39 36 38 35 32 31 30 29 26 26 25 26 27 28 30 30 31 32 36 37 39 42 44 46
59 58 60 63 58 59 58 58 57 55 54 55 53 50 47 45 43 42 42 41 38 36 36 33 32 31 30 28 26 28 30 31 32 32 33 35 37 38 40 43 45 48 47
59 64 61 58 58 53 54 56 56 56 58 57 56 53 52 49 46 45 43 43 40 36 31 32 33 31 31 31 31 31 33 36 36 37 39 40 41 42 44 47 49 51 53
76 55 51 51 55 47 46 47 52 54 53 55 52 51 50 48 48 47 44 42 41 38 36 36 36 35 34 34 34 35 36 39 42 43 44 46 46 46 48 52 54 55 57
81 75 68 58 64 62 58 49 53 52 51 52 51 50 50 50 47 44 43 40 41 42 40 38 38 38 38 38 38 40 43 46 45 47 50 49 49 52 55 58 59 56 58
77 74 74 65 69 62 55 53 50 48 47 52 53 52 49 46 47 47 46 44 42 46 44 43 42 42 43 42 43 44 47 48 46 49 50 49 51 54 56 56 55 59 63
80 71 67 63 55 46 44 49 47 48 49 50 55 56 57 52 49 49 48 47 48 48 48 47 48 47 46 48 49 50 49 48 49 50 50 52 54 57 54 56 61 65 69
83 72 67 76 73 55 57 61 50 52 57 58 54 50 55 55 52 51 51 55 51 49 51 52 52 53 53 54 56 57 55 52 52 52 53 57 59 61 64 61 64 70 73
76 72 71 66 71 71 66 62 58 52 49 51 45 43 47 50 51 54 52 51 53 53 54 55 57 58 61 60 59 58 58 57 56 56 57 58 59 62 63 66 68 72 74
75 79 75 74 68 67 69 68 65 62 66 66 66 60 50 55 50 50 53 54 53 57 60 59 61 61 62 62 61 62 62 61 59 61 60 63 66 67 66 70 71 73 77
90 82 83 83 75 69 73 76 76 83 79 75 78 76 66 59 54 58 58 60 62 60 57 62 65 65 64 64 65 70 69 68 64 62 67 69 72 72 71 76 77 79 78
95 95 77 72 84 80 75 78 78 86 83 68 65 84 80 76 77 71 69 66 65 65 67 64 65 68 70 69 70 72 72 73 74 71 78 78 72 72 77 77 75 76 75
95 90 95 82 84 80 66 66 74 78 91 92 79 70 68 73 75 79 66 69 73 70 72 71 75 76 75 75 77 76 77 78 76 79 76 74 76 75 77 80 77 78 80
109 112 103 89 80 87 79 66 65 69 78 86 85 74 79 67 72 70 73 77 80 84 85 81 81 79 82 84 80 80 76 77 77 76 76 79 78 78 81 81 81 81 84
99 90 99 100 94 84 80 66 64 69 63 64 66 71 77 80 79 79 81 84 84 85 85 86 89 88 86 85 85 82 83 81 85 84 86 87 87 84 89 90 86 91 89
102 102 91 92 96 95 92 84 76 73 77 70 71 74 79 83 81 86 86 86 92 97 90 92 94 91 94 95 94 91 92 89 90 86 85 89 87 88 87 88 87 91 100
109 112 107 101 94 98 101 96 87 89 83 82 84 88 87 85 84 83 86 87 86 73 89 92 91 96 99 98 97 94 91 91 94 90 85 83 92 94 93 103 102 102 103

GFSSE_250_spd_081.txt.gz
Wind_Speed
45 43 44 41 41 39 36 33 31 30 27 24 24 25 23 23 25 26 25 26 25 25 25 24 25 25 28 27 26 25 21 21 22 23 21 20 20 19 20 19 21 22 24
49 46 46 46 44 42 39 37 33 31 31 30 27 25 25 25 24 25 27 25 23 24 24 24 25 27 29 27 26 24 21 20 21 22 21 20 20 18 19 20 21 23 23
53 51 49 48 47 44 41 38 36 34 30 30 29 27 27 27 26 26 27 26 25 25 25 25 25 27 28 27 25 23 22 21 22 23 19 18 17 17 18 19 20 22 23
57 56 52 49 49 48 45 41 41 37 34 30 30 29 29 29 28 28 27 26 25 25 26 27 27 27 27 26 25 23 21 21 21 22 18 16 16 17 18 19 20 21 23
61 59 57 52 50 49 48 45 42 39 37 36 33 31 29 31 31 28 27 24 23 25 24 26 25 26 25 23 25 25 21 21 21 21 19 17 17 19 19 21 23 25 28
66 64 61 57 52 50 50 47 45 41 40 38 36 33 32 33 30 28 28 28 28 26 25 25 25 25 25 24 25 25 23 21 20 22 21 20 20 19 19 19 20 29 32
78 70 65 61 57 53 52 51 47 46 44 41 37 34 32 32 32 31 30 30 29 26 25 24 26 26 25 26 25 25 25 24 22 21 20 20 21 22 24 25 28 31 33
76 76 71 65 62 56 55 52 48 48 47 44 39 36 35 35 36 35 34 33 31 28 27 28 29 29 26 27 26 25 23 23 22 23 23 23 23 23 24 28 30 34 36
71 69 78 72 66 61 58 55 53 50 48 45 43 40 38 40 41 39 37 36 32 31 32 34 31 31 30 28 28 26 23 20 21 22 23 25 25 26 30 31 33 35 40
79 65 67 72 70 65 61 58 54 53 51 49 46 44 43 42 40 39 39 37 36 36 36 34 34 31 31 30 27 25 24 25 25 25 27 29 31 33 35 37 39 40 43
81 75 68 66 68 70 65 62 57 54 54 53 49 47 46 45 44 44 41 38 40 39 38 37 36 33 31 30 28 27 27 27 28 29 31 34 35 36 38 39 40 43 46
77 78 67 64 67 66 68 65 59 57 57 55 52 52 52 48 50 49 47 47 42 42 41 40 37 34 34 33 33 32 31 31 32 34 37 40 39 40 41 40 43 46 48
75 75 60 67 66 67 63 64 60 57 55 58 57 51 48 51 51 50 46 45 43 42 42 37 35 35 36 35 33 35 35 35 35 38 41 41 42 42 43 44 45 49 52
87 80 56 69 65 58 57 60 61 57 53 53 58 56 53 50 48 45 44 44 45 41 39 38 37 40 39 37 38 39 39 39 40 42 42 44 44 43 44 50 52 54 55
91 82 78 71 73 62 58 56 58 59 52 46 52 48 47 47 44 43 38 38 39 41 41 41 40 40 42 42 42 41 44 43 44 47 49 48 49 46 51 53 55 57 58
92 84 79 74 79 64 59 58 51 52 53 54 53 44 44 46 48 50 48 47 47 46 45 46 44 46 47 44 46 47 48 49 50 52 51 50 52 52 50 55 58 60 64
96 84 90 70 79 70 53 53 55 57 59 57 63 43 48 52 53 51 51 53 53 51 50 49 51 52 50 48 49 50 52 53 55 54 53 52 53 54 56 59 64 67 67
87 90 89 85 80 72 76 75 66 65 60 52 52 52 54 55 50 49 46 41 48 51 52 53 54 51 47 51 53 56 56 56 56 58 59 60 58 58 59 66 65 68 63
89 92 89 86 87 84 76 73 66 60 52 56 56 54 55 55 48 40 36 39 47 49 50 51 52 52 53 52 53 55 56 59 60 61 63 65 63 64 67 66 65 63 65
87 85 88 78 85 76 68 72 67 59 61 60 64 67 60 55 48 52 58 56 54 56 56 56 58 64 59 55 58 60 61 64 66 68 69 65 66 68 70 69 69 72 77
84 86 89 77 72 73 72 71 71 78 76 70 69 69 68 64 62 67 73 77 73 72 75 72 78 75 75 68 70 68 72 70 71 71 69 69 69 68 73 72 75 79 81
71 69 81 80 80 76 74 70 75 74 72 79 77 76 73 73 72 71 77 84 84 86 84 83 81 84 72 74 74 74 77 78 76 74 72 73 73 74 78 81 83 83 84
77 84 79 74 72 80 79 81 75 78 75 78 76 77 76 74 69 71 70 71 78 81 80 80 79 80 82 79 80 82 85 85 79 76 76 75 79 84 86 82 85 82 87
96 99 94 84 85 81 75 78 75 74 74 79 80 79 73 71 73 69 69 75 76 72 73 78 79 81 85 88 92 93 88 86 82 85 85 86 94 89 87 87 85 83 89
103 101 94 94 89 80 75 77 81 83 79 73 77 69 60 68 73 78 77 82 85 88 78 85 86 89 89 95 97 92 82 76 85 85 89 97 99 87 88 90 96 94 101
106 105 98 102 95 94 85 78 81 82 78 73 68 71 78 73 68 62 63 72 80 82 85 86 88 92 91 99 98 92 88 89 88 90 92 100 98 94 93 98 101 102 104

GFSSE_250_spd_084.txt.gz
Wind_Speed
50 46 42 40 40 38 37 35 31 29 28 26 23 19 20 21 18 18 20 21 23 24 23 22 23 24 24 25 27 28 27 23 19 19 20 18 16 15 15 15 15 17 15
52 50 47 44 43 42 41 39 36 33 30 28 26 25 22 20 20 20 20 21 22 24 23 23 24 25 25 26 28 28 25 22 19 18 20 17 14 13 14 16 15 15 16
57 54 53 49 46 43 43 42 40 38 34 31 28 24 23 22 22 22 22 23 23 22 22 22 24 25 25 26 27 25 24 24 19 19 19 18 14 13 14 15 14 16 16
64 58 57 53 49 46 44 44 43 40 37 34 31 26 24 25 25 24 24 23 22 21 19 20 22 23 23 24 25 23 25 24 21 18 18 18 16 14 15 15 15 13 20
66 62 60 56 52 50 47 46 46 44 42 37 35 31 28 27 28 26 25 24 22 23 22 23 22 22 21 22 23 23 24 24 22 21 19 17 18 17 16 15 15 18 24
71 67 64 61 56 54 51 47 46 46 45 41 37 35 34 31 30 29 28 25 24 25 25 24 22 20 22 23 22 24 23 24 22 21 20 19 17 18 17 19 20 23 26
73 68 67 65 61 57 55 51 47 47 47 45 42 38 36 34 31 28 27 27 27 27 27 24 24 25 24 26 25 25 25 25 22 19 17 17 18 20 21 22 25 28 31
75 72 69 68 66 62 59 55 53 50 50 48 45 42 40 38 33 32 32 30 31 31 29 29 27 29 30 27 28 27 27 25 23 19 19 18 20 22 24 27 31 33 35
69 68 71 69 68 66 62 61 58 55 52 51 47 44 42 40 38 34 35 35 34 34 33 31 31 32 32 31 29 28 28 26 23 23 23 23 25 26 29 30 32 33 33
62 73 69 70 72 74 73 69 63 59 56 54 51 47 44 43 42 40 39 39 35 33 33 32 33 34 34 35 32 31 29 27 27 26 26 27 29 32 33 33 35 36 38
47 62 59 64 66 71 73 72 70 63 61 57 54 51 49 46 45 44 43 42 39 40 38 38 35 36 34 35 32 30 30 32 31 30 30 31 32 34 33 36 38 38 41
74 67 63 65 66 68 72 69 70 64 64 62 58 53 51 48 50 48 46 47 43 44 44 44 42 39 37 34 32 31 33 33 33 34 34 34 37 38 40 42 40 45 48
73 79 67 72 72 76 67 69 71 70 66 64 61 58 54 52 49 43 40 43 45 45 46 43 41 38 38 34 33 35 34 32 35 38 36 39 41 42 46 47 47 51 49
69 74 80 80 65 79 67 65 65 64 62 65 64 60 56 55 55 54 56 53 49 48 43 42 40 40 36 35 34 35 37 39 38 36 42 42 44 47 49 49 50 48 49
78 71 69 65 60 67 76 65 62 63 62 59 60 64 59 57 55 57 58 55 50 48 44 39 38 36 37 38 38 39 41 41 40 42 42 44 46 49 51 51 52 52 55
94 73 61 65 63 64 68 69 65 63 61 63 61 61 59 55 54 57 54 50 48 45 41 42 44 42 42 42 45 46 47 46 45 44 46 51 53 54 54 58 57 57 58
100 91 68 67 63 62 68 67 62 63 57 53 53 55 55 55 48 51 49 50 50 48 50 48 48 50 50 49 48 49 50 47 47 48 51 54 56 57 59 59 60 60 62
104 107 92 81 75 67 66 71 65 62 61 59 56 54 51 51 54 51 52 56 54 51 49 48 52 52 52 51 51 52 52 50 48 48 53 56 58 60 59 61 64 67 66
106 103 102 96 88 74 75 68 68 65 66 63 59 54 55 52 58 56 57 58 57 50 50 45 42 47 50 50 49 50 52 54 58 63 66 65 65 62 62 66 65 65 65
104 106 95 101 98 84 80 76 63 69 68 62 56 51 58 63 61 58 63 60 54 55 51 48 48 48 51 50 52 56 63 65 73 76 75 67 63 66 67 68 68 66 67
108 107 105 101 99 91 85 78 72 67 71 71 63 63 64 65 65 61 62 60 56 55 58 57 63 66 69 73 75 76 76 77 77 77 74 72 68 70 71 75 72 71 75
89 98 96 101 100 88 87 74 78 77 78 74 69 70 64 64 64 59 63 67 69 73 68 72 75 76 75 77 79 81 84 83 81 78 78 74 71 74 77 77 73 81 85
87 83 76 77 74 81 87 83 80 83 85 84 82 72 71 70 66 69 66 68 74 79 82 83 83 83 85 87 89 85 86 82 84 81 80 78 78 78 75 67 71 87 81
83 80 79 82 83 79 82 82 71 76 83 83 81 81 77 78 78 81 82 82 82 83 91 89 92 89 90 87 91 85 88 87 86 84 83 81 76 70 73 78 87 97 92
91 88 85 70 80 82 83 91 90 77 69 74 77 82 85 79 81 81 79 78 82 74 68 77 76 76 78 82 80 89 94 94 93 85 87 83 82 86 88 90 94 95 96
80 83 90 90 87 94 81 81 68 70 75 79 79 81 82 86 87 87 86 78 80 83 85 82 82 84 85 84 87 86 89 100 90 93 88 88 93 96 95 93 97 101 108

GFSSE_250_spd_087.txt.gz
Wind_Speed
52 50 45 44 43 38 36 34 32 31 30 28 25 23 20 19 20 19 18 17 16 19 21 21 20 21 22 23 23 25 26 26 24 21 19 19 19 15 12 11 13 13 12
56 54 50 46 47 44 40 38 36 34 34 30 27 24 23 22 20 18 18 17 17 18 19 20 20 21 22 21 23 23 23 23 24 21 18 17 18 15 13 12 12 12 11
58 57 55 49 49 48 45 41 40 38 36 35 32 27 25 21 23 20 19 18 19 18 18 16 16 19 21 22 21 20 22 23 24 22 19 18 17 13 13 13 13 12 13
63 61 60 56 54 51 49 46 43 41 39 37 35 32 28 24 22 22 23 22 21 21 20 17 18 20 21 21 21 21 21 23 24 24 21 18 19 18 15 14 13 14 17
69 66 64 61 57 55 53 51 48 43 41 39 37 34 31 28 26 23 25 25 24 23 20 19 21 20 19 18 20 21 22 24 23 24 22 20 18 18 18 17 17 19 22
74 71 68 65 62 58 56 53 52 47 44 42 41 38 35 32 30 30 27 27 28 26 23 21 22 21 18 21 24 23 24 25 26 25 23 20 19 17 18 19 22 25 27
77 75 71 69 67 63 59 57 55 51 48 46 40 40 37 36 33 32 31 30 27 25 24 25 24 23 26 25 26 25 27 25 26 27 25 21 18 18 20 22 24 25 27
81 76 75 72 69 66 64 61 59 55 52 49 44 41 40 40 38 36 33 32 28 30 27 27 29 27 27 28 29 28 28 27 27 27 26 24 23 23 25 25 28 29 33
77 77 73 68 70 68 66 64 64 60 56 53 50 45 41 44 42 39 36 33 33 30 32 32 33 31 30 30 31 31 31 28 29 28 28 27 27 27 28 31 33 32 37
80 76 75 71 68 69 70 67 66 65 62 57 54 50 48 46 44 42 39 37 36 36 36 36 32 30 29 31 32 32 33 29 28 28 29 30 30 30 31 32 35 40 41
80 80 75 64 64 69 69 69 67 66 66 62 59 56 53 51 47 44 44 41 40 39 38 39 37 38 38 38 37 37 36 29 28 31 32 32 33 33 33 36 39 41 44
78 79 76 72 59 61 65 69 72 71 69 65 63 60 56 55 52 51 47 47 45 44 46 42 40 38 40 41 39 39 36 33 31 31 32 33 35 35 35 39 42 45 46
73 77 76 79 69 66 68 69 72 73 73 69 68 67 64 61 58 53 50 49 47 43 39 40 39 42 42 42 40 37 36 34 35 34 34 37 36 35 40 41 44 47 48
73 83 72 64 66 69 70 73 72 71 72 68 63 68 68 64 59 57 53 52 48 47 49 49 47 50 46 40 40 42 36 35 35 36 35 38 39 41 40 43 47 50 51
70 80 74 75 71 70 78 66 72 72 66 64 65 69 67 65 59 56 50 48 52 53 55 54 56 54 53 44 40 35 35 38 38 40 41 42 42 43 46 49 50 53 56
75 80 69 70 69 68 72 70 64 66 69 68 67 63 63 57 57 54 55 54 57 58 56 55 56 53 45 43 41 44 44 44 45 44 45 46 45 45 45 49 55 60 58
79 84 82 84 77 77 81 73 67 68 72 70 66 64 64 64 61 58 56 56 58 55 54 53 51 53 47 46 49 50 50 48 49 47 47 44 45 43 52 59 58 64 60
82 93 95 90 86 84 78 74 69 65 61 66 63 66 65 63 63 60 54 54 54 47 45 46 47 50 51 52 51 51 51 48 50 49 50 48 48 51 58 62 66 68 63
82 97 97 104 92 86 79 72 66 62 60 65 67 67 68 59 53 54 51 52 50 46 50 52 51 54 53 53 53 48 46 47 53 51 49 48 60 63 67 69 71 74 69
84 95 98 91 82 79 78 76 73 63 61 66 66 63 61 62 58 55 54 55 52 49 52 56 57 57 57 56 55 52 50 50 53 52 58 64 68 67 71 70 72 71 70
87 96 98 83 82 84 78 70 70 58 63 64 63 62 61 60 60 55 57 57 59 58 55 58 60 62 63 62 60 61 58 57 62 66 67 70 72 77 78 79 74 74 75
98 96 95 97 85 76 78 70 70 64 61 62 62 64 65 62 63 62 59 61 62 64 61 59 60 63 65 65 67 71 73 74 75 76 82 82 88 83 85 79 78 77 67
105 101 103 98 99 78 76 73 73 66 73 64 68 68 68 68 71 66 66 60 66 61 58 57 61 64 69 74 79 83 86 90 90 93 97 94 94 90 85 83 84 73 77
101 100 99 102 88 87 74 70 72 67 76 70 69 69 70 72 75 71 78 75 68 66 64 60 65 66 75 77 83 88 92 96 98 99 99 95 96 86 89 82 84 81 80
105 106 99 103 100 98 89 78 80 74 77 82 84 82 74 79 79 78 78 74 68 69 70 68 71 73 70 85 86 87 84 88 85 86 84 88 95 93 90 94 88 76 84
109 105 99 92 98 106 96 91 87 81 81 87 86 84 83 88 88 87 84 82 80 81 84 80 81 81 84 79 80 79 78 80 94 90 92 95 95 91 96 88 77 81 83

GFSSE_250_spd_090.txt.gz
Wind_Speed
54 49 47 42 40 39 38 34 34 34 31 29 29 26 24 21 17 19 20 19 15 15 15 16 16 15 16 19 20 20 21 21 21 23 22 18 17 17 13 11 10 9 10
61 56 53 48 45 42 41 41 36 34 34 30 29 26 24 23 22 19 17 17 16 16 15 15 14 12 13 17 19 20 19 20 21 22 21 18 17 16 16 11 10 11 11
65 62 60 54 51 48 45 43 42 38 36 34 30 29 27 22 20 20 21 18 16 16 16 16 15 13 16 16 18 18 19 19 21 23 22 20 18 16 17 16 15 13 13
70 69 64 60 56 54 49 46 45 43 39 35 33 31 30 27 24 22 21 21 20 19 20 18 16 16 16 16 15 17 19 19 21 22 23 22 20 19 17 16 16 15 17
72 70 68 65 61 59 55 50 48 46 44 40 36 34 33 30 27 24 23 22 22 22 22 20 18 17 18 17 17 19 22 22 22 23 23 24 22 19 16 15 15 17 21
69 74 72 69 65 62 61 56 52 49 46 44 41 38 34 34 31 29 26 27 27 23 24 24 21 20 20 19 21 24 25 24 24 25 24 24 23 20 18 17 19 21 23
64 72 75 74 69 66 62 62 57 53 51 49 46 42 38 34 35 34 30 28 27 26 25 23 24 23 23 24 23 25 26 26 26 25 26 26 25 22 22 23 24 25 28
53 71 73 72 71 69 67 65 61 57 54 52 50 47 42 40 35 36 35 32 30 29 27 26 27 28 26 28 28 27 28 28 28 28 27 27 27 26 26 28 28 28 30
48 60 68 70 72 66 66 67 67 63 59 56 54 52 46 44 41 37 38 37 34 32 30 31 28 29 30 30 26 26 27 30 29 31 27 26 27 28 30 30 30 31 33
45 51 63 65 73 76 70 66 68 69 64 61 58 57 53 49 48 42 40 39 39 36 33 34 35 35 34 32 31 31 32 34 35 34 30 27 29 31 32 32 32 33 37
49 52 59 72 74 71 72 73 70 66 68 65 63 61 58 54 51 47 45 44 40 40 38 37 38 36 38 38 37 35 35 36 37 36 32 29 28 29 30 32 34 34 38
57 57 60 73 77 75 73 70 75 74 69 67 66 63 61 58 56 53 51 48 46 43 41 42 41 39 39 44 38 38 38 38 39 37 36 34 33 32 31 33 30 34 36
55 48 59 62 68 78 78 71 73 71 71 70 68 66 62 60 59 59 54 51 49 47 46 46 44 41 42 43 40 42 42 41 38 38 37 36 33 32 35 35 36 39 42
54 54 56 63 73 81 69 65 72 71 69 70 69 71 66 61 62 62 56 58 53 54 52 50 48 45 48 45 47 51 52 46 42 44 37 34 36 38 38 38 39 39 38
56 50 54 64 77 84 73 55 63 69 68 71 70 70 66 65 64 61 61 58 62 57 57 50 53 54 49 53 53 51 51 47 44 35 37 39 41 41 40 41 40 40 41
60 53 57 65 77 81 85 80 68 65 71 71 71 67 67 68 64 62 61 60 61 63 52 52 48 49 54 55 55 52 49 42 41 40 44 46 44 43 44 42 41 41 43
60 52 56 67 72 78 80 66 71 65 67 65 72 69 67 67 62 61 58 56 56 52 49 58 57 55 56 56 50 47 47 47 47 48 48 47 44 47 47 46 45 45 47
65 56 58 68 77 77 76 92 88 81 79 74 71 69 69 67 63 58 60 62 58 60 62 62 58 56 57 51 42 43 46 46 51 53 51 50 48 50 49 49 50 50 53
67 57 61 68 79 81 88 85 77 79 79 75 68 65 64 63 61 62 61 62 61 63 61 56 53 57 54 49 47 47 47 48 51 54 52 50 52 52 52 51 53 58 64
64 59 63 72 80 85 89 82 83 80 84 83 67 65 61 60 61 63 61 62 61 57 57 55 55 57 56 52 49 52 52 55 54 56 55 55 56 55 53 57 66 68 78
65 63 67 73 83 90 85 86 86 85 83 73 69 68 59 58 59 59 58 62 61 61 57 53 54 57 57 57 53 55 55 58 58 61 59 58 60 58 64 70 74 80 83
73 70 73 74 81 86 86 79 79 82 85 80 67 61 60 61 60 59 59 60 62 64 67 63 58 60 62 59 60 56 56 60 61 64 64 62 66 72 74 78 80 83 84
76 73 74 79 85 88 91 87 87 86 84 84 73 69 66 61 60 59 61 59 58 67 67 65 64 61 70 65 61 58 59 65 66 69 69 73 76 78 81 84 86 86 82
78 77 78 81 84 89 93 91 86 74 76 85 77 78 74 68 66 65 63 65 66 65 63 63 62 61 67 64 63 61 69 69 68 71 76 79 82 83 87 88 85 80 81
78 79 81 87 93 93 90 92 90 86 92 85 82 73 75 72 67 72 70 72 68 67 66 72 72 65 65 62 64 71 72 73 76 81 79 86 90 88 83 86 80 87 93
78 81 82 90 87 88 83 89 91 95 91 84 80 79 78 76 66 68 68 69 72 71 74 73 76 75 79 76 71 72 75 79 80 82 84 85 88 89 88 89 96 95 89

GFSSE_250_spd_093.txt.gz
Wind_Speed
56 51 49 44 39 37 36 34 32 31 30 27 26 28 27 27 25 23 20 19 18 17 17 15 13 14 14 13 13 15 16 16 18 18 20 20 17 15 15 15 14 11 11
60 59 54 50 44 40 38 37 37 34 32 31 28 26 25 23 22 21 20 17 16 16 17 16 14 12 12 13 14 14 14 15 16 17 19 20 20 17 16 15 13 13 13
63 66 59 56 51 47 45 42 39 38 37 32 31 28 26 24 22 21 20 20 21 19 19 17 16 15 13 15 16 15 13 15 17 19 20 20 21 20 18 16 15 15 15
64 68 66 62 58 55 52 49 44 41 40 38 33 31 30 27 26 24 23 21 22 23 22 19 18 17 15 16 16 17 17 19 19 19 20 21 21 21 20 16 15 14 16
59 71 71 67 63 61 59 54 51 46 44 42 39 35 32 30 29 26 24 23 23 22 23 21 21 21 20 19 18 17 19 22 22 22 22 22 22 22 20 18 16 18 19
54 64 71 71 68 64 62 60 56 52 49 46 43 40 36 33 33 31 29 26 25 24 26 24 22 22 22 23 22 22 23 24 23 24 25 24 24 23 23 22 21 21 23
45 49 62 73 71 69 69 65 61 57 55 51 47 44 40 37 36 33 32 31 30 27 26 26 24 23 24 26 27 25 27 27 26 26 27 26 27 25 24 24 25 26 26
43 48 55 63 70 72 70 70 67 63 60 58 53 48 45 42 41 38 35 33 34 31 29 28 27 26 26 29 29 29 29 26 26 26 28 29 30 28 26 26 27 29 28
46 45 46 59 63 69 69 70 70 67 64 62 59 55 49 46 46 43 40 38 35 34 33 32 32 30 31 29 29 32 31 29 28 30 30 33 34 31 29 29 30 28 27
51 48 44 55 67 68 70 71 73 72 69 65 64 61 54 49 50 47 44 41 39 36 34 35 35 35 35 34 34 35 35 36 34 33 34 35 35 33 32 30 30 27 27
47 44 43 51 62 62 67 71 67 70 73 71 67 65 59 54 52 51 49 48 46 43 39 36 37 37 39 39 37 35 36 40 37 36 36 37 38 35 34 33 34 31 31
55 51 48 53 53 55 60 68 70 67 71 68 69 68 66 61 56 54 53 52 51 47 44 42 39 40 40 39 42 41 44 42 41 40 38 41 39 38 35 33 33 31 33
62 64 55 50 60 61 60 66 69 74 71 74 68 66 68 65 59 59 57 56 54 52 49 48 47 45 44 45 45 43 43 44 42 44 46 45 41 43 40 34 33 35 37
66 63 60 51 37 50 61 64 69 66 69 70 72 70 66 62 64 62 62 60 58 57 54 52 50 49 51 50 49 49 46 45 48 47 47 47 43 42 34 34 35 37 39
70 67 63 56 52 47 61 65 72 69 68 75 72 71 73 69 66 65 68 62 61 60 57 54 53 54 55 55 51 49 49 50 51 48 49 45 42 39 36 40 41 40 40
74 72 60 56 54 56 57 61 63 66 64 69 72 75 71 70 71 69 69 66 61 59 57 56 55 56 62 59 57 49 55 58 52 50 50 45 43 43 41 43 44 42 43
75 75 64 63 59 56 57 60 58 66 58 66 76 81 76 73 75 70 67 66 67 61 57 55 55 55 53 53 50 48 53 56 54 50 46 45 46 46 49 48 48 47 47
77 75 70 67 67 57 53 59 62 64 65 57 64 68 69 68 67 67 70 70 69 62 59 58 58 59 48 55 56 60 56 55 56 47 45 41 43 46 48 49 48 48 51
81 77 72 73 72 64 54 60 68 76 72 75 74 72 66 64 67 68 69 67 68 65 66 64 59 60 63 60 58 60 57 57 59 50 47 48 49 44 47 47 50 52 55
82 77 74 73 73 69 62 64 79 84 87 87 81 69 74 75 67 64 63 65 64 64 64 63 59 58 59 59 62 59 56 62 59 54 48 48 50 49 51 50 52 54 57
82 79 76 76 74 72 63 65 74 86 89 84 85 71 79 71 64 59 62 62 62 65 66 62 60 59 58 59 59 57 49 52 65 63 56 55 54 53 55 56 59 55 58
83 81 76 76 74 69 64 64 73 85 89 98 95 85 81 79 74 59 61 63 58 59 61 57 57 60 61 62 61 64 60 64 65 63 63 63 59 58 58 61 61 62 63
83 81 79 77 76 71 63 61 73 80 83 91 87 91 86 83 73 65 62 64 64 58 56 60 64 63 66 66 68 65 64 64 70 71 68 63 61 59 64 67 66 66 67
81 78 77 75 74 70 64 65 72 85 93 81 81 84 89 96 78 67 63 66 61 57 59 59 63 69 72 69 69 67 66 65 71 72 71 69 67 64 67 70 69 76 75
77 78 76 78 76 75 68 66 71 83 85 82 79 87 90 94 91 78 73 64 63 62 63 61 71 69 71 70 70 73 71 70 73 76 77 72 73 71 74 77 78 81 82
76 76 75 74 78 75 71 69 75 81 88 83 79 93 94 90 83 77 77 79 70 67 64 66 68 70 73 76 75 71 73 73 70 75 77 79 75 81 76 80 84 85 86

GFSSE_250_spd_096.txt.gz
Wind_Speed
57 56 48 45 42 41 39 36 34 31 29 28 29 30 29 27 26 25 23 21 19 18 20 20 18 15 14 13 13 14 15 15 14 15 16 19 19 19 18 17 16 14 14
61 59 57 50 48 45 42 41 39 36 33 31 31 29 27 27 26 24 21 19 17 17 17 19 19 17 16 14 14 16 17 17 15 16 17 18 20 20 19 18 16 14 14
62 63 59 54 53 51 49 43 41 40 38 36 33 32 30 27 25 23 21 21 19 20 19 20 21 20 18 17 17 17 17 18 20 21 20 20 21 20 21 20 17 15 14
62 62 62 60 56 57 56 53 46 44 43 40 37 33 31 29 28 25 23 21 19 20 20 21 22 21 20 20 19 18 19 20 22 24 23 21 22 21 21 21 20 19 16
50 58 59 63 63 60 61 59 54 50 47 45 42 39 36 32 31 29 27 26 24 23 21 20 21 22 20 21 22 21 20 21 24 26 25 25 24 23 25 25 23 22 23
43 50 55 59 62 62 63 64 59 56 54 51 47 43 40 38 36 33 32 28 26 26 23 23 24 25 26 22 21 22 24 24 25 27 27 26 27 26 26 26 26 25 24
46 41 52 57 62 64 64 66 66 62 60 58 54 50 46 42 40 38 35 33 31 30 29 27 25 24 25 27 27 27 25 26 27 26 25 25 27 29 31 32 30 28 28
48 42 52 58 63 63 63 66 70 68 64 62 59 56 52 47 44 43 40 37 33 31 32 32 29 27 26 26 28 27 28 28 28 29 27 28 30 31 33 34 33 32 30
43 38 49 53 49 54 64 67 69 71 69 66 63 60 59 54 48 47 44 42 39 36 34 33 34 32 31 30 30 31 32 33 34 32 32 32 32 32 34 37 34 33 31
36 32 45 50 48 60 58 65 69 72 73 71 69 66 64 60 54 53 51 48 45 42 39 36 35 36 35 34 33 34 35 33 34 32 31 35 34 35 35 38 32 33 33
48 43 47 47 43 56 60 54 65 70 72 73 70 69 69 64 61 59 57 52 48 47 44 41 38 37 37 35 36 38 39 37 36 37 41 41 38 36 39 40 35 37 33
55 49 49 52 56 62 57 64 68 68 70 72 71 70 72 68 66 64 62 58 54 51 49 46 44 43 42 39 38 38 40 40 39 41 42 40 37 38 41 41 41 40 36
57 57 60 57 56 55 51 59 65 66 67 71 71 70 71 70 69 66 66 64 61 56 52 48 48 46 45 45 44 45 43 44 45 40 43 44 39 40 42 43 41 39 31
65 63 62 63 61 57 51 48 54 60 70 69 68 71 69 71 72 71 68 67 66 62 57 54 53 52 50 50 49 48 48 49 48 46 48 52 48 45 44 44 43 38 36
71 70 67 66 63 57 58 56 47 61 65 67 68 72 68 66 69 73 72 70 69 66 63 59 58 56 54 54 52 51 52 53 53 48 45 54 51 45 46 46 45 40 38
74 75 73 70 66 64 65 61 57 57 63 63 67 70 71 70 67 71 72 73 70 69 68 63 61 61 59 56 55 55 54 54 54 50 50 51 48 48 48 47 45 45 46
76 76 77 74 72 68 66 64 61 58 56 61 67 71 69 66 69 69 74 69 70 70 67 64 64 62 57 57 55 55 53 53 52 54 60 53 52 50 48 45 43 42 45
85 82 78 78 75 72 71 66 63 63 62 62 58 67 68 66 65 69 73 70 74 74 69 69 66 64 63 61 56 53 53 58 58 53 55 57 58 52 46 46 41 40 42
89 86 83 81 78 75 75 72 71 65 60 61 60 64 65 65 67 71 75 79 77 75 71 73 70 69 70 69 63 60 57 51 53 54 56 61 59 52 50 50 48 46 45
92 92 87 84 81 80 79 78 74 70 62 61 67 69 67 70 75 70 74 75 73 70 70 69 71 70 69 70 65 66 65 61 61 62 61 60 58 56 54 53 54 54 52
94 95 91 87 84 82 82 81 73 74 64 59 65 72 77 69 65 64 66 65 68 68 71 68 68 69 68 68 66 67 63 59 60 63 58 56 53 57 58 60 62 62 61
93 94 91 89 85 81 84 84 75 77 67 61 65 72 66 72 61 72 64 59 60 59 60 62 62 64 68 67 65 66 65 62 62 64 63 63 65 65 60 57 62 65 65
91 90 89 87 84 83 86 82 76 75 71 64 59 75 78 78 83 74 71 66 62 60 58 56 58 60 65 62 63 58 66 62 65 65 65 64 64 64 64 62 65 71 72
86 87 90 87 84 86 84 79 78 75 71 65 62 80 88 90 88 84 73 79 62 62 65 59 57 61 61 62 52 50 59 67 67 66 66 66 66 68 64 63 70 72 76
73 81 87 84 84 83 79 81 78 76 71 67 61 73 92 94 92 89 84 72 74 72 73 73 78 67 66 67 67 65 63 63 63 69 71 73 75 72 73 71 72 76 76
68 72 76 79 79 80 78 76 76 75 74 64 62 68 74 90 98 90 88 87 85 78 75 76 69 67 66 68 67 70 73 70 77 79 79 74 75 77 74 71 73 71 76

GFSSE_250_spd_099.txt.gz
Wind_Speed
55 54 50 46 43 41 38 38 36 33 31 30 30 31 31 30 27 26 25 24 23 22 18 16 18 19 18 18 17 15 15 16 18 17 18 19 19 21 21 20 20 18 16
58 56 55 50 49 46 43 40 40 38 35 33 32 32 31 32 32 30 28 27 24 21 17 15 17 19 19 19 18 17 17 16 18 21 22 23 22 21 21 21 22 20 18
60 59 59 56 53 50 46 46 43 44 41 39 36 34 34 33 32 28 28 26 24 21 21 19 19 20 21 21 19 19 18 18 18 20 23 25 25 24 22 22 23 22 21
63 63 64 63 59 57 54 53 50 48 46 44 42 39 36 36 35 32 28 27 24 24 21 20 20 21 23 23 23 21 21 20 20 20 23 25 24 24 25 23 26 26 25
63 65 68 67 63 58 58 58 54 52 52 47 45 44 40 38 37 36 32 29 27 26 25 24 23 23 22 22 22 23 23 22 22 23 24 23 22 23 24 25 28 29 28
49 54 58 61 66 68 65 63 59 54 55 57 51 47 47 43 40 38 35 33 31 31 29 26 27 26 26 25 25 24 22 23 25 23 25 24 22 22 25 27 28 31 31
48 49 48 51 55 63 67 67 66 64 60 60 59 54 50 47 45 45 42 38 36 35 32 31 30 28 28 27 27 26 25 26 25 24 25 28 27 28 26 27 28 31 31
48 47 50 50 50 54 61 66 68 68 65 63 63 61 57 53 50 48 48 43 42 39 37 34 33 33 31 31 29 29 28 27 28 27 29 30 28 29 30 30 30 32 33
35 39 52 46 46 43 52 61 67 67 68 66 65 66 62 61 57 55 51 49 45 45 40 37 35 34 36 35 34 32 32 32 31 30 29 28 29 30 34 34 33 33 34
38 43 38 38 51 41 41 55 60 66 65 66 66 68 68 63 62 61 57 55 51 49 46 42 40 38 38 38 37 37 37 35 35 33 34 31 32 35 37 32 32 35 36
46 39 40 44 53 43 41 53 51 59 65 66 67 68 71 69 66 63 62 61 59 53 50 48 45 43 42 41 41 38 37 38 36 36 35 34 34 32 33 35 34 36 37
55 54 50 43 51 53 45 50 51 55 60 64 69 68 69 71 71 68 67 65 64 60 57 54 50 47 47 45 44 43 40 40 38 36 37 39 36 39 42 38 39 40 37
61 59 57 55 54 56 53 52 54 53 60 67 67 69 70 70 71 72 69 69 68 67 63 60 56 51 50 49 47 46 45 43 44 44 43 40 44 43 43 40 42 42 41
64 64 64 62 60 59 58 62 58 54 62 64 66 66 65 66 69 69 71 74 73 71 69 65 63 58 55 54 52 50 49 48 49 49 46 49 42 39 40 47 44 44 41
68 67 64 65 65 61 54 56 58 51 56 61 57 61 68 71 69 72 72 73 75 75 72 69 67 64 62 60 58 54 52 53 51 51 51 51 47 45 49 45 42 41 45
74 71 69 69 70 67 65 58 64 56 60 58 59 57 60 65 68 70 72 74 75 77 75 72 70 68 66 63 62 60 57 57 56 53 54 53 47 48 55 56 48 41 47
81 76 73 74 74 72 68 66 66 62 60 63 68 58 59 63 66 70 72 70 75 73 75 74 73 71 70 67 64 63 60 57 56 55 54 51 50 52 54 56 50 48 50
88 86 82 78 77 77 73 71 69 68 67 67 66 62 61 63 71 69 67 68 74 69 67 71 77 76 70 68 66 65 63 62 59 59 61 58 54 52 51 57 54 54 52
92 90 88 85 81 80 79 77 76 69 71 72 70 67 61 65 63 67 70 66 72 72 70 68 72 77 73 73 70 67 65 65 66 66 66 65 63 64 65 64 58 57 52
95 96 94 90 88 89 85 83 82 79 74 71 74 70 59 64 64 66 68 68 70 74 76 79 77 77 76 76 75 70 71 71 70 69 67 68 65 64 59 60 60 61 56
95 98 100 96 96 93 90 89 88 85 80 77 77 75 67 67 65 65 66 68 65 69 70 72 76 78 71 72 72 73 70 68 67 69 69 67 65 67 65 61 61 57 53
98 102 101 102 103 98 95 92 90 89 85 82 79 79 73 69 65 67 68 68 68 69 70 69 69 72 73 73 72 69 68 73 72 71 68 69 69 65 62 65 58 55 55
93 99 103 103 104 101 98 97 94 94 91 87 81 80 78 73 66 71 70 64 70 68 69 70 68 71 70 73 75 75 72 69 69 65 65 62 66 64 64 61 58 59 59
84 91 96 97 98 98 93 93 93 93 90 88 85 82 78 77 71 68 68 70 68 70 71 69 66 62 61 59 60 60 62 59 63 63 66 54 57 59 59 62 59 61 62
78 82 82 87 89 90 90 90 88 88 89 87 86 81 80 78 70 69 66 62 60 61 67 67 69 60 61 60 60 60 64 65 67 70 72 74 70 67 63 63 63 67 70
69 72 74 75 79 82 80 83 84 84 84 84 84 80 80 78 73 66 62 59 70 73 78 74 72 79 74 68 60 61 67 69 74 75 75 71 71 70 66 67 65 73 73

GFSSE_250_spd_102.txt.gz
Wind_Speed
47 46 44 42 40 37 36 36 34 34 32 30 29 28 28 26 26 25 25 24 24 25 25 23 20 17 16 16 16 16 16 17 17 17 17 17 20 20 20 21 21 22 22
53 51 51 50 48 45 42 40 39 36 37 35 34 32 31 33 33 32 30 28 27 28 26 23 20 18 19 17 17 17 18 18 18 18 19 20 21 21 20 20 20 22 22
57 57 57 55 53 51 48 46 43 42 40 41 39 37 35 35 35 34 33 30 30 28 26 23 22 22 21 21 20 19 19 20 21 19 21 21 21 19 18 18 19 23 23
61 63 62 61 61 58 54 50 48 47 45 43 43 41 39 38 38 37 34 30 27 27 26 25 24 23 23 22 22 23 22 20 21 20 21 22 20 19 19 20 20 21 24
59 62 64 65 65 64 63 58 54 53 52 48 45 46 45 44 43 40 37 34 31 27 29 27 25 26 27 26 24 24 23 22 20 19 21 22 21 20 21 24 22 22 23
53 56 58 59 60 65 64 61 59 60 58 56 53 51 48 47 47 45 42 37 35 33 31 30 30 29 30 30 28 26 25 24 23 24 22 21 22 24 23 23 24 27 27
49 47 51 53 56 58 62 63 62 62 62 59 58 56 52 52 49 50 47 43 40 38 35 34 33 33 31 31 32 31 29 27 27 26 24 24 23 24 25 23 23 27 27
51 47 52 52 54 55 56 58 57 60 62 66 64 61 58 54 56 55 52 50 48 45 41 38 37 36 34 34 34 34 33 31 29 29 28 28 27 25 27 28 30 28 26
51 47 47 48 45 44 46 53 54 55 58 63 65 65 66 61 59 60 57 54 52 50 48 45 42 40 39 37 36 36 37 36 34 34 33 32 31 29 28 28 29 30 29
39 52 57 43 48 38 43 43 49 46 53 56 61 64 67 68 66 64 63 60 59 56 51 50 48 45 43 42 39 37 37 37 38 37 37 36 35 33 30 28 31 33 29
53 44 50 57 49 45 44 45 45 49 44 49 58 60 65 67 67 69 68 66 63 63 59 55 53 51 49 47 44 42 40 39 39 38 36 35 34 34 35 35 35 35 35
62 59 47 56 51 51 50 49 51 48 47 48 51 58 62 62 65 68 71 71 69 67 65 61 58 57 55 52 49 47 46 44 42 41 40 40 39 39 40 36 38 37 33
68 67 64 60 56 59 55 56 55 53 46 52 51 53 57 59 63 67 67 73 72 70 72 66 62 61 59 58 56 53 49 48 45 45 44 44 43 43 44 41 41 39 41
76 72 69 67 61 61 60 57 60 63 52 49 56 55 60 62 60 61 65 68 69 73 75 72 68 66 64 63 62 59 55 52 50 48 48 48 48 46 45 45 46 42 46
80 78 78 73 70 68 70 66 61 58 57 53 52 59 58 61 60 63 66 65 64 68 72 74 75 72 68 67 67 65 62 60 58 55 54 52 51 50 48 47 49 45 46
83 84 83 82 78 74 73 69 62 60 57 61 59 56 53 54 61 63 65 66 67 67 67 68 72 75 73 71 71 68 67 66 63 61 58 58 56 55 52 50 47 43 47
86 87 89 88 84 81 77 71 65 63 60 58 58 64 60 59 59 56 58 62 66 68 69 68 68 73 76 78 75 73 69 67 67 64 61 62 60 56 54 55 55 52 57
90 87 90 91 90 87 84 76 73 69 63 61 58 61 60 64 63 62 64 64 66 65 68 69 66 68 73 79 78 77 73 70 68 68 65 64 63 62 59 62 59 60 59
92 91 91 92 94 93 90 85 80 75 69 66 64 67 68 65 61 64 66 67 68 65 68 67 68 67 68 75 80 79 75 73 71 68 66 67 66 63 65 60 63 64 58
92 93 94 93 94 95 94 91 86 83 75 71 71 70 71 68 66 61 62 64 66 71 72 67 73 70 69 69 75 79 79 78 76 73 74 70 67 62 60 59 64 65 61
89 92 96 99 97 97 96 93 90 86 82 79 78 75 73 73 71 69 67 65 64 65 67 67 65 66 69 68 71 72 68 68 73 76 75 73 69 70 70 74 67 64 59
86 93 98 99 103 100 98 94 92 90 88 86 87 83 80 79 76 73 75 73 67 66 66 64 68 70 67 68 74 77 75 76 75 76 75 75 77 74 71 72 69 67 63
77 85 93 101 103 104 101 98 94 94 92 90 90 86 84 83 82 81 79 79 73 69 68 69 67 69 69 69 71 72 69 71 71 72 75 75 75 73 70 71 67 61 60
75 80 88 93 100 108 105 106 101 96 93 95 94 91 90 89 89 89 86 83 79 75 72 69 68 64 66 72 76 72 68 69 69 70 69 71 70 68 68 70 66 63 56
69 72 80 88 93 98 107 105 100 96 97 98 97 95 93 94 93 91 89 88 84 78 75 73 70 68 67 71 71 64 66 66 66 59 59 63 68 66 69 68 68 68 70
63 65 70 76 81 85 93 100 104 101 100 102 102 101 99 97 95 92 91 89 85 80 76 74 70 73 72 72 72 68 71 65 60 58 57 62 61 64 66 63 62 64 65

GFSSE_250_spd_105.txt.gz
Wind_Speed
46 42 42 41 39 37 35 32 32 31 29 28 28 27 26 27 26 26 26 25 22 22 23 24 23 22 19 18 16 15 14 14 14 16 16 19 18 19 16 14 13 17 18
51 47 44 42 41 40 38 38 36 34 33 31 31 31 30 29 31 28 29 27 27 26 25 25 24 22 21 20 19 18 17 16 16 17 17 17 19 17 16 15 14 15 18
52 52 51 49 47 46 44 44 44 43 41 37 36 35 35 34 34 35 32 32 33 30 27 27 24 23 22 22 21 20 21 20 19 19 17 16 18 15 15 15 16 15 17
53 53 54 56 55 54 51 49 49 49 47 44 41 39 40 39 38 37 37 35 35 33 28 27 24 24 24 23 23 22 22 21 21 18 18 19 18 15 15 16 16 16 19
53 56 57 57 58 58 58 56 54 54 53 52 51 46 42 42 43 41 40 38 38 37 33 30 27 26 25 24 26 25 24 23 23 22 19 21 19 18 19 20 19 17 20
49 51 52 55 58 59 59 60 59 60 60 58 55 50 48 47 47 46 44 43 42 41 38 36 33 29 28 29 28 29 28 26 25 24 24 24 22 21 20 21 21 19 24
47 49 49 52 52 53 54 58 60 58 59 59 58 57 55 54 51 49 49 48 47 46 43 40 39 36 33 32 30 29 31 31 29 28 28 27 26 25 25 25 26 25 25
46 43 48 51 50 51 51 52 53 54 54 57 59 60 59 58 58 58 53 52 51 48 48 46 43 41 39 36 34 32 32 33 33 32 31 31 31 31 29 29 27 26 24
48 44 46 44 48 50 52 51 51 52 53 54 55 56 59 60 62 61 59 56 56 56 53 51 50 47 44 42 40 37 35 35 36 36 34 33 34 33 33 32 31 27 28
56 54 43 48 47 50 49 50 48 48 48 51 54 53 52 57 64 68 66 63 60 58 59 56 54 53 51 50 46 43 41 39 37 36 36 36 35 36 33 33 31 31 30
58 56 57 49 51 51 50 49 49 45 46 44 48 52 52 52 53 59 65 67 66 63 61 62 60 58 55 52 51 51 47 44 42 40 39 38 39 37 35 36 36 36 36
66 63 59 61 54 54 57 53 56 53 50 48 48 49 50 51 53 56 58 62 64 66 67 67 67 65 63 59 55 54 53 50 48 47 45 45 42 41 40 40 39 39 39
72 69 66 62 60 58 57 62 55 58 51 49 49 52 53 52 52 53 55 56 57 64 69 70 71 69 66 65 62 59 57 57 55 51 50 49 48 46 44 44 44 41 42
81 78 72 69 67 63 60 63 69 65 58 56 56 54 53 56 55 55 53 51 52 55 60 65 68 72 71 71 70 67 63 60 60 59 57 55 52 50 48 47 48 46 45
86 84 79 75 72 70 70 68 68 67 62 61 57 58 56 49 54 56 56 57 58 57 54 55 60 66 70 73 73 72 69 67 65 63 62 61 60 59 58 55 54 52 50
91 89 85 81 78 76 75 75 73 73 70 68 62 56 61 55 50 53 57 59 56 56 55 55 57 60 64 69 72 74 75 74 71 67 66 65 64 62 62 60 57 54 51
91 89 90 88 84 83 80 78 78 78 73 70 67 66 63 60 53 52 54 53 54 56 57 59 61 59 62 64 67 68 73 77 76 72 69 68 67 65 63 62 59 56 52
94 93 92 88 86 86 85 83 80 80 79 74 69 71 69 66 63 59 60 58 59 57 58 60 61 63 63 63 65 65 68 70 77 75 74 72 71 70 66 64 62 58 56
94 95 92 91 91 90 88 87 86 84 83 84 82 73 71 67 68 62 61 63 66 65 61 61 62 63 64 65 69 66 63 63 67 76 80 78 74 73 71 68 64 59 59
94 89 93 93 93 96 91 89 89 88 87 87 85 81 75 70 71 68 66 63 66 63 64 64 62 61 64 66 68 67 66 66 67 69 73 79 79 76 74 71 66 64 60
95 91 89 93 93 95 93 93 91 91 89 87 85 86 84 80 77 75 70 69 71 67 65 63 61 60 60 66 65 67 66 66 65 65 66 73 77 79 79 72 72 72 68
83 85 76 81 86 92 97 98 98 97 91 89 89 89 90 90 83 79 78 75 72 69 68 65 66 65 64 64 66 63 61 63 61 64 67 68 70 72 72 72 72 75 71
75 82 74 76 83 88 93 99 99 100 97 93 93 91 90 91 91 87 85 81 79 76 76 72 71 70 71 69 67 67 62 62 65 67 65 65 69 68 71 71 70 68 68
68 74 64 68 78 81 86 94 103 107 101 96 95 92 93 93 95 94 91 85 82 81 82 77 77 77 78 77 73 71 68 64 70 64 65 74 79 75 72 69 66 69 68
61 64 63 70 75 81 86 89 95 102 104 101 95 95 95 93 92 92 94 90 88 86 83 84 83 83 82 80 78 74 70 66 66 60 65 67 72 71 69 65 66 66 65
53 58 62 68 76 80 82 86 89 91 97 101 98 96 96 99 97 94 94 93 93 91 91 90 89 85 85 85 81 79 72 69 66 66 69 70 62 63 64 64 61 63 65

GFSSE_250_spd_108.txt.gz
Wind_Speed
42 40 39 38 38 37 37 36 33 31 29 29 28 27 27 25 24 25 25 25 25 25 22 21 21 22 21 20 17 16 16 15 15 16 17 17 16 15 12 11 11 10 12
49 46 44 45 42 40 40 39 38 35 32 30 29 28 28 28 28 27 29 28 29 28 28 26 25 23 23 21 21 19 18 18 18 17 17 17 16 17 13 11 11 9 11
52 51 50 47 45 44 42 43 42 41 39 36 34 31 31 31 31 31 30 33 34 31 30 30 30 28 25 22 23 21 19 19 19 19 18 17 16 18 16 13 14 13 13
51 51 51 50 50 49 49 46 46 46 45 44 43 41 39 36 35 35 35 34 35 37 36 37 34 31 29 25 24 24 22 21 22 21 19 20 18 18 18 17 16 15 15
50 50 52 52 52 51 52 52 53 52 51 50 47 46 44 42 41 40 39 40 40 39 39 38 37 33 32 29 26 26 25 24 24 24 23 22 22 21 20 20 21 18 19
46 47 49 53 54 55 54 54 54 55 57 56 54 52 52 50 48 46 44 42 43 43 43 41 39 38 36 35 31 29 29 29 27 27 27 26 26 26 24 23 24 23 25
45 45 45 47 50 52 54 56 57 58 60 60 60 58 57 56 54 51 49 48 48 48 46 45 45 43 41 39 39 35 32 31 31 30 30 30 29 30 29 30 28 27 24
44 45 45 45 46 47 49 52 53 56 58 59 61 60 59 59 57 55 53 52 51 50 50 50 49 47 46 42 42 41 39 36 34 34 34 33 33 32 31 32 32 31 28
46 46 49 45 45 41 45 47 50 50 52 54 54 55 56 58 61 61 58 58 56 56 57 56 54 53 49 48 47 45 43 42 40 39 37 36 36 34 33 33 34 35 32
51 50 50 50 50 45 42 44 49 49 49 51 51 52 54 51 52 54 58 60 60 60 60 61 59 57 57 53 51 50 49 47 45 44 43 42 39 38 37 36 36 35 34
57 56 53 52 54 54 49 46 45 48 51 50 50 50 51 51 49 51 53 55 58 62 64 64 64 61 60 60 58 55 54 53 50 48 49 48 46 42 41 40 40 40 39
67 65 62 59 57 59 57 57 53 50 55 52 48 48 45 45 48 49 50 50 51 53 60 67 70 70 66 63 60 59 59 57 55 53 52 52 51 49 47 45 44 43 43
73 74 70 68 65 64 62 60 60 57 55 56 54 52 50 49 47 48 49 51 51 50 51 57 59 66 67 67 66 64 64 65 64 62 60 57 55 55 54 51 51 48 47
81 80 78 75 72 69 69 66 66 62 60 62 60 60 57 54 54 52 51 54 53 53 54 50 53 56 61 66 70 70 69 68 67 66 65 63 61 59 59 58 57 55 53
88 87 85 82 80 77 77 74 70 69 67 64 64 61 64 60 60 57 55 57 55 53 54 56 53 50 51 53 58 65 66 69 71 70 70 69 67 65 64 63 62 61 60
90 93 91 87 86 84 83 82 78 73 71 72 65 67 65 62 64 62 61 60 58 57 57 59 57 55 52 51 53 52 59 64 68 71 73 74 72 72 70 68 67 65 63
92 93 94 94 90 88 88 87 85 82 79 76 72 69 69 68 62 64 67 65 58 55 56 55 58 56 55 53 53 55 55 55 58 58 62 70 74 78 76 73 72 71 68
97 96 96 94 94 93 91 91 91 87 84 81 79 74 76 76 77 72 67 64 64 59 58 58 57 58 56 59 57 57 56 57 55 57 57 56 61 69 75 78 76 74 73
107 105 100 100 99 96 94 93 92 91 87 86 84 81 81 78 81 75 72 72 66 65 59 60 61 60 60 61 60 61 60 61 59 60 61 60 58 57 66 73 77 76 75
107 107 102 97 100 101 96 95 94 94 89 87 86 88 85 83 84 81 75 79 73 72 71 69 68 67 64 66 66 64 61 60 63 62 61 59 60 61 62 66 71 77 78
96 96 97 93 91 98 100 98 97 94 95 93 91 90 86 86 93 85 78 81 79 77 75 73 69 69 70 68 64 63 60 60 61 57 58 60 57 60 60 62 65 70 74
89 87 88 89 87 86 94 101 98 99 99 97 97 93 91 90 96 84 83 84 85 83 79 78 74 72 73 73 71 68 63 66 62 63 62 61 61 59 60 63 60 61 64
74 70 73 77 80 76 80 91 96 98 99 100 99 99 95 92 95 87 84 87 85 85 83 83 82 80 79 74 69 68 67 65 69 67 65 67 67 61 60 67 67 64 63
60 63 65 69 69 62 69 79 84 86 95 105 104 100 100 96 95 90 87 88 89 86 87 88 87 87 84 80 78 76 76 74 74 72 70 70 71 69 63 66 71 70 70
49 53 59 61 58 60 68 80 79 85 90 95 105 109 101 98 96 94 91 89 91 89 91 88 91 92 90 87 84 82 80 80 78 77 76 75 75 74 70 65 67 66 70
43 45 50 53 55 61 68 74 85 93 87 93 98 97 92 96 99 99 98 95 95 95 93 92 92 92 97 93 90 89 86 83 83 85 81 80 81 78 75 68 65 67 67

GFSSE_250_spd_111.txt.gz
Wind_Speed
48 46 41 39 38 39 37 34 32 31 31 31 30 28 27 26 26 23 23 24 24 26 26 24 24 21 20 21 20 17 16 16 16 16 16 18 16 15 13 11 12 9 9
49 48 45 43 42 40 39 38 36 36 35 35 33 32 29 27 25 25 25 26 27 29 29 27 27 27 24 25 25 23 19 18 17 17 17 17 17 16 15 13 11 13 12
49 48 47 46 46 45 45 43 43 41 39 39 38 37 34 32 29 28 28 29 29 31 33 33 31 30 28 28 27 27 23 20 19 19 19 18 18 17 17 16 16 15 15
49 52 52 51 49 48 49 48 47 45 45 41 41 41 40 38 36 33 33 32 32 33 34 35 35 34 35 35 30 28 26 24 23 21 20 21 20 20 21 20 20 19 19
41 44 47 50 51 48 50 50 50 50 49 47 46 46 45 44 43 41 39 39 37 38 38 38 37 38 37 35 33 31 30 28 27 26 25 24 24 23 24 25 23 23 23
36 37 41 45 48 47 49 50 52 53 54 52 51 50 51 50 48 46 45 46 46 43 44 43 42 41 40 38 35 34 34 33 33 32 30 29 27 27 27 28 28 27 26
36 37 38 40 44 47 48 52 54 54 54 56 56 55 54 53 53 52 52 52 52 50 48 47 45 45 44 43 41 39 38 37 37 36 36 32 32 31 30 30 31 31 31
39 38 38 41 42 44 45 47 50 52 54 56 59 61 60 59 60 58 56 57 56 54 51 49 50 50 49 47 46 45 43 41 39 39 39 38 37 35 35 34 34 32 32
44 44 42 44 42 43 44 46 48 47 51 51 53 56 59 62 62 63 62 60 58 58 56 53 52 54 52 52 49 49 47 45 44 44 42 42 42 41 39 39 39 38 36
51 50 49 48 47 47 46 47 46 46 44 43 47 49 50 51 53 52 52 53 58 61 61 59 52 59 58 58 58 56 52 52 50 47 47 48 47 44 44 43 42 41 40
57 57 57 54 53 53 51 50 49 51 49 45 43 43 46 48 47 48 48 48 50 53 53 55 58 59 61 64 63 60 57 56 54 55 54 53 52 51 48 48 46 47 44
67 64 64 64 60 60 57 55 54 54 59 53 49 49 47 47 46 45 42 43 46 50 51 53 53 54 60 64 64 62 61 62 61 60 59 57 56 54 52 51 50 50 51
74 72 72 69 70 67 66 64 61 59 58 59 59 57 54 52 49 46 46 45 45 44 46 47 49 48 49 55 62 66 69 71 69 65 63 61 60 61 60 59 57 56 55
81 81 81 81 78 77 74 73 72 67 63 65 64 60 56 54 56 53 51 52 52 49 48 46 47 47 48 48 49 51 59 59 64 66 66 66 64 64 64 64 63 62 61
82 87 87 87 85 83 82 81 79 77 72 68 70 68 65 60 55 58 56 57 57 56 55 52 49 48 49 50 50 49 48 49 55 60 65 69 70 70 69 69 69 68 68
86 87 90 89 91 92 89 88 87 85 81 76 76 75 73 69 66 61 60 55 62 60 59 56 55 53 55 56 58 56 51 51 50 49 51 53 57 63 65 68 70 72 74
97 95 94 94 92 92 92 92 92 91 89 84 83 82 76 77 73 70 65 65 60 58 61 59 58 56 57 57 60 59 57 54 54 49 48 45 48 49 54 55 55 56 65
104 103 102 102 101 97 95 95 93 94 94 91 89 87 86 84 80 77 74 70 72 67 61 64 64 64 64 60 62 60 56 57 55 55 54 52 52 52 51 53 55 55 53
114 111 109 106 104 104 102 101 99 95 95 94 94 94 90 89 86 80 81 76 78 79 71 68 66 64 66 62 60 62 58 57 59 56 53 56 56 55 55 58 59 56 53
107 107 107 109 108 105 107 107 102 101 98 95 95 94 92 93 91 87 85 83 85 87 81 76 72 72 71 66 64 63 61 61 62 60 57 60 58 57 56 56 56 55 54
107 103 103 104 106 106 102 105 105 105 104 100 100 96 94 92 94 91 91 90 91 94 81 81 81 78 77 74 73 69 68 69 69 66 63 64 61 61 60 60 60 56 56
97 93 94 95 93 94 94 91 93 102 104 104 105 103 97 91 90 91 92 93 94 95 87 85 84 81 80 81 78 74 73 73 72 73 69 67 69 68 63 61 62 61 60
91 89 85 83 82 82 85 80 81 86 91 94 102 106 106 97 93 94 94 91 92 94 92 90 86 84 84 84 79 81 80 77 78 76 75 70 72 69 67 66 68 67 66
72 71 71 69 71 74 75 73 74 78 86 86 90 100 102 104 101 98 98 95 95 99 96 90 89 86 88 88 85 84 87 85 83 81 78 77 76 76 73 73 73 71 69
58 57 54 56 60 65 67 67 69 76 80 73 88 97 99 100 102 106 105 104 102 102 102 95 91 83 88 91 94 89 91 90 86 85 84 84 82 82 80 78 76 75 74
48 47 42 43 46 54 59 60 58 64 73 80 89 93 97 99 101 102 104 108 103 102 102 101 99 92 90 92 91 91 89 90 90 91 89 90 89 87 86 84 82 81 78

GFSSE_250_spd_114.txt.gz
Wind_Speed
43 42 42 39 36 37 36 34 34 31 28 28 29 27 28 26 25 25 24 23 22 24 22 22 21 21 22 20 18 19 20 21 19 16 15 14 14 13 14 13 11 10 12
48 46 44 44 44 45 41 39 38 38 36 34 33 32 32 31 29 26 25 25 25 25 25 25 25 24 24 25 25 22 24 25 21 18 18 17 16 14 14 15 16 15 15
46 47 49 49 47 44 42 42 40 39 38 36 36 37 35 34 34 32 29 27 27 29 29 29 29 28 27 26 27 29 29 26 23 21 20 20 18 18 17 17 16 15 15
40 44 46 47 46 44 43 42 43 43 43 42 41 41 40 38 37 36 35 34 30 30 32 32 32 33 32 30 30 29 30 28 26 25 23 22 22 23 22 22 21 20 19
35 36 37 41 44 46 48 49 46 46 48 48 46 45 43 42 42 41 39 39 37 36 37 37 35 37 38 37 35 34 32 29 28 28 29 29 27 26 25 25 25 24 23
32 32 31 35 36 39 44 46 48 49 49 51 50 48 47 47 47 47 46 46 45 43 41 42 42 42 42 41 40 38 36 34 32 31 31 32 32 32 30 29 29 29 28
33 32 32 31 34 36 37 41 45 47 47 48 50 50 52 52 51 51 51 51 50 48 48 46 49 48 47 46 44 43 40 39 38 37 36 35 35 35 36 36 33 33 33
37 38 36 36 35 35 34 38 39 43 46 49 51 53 53 55 56 54 55 55 54 52 52 51 51 52 52 50 47 46 45 44 43 41 40 39 38 38 38 38 39 39 37
43 41 42 43 43 41 40 39 38 39 42 45 47 48 49 53 55 58 61 62 59 57 58 57 56 56 55 53 52 51 49 47 46 45 44 44 41 41 41 42 43 42 41
51 50 47 47 48 49 47 46 45 43 41 41 41 43 43 44 48 52 55 54 56 58 57 54 55 55 56 57 56 56 55 54 53 53 52 51 49 47 45 45 46 46 46
57 56 57 56 55 53 53 52 51 51 50 47 44 43 45 44 41 41 46 46 46 44 46 48 48 48 52 58 61 60 60 60 59 60 61 55 52 51 50 51 52 51 49
64 65 64 64 63 63 61 59 59 57 56 55 52 50 51 52 50 46 44 44 44 44 42 45 44 46 50 54 55 55 58 60 62 64 64 60 57 56 57 55 54 52 52
69 71 71 72 71 70 69 69 65 65 63 62 60 58 57 56 57 55 54 52 48 47 43 44 42 41 43 46 50 52 54 54 54 57 62 65 67 68 66 63 59 57 57
76 76 76 76 77 78 77 75 74 73 71 69 67 64 63 61 60 60 59 56 51 51 48 49 51 49 45 44 43 45 47 46 46 46 45 50 57 59 60 61 61 62 61
82 82 81 79 80 82 82 81 82 81 79 77 75 74 71 68 67 65 64 61 56 53 55 54 54 54 55 50 48 48 46 46 43 44 46 42 40 43 48 52 56 62 65
87 88 89 87 87 87 87 87 86 84 87 86 82 81 81 77 75 73 70 68 66 61 56 53 53 54 57 57 53 52 51 53 51 50 50 46 44 44 41 41 42 45 47
96 96 97 99 96 94 94 94 93 91 89 87 87 86 86 85 84 82 76 73 71 69 67 61 56 50 54 58 57 54 53 56 54 55 55 53 51 47 43 43 40 40 41
103 104 103 103 104 103 101 99 99 99 96 93 91 89 91 90 91 89 86 81 79 76 75 71 67 56 53 56 60 59 56 56 56 58 56 54 53 52 47 46 45 48 47
110 110 110 110 110 107 106 106 106 104 102 101 99 95 94 94 95 95 93 89 86 85 81 78 78 74 71 67 66 66 64 62 64 58 54 57 57 54 53 51 51 49 47
108 111 113 113 112 112 111 110 109 109 109 108 108 101 102 102 97 93 95 94 95 89 88 84 85 84 79 79 78 75 69 66 63 63 62 57 60 59 58 57 54 51 52
107 107 105 105 106 104 104 106 106 109 108 104 112 110 107 105 101 96 93 93 97 95 92 92 91 92 87 87 83 84 79 73 70 68 71 64 61 64 65 64 63 60 60
105 102 101 103 104 103 101 100 98 99 97 97 101 103 104 107 103 100 96 95 94 97 96 96 96 99 94 93 89 87 86 84 80 77 76 72 68 71 68 69 69 66 65
98 98 98 98 96 95 91 89 90 92 91 89 88 90 90 101 104 107 103 101 101 96 95 100 99 100 101 95 95 94 89 89 87 83 82 79 78 75 74 73 73 73 72
88 87 82 77 74 75 75 73 78 79 79 83 79 84 80 85 88 99 108 105 101 103 101 100 101 106 103 102 99 94 94 95 94 90 85 83 79 78 78 79 78 78 78
70 69 66 63 63 62 62 60 62 67 74 72 70 74 75 75 85 86 103 104 104 109 112 107 103 105 104 102 102 98 96 96 98 94 90 89 86 85 82 85 85 83 83
54 51 50 49 50 48 46 46 49 53 55 60 64 68 71 70 75 99 97 101 102 103 106 109 111 107 104 102 103 101 99 94 95 92 85 91 92 89 88 88 88 88 87

GFSSE_250_spd_117.txt.gz
Wind_Speed
42 41 38 36 35 35 34 34 31 31 31 28 28 27 25 25 24 24 24 23 23 21 20 19 19 18 17 17 16 18 19 18 20 21 18 14 14 12 11 10 11 12 11
40 41 41 41 39 40 39 39 37 39 39 35 32 32 31 30 28 28 27 27 26 25 23 23 22 22 21 20 19 20 19 23 24 22 20 19 17 16 13 13 12 12 13
37 38 41 44 45 43 41 41 43 41 41 40 38 38 37 35 34 31 31 31 31 29 28 27 26 26 25 25 24 24 24 24 24 24 22 21 21 20 19 18 17 17 17
30 33 38 42 43 44 45 45 44 43 43 42 42 39 40 38 37 38 36 34 35 34 33 31 29 30 30 29 28 28 29 29 28 27 25 24 24 24 24 24 22 21 21
29 29 31 32 33 36 39 43 44 43 44 46 46 44 44 44 43 42 42 39 38 38 38 37 35 34 35 35 34 34 32 33 33 31 28 27 26 28 29 28 27 26 23
28 29 29 29 30 30 28 32 37 43 45 48 48 48 49 48 49 47 46 44 42 43 43 42 43 42 41 40 39 40 40 37 37 36 32 32 30 30 32 32 30 30 30
32 33 32 32 30 31 29 28 28 31 38 44 48 49 51 51 51 50 49 49 48 47 49 48 47 47 46 45 44 44 44 44 41 40 38 38 37 34 34 34 36 35 35
38 38 36 36 36 36 34 36 34 33 32 35 39 44 47 50 50 51 51 52 53 52 53 53 52 51 51 50 50 48 48 47 45 44 42 41 41 39 38 38 38 38 38
42 43 44 43 42 41 41 40 40 39 38 37 34 36 41 45 48 49 52 54 54 56 57 56 53 53 55 54 54 55 54 52 51 50 47 45 44 44 44 44 43 42 40
46 46 49 49 48 48 48 48 48 48 45 43 43 41 40 40 40 43 45 45 50 52 54 58 59 61 62 63 63 59 56 57 56 58 54 52 50 50 52 51 49 49 46
52 52 51 52 54 53 53 54 55 55 54 53 51 49 47 46 43 43 42 42 41 41 44 46 49 51 54 56 55 53 51 52 54 57 57 57 56 57 56 56 55 52 51
59 61 60 58 60 61 60 60 61 61 60 61 59 57 55 54 52 51 49 47 46 47 44 39 39 41 45 49 48 49 51 51 52 53 54 55 57 58 58 59 59 58 55
67 68 70 69 70 67 67 66 69 69 68 66 66 65 64 61 60 58 58 57 54 53 52 50 47 46 43 41 43 43 45 47 50 52 51 51 53 52 49 51 54 57 60
75 77 78 79 79 78 75 73 72 73 74 74 74 71 72 70 67 66 65 63 62 59 57 56 56 52 49 46 44 45 43 43 45 44 45 47 45 42 39 39 38 39 43
82 82 84 85 85 85 82 82 80 79 78 78 78 79 78 76 76 73 72 69 67 67 64 60 60 59 56 53 50 50 49 49 48 47 45 44 43 41 43 41 39 38 40
88 88 89 90 92 92 91 89 88 85 85 84 83 82 82 83 81 81 80 76 74 73 71 67 65 64 62 60 57 53 53 52 51 51 52 50 47 46 44 44 45 41 40
93 94 95 96 95 97 96 98 96 93 93 91 90 90 89 87 88 85 86 86 82 81 78 75 71 69 65 62 61 59 56 56 53 53 55 54 53 50 49 49 48 44 41
99 101 103 104 105 105 103 102 102 101 100 99 99 97 97 95 93 92 91 90 89 87 86 82 79 78 76 71 68 69 62 58 57 56 57 57 56 55 55 55 50 48 46
105 107 108 109 110 110 110 107 106 107 108 107 106 107 104 102 102 99 96 95 93 89 91 88 86 83 83 80 77 76 76 60 64 57 60 58 60 60 59 59 54 52 50
106 109 111 112 113 112 111 112 111 109 108 110 109 111 111 108 107 106 103 99 99 96 92 91 91 87 91 89 85 84 81 75 85 69 67 64 64 65 63 60 59 62 58
105 105 105 105 104 106 111 111 109 108 108 109 109 104 108 107 107 108 106 104 103 101 98 98 91 95 95 95 93 92 89 88 88 82 80 75 72 69 67 66 63 65 66
104 104 106 105 107 109 109 108 105 101 100 98 97 94 96 100 97 100 99 98 99 101 102 103 99 96 96 99 99 99 96 93 96 94 87 85 81 78 75 74 72 71 71
102 99 98 97 98 96 92 91 90 90 89 88 88 88 90 92 92 92 95 89 93 95 99 103 106 105 98 100 102 102 100 100 103 98 96 90 90 87 84 80 80 77 75
84 83 81 80 79 75 74 73 73 74 75 78 79 80 80 84 83 82 87 85 81 89 93 99 102 105 108 106 103 103 103 105 105 103 100 101 97 96 90 86 85 83 80
68 69 66 63 62 61 61 60 61 59 62 65 68 70 72 73 72 74 74 73 86 85 98 100 100 102 104 105 106 107 101 105 108 109 106 104 105 95 97 93 92 88 82
49 52 51 51 50 48 48 48 48 49 51 53 55 56 61 64 67 66 67 68 88 94 89 100 100 104 99 100 105 110 108 106 107 107 107 105 107 102 97 96 94 93 93